[[{"header":{"parameterUnit":"m.s-1","parameterCategory":1,"la1":30.6,"la2":28.766,"lo1":-90.7593,"lo2":-88.6598,"dy":0.0162,"dx":0.0183,"nx":116,"ny":114,"refTime":"2023-08-24T00:00:00:Z","depth":0,"parameterNumber":2,"parameterNumberName":"U-component_of_WINDS"},"data":[0.0,0.0,0.0,0.0,0.0,0.0,0.0,0.0,0.0,0.0,0.0,0.0,0.0,0.0,0.0,0.0,0.0,0.0,0.0,0.0,0.0,0.0,0.0,0.0,0.0,0.0,0.0,0.0,0.0,0.0,0.0,0.0,0.0,0.0,0.0,0.0,0.0,0.0,0.0,0.0,0.0,0.0,0.0,0.0,0.0,0.0,0.0,0.0,0.0,0.0,0.0,0.0,0.0,0.0,0.0,0.0,0.0,0.0,0.0,0.0,0.0,0.0,0.0,0.0,0.0,0.0,0.0,0.0,0.0,0.0,0.0,0.0,0.0,0.0,0.0,0.0,0.0,0.0,0.0,0.0,0.0,0.0,0.0,0.0,0.0,0.0,0.0,0.0,0.0,0.0,0.0,0.0,0.0,0.0,0.0,0.0,0.0,0.0,0.0,0.0,0.0,0.0,0.0,0.0,0.0,0.0,0.0,0.0,0.0,0.0,0.0,0.0,0.0,0.0,0.0,0.0,0.0,0.0,0.0,0.0,0.0,0.0,0.0,0.0,0.0,0.0,0.0,0.0,0.0,0.0,0.0,0.0,0.0,0.0,0.0,0.0,0.0,0.0,0.0,0.0,0.0,0.0,0.0,0.0,0.0,0.0,0.0,0.0,0.0,0.0,0.0,0.0,0.0,0.0,0.0,0.0,0.0,0.0,0.0,0.0,0.0,0.0,0.0,0.0,0.0,0.0,0.0,0.0,0.0,0.0,0.0,0.0,0.0,0.0,0.0,0.0,0.0,0.0,0.0,0.0,0.0,0.0,0.0,0.0,0.0,0.0,0.0,0.0,0.0,0.0,0.0,0.0,0.0,0.0,0.0,0.0,0.0,0.0,0.0,0.0,0.0,0.0,0.0,0.0,0.0,0.0,0.0,0.0,0.0,0.0,0.0,0.0,0.0,0.0,0.0,0.0,0.0,0.0,0.0,0.0,0.0,0.0,0.0,0.0,0.0,0.0,0.0,0.0,0.0,0.0,0.0,0.0,0.0,0.0,0.0,0.0,0.0,0.0,0.0,0.0,0.0,0.0,0.0,0.0,0.0,0.0,0.0,0.0,0.0,0.0,0.0,0.0,0.0,0.0,0.0,0.0,0.0,0.0,0.0,0.0,0.0,0.0,0.0,0.0,0.0,0.0,0.0,0.0,0.0,0.0,0.0,0.0,0.0,0.0,0.0,0.0,0.0,0.0,0.0,0.0,0.0,0.0,0.0,0.0,0.0,0.0,0.0,0.0,0.0,0.0,0.0,0.0,0.0,0.0,0.0,0.0,0.0,0.0,0.0,0.0,0.0,0.0,0.0,0.0,0.0,0.0,0.0,0.0,0.0,0.0,0.0,0.0,0.0,0.0,0.0,0.0,0.0,0.0,0.0,0.0,0.0,0.0,0.0,0.0,0.0,0.0,0.0,0.0,0.0,0.0,0.0,0.0,0.0,0.0,0.0,0.0,0.0,0.0,0.0,0.0,0.0,0.0,0.0,0.0,0.0,0.0,0.0,0.0,0.0,0.0,0.0,0.0,0.0,0.0,0.0,0.0,0.0,0.0,0.0,0.0,0.0,0.0,0.0,0.0,0.0,0.0,0.0,0.0,0.0,0.0,0.0,0.0,0.0,0.0,0.0,0.0,0.0,0.0,0.0,0.0,0.0,0.0,0.0,0.0,0.0,0.0,0.0,0.0,0.0,0.0,0.0,0.0,0.0,0.0,0.0,0.0,0.0,0.0,0.0,0.0,0.0,0.0,0.0,0.0,0.0,0.0,0.0,0.0,0.0,0.0,0.0,0.0,0.0,0.0,0.0,0.0,0.0,0.0,0.0,0.0,0.0,0.0,0.0,0.0,0.0,0.0,0.0,0.0,0.0,0.0,0.0,0.0,0.0,0.0,0.0,0.0,0.0,0.0,0.0,0.0,0.0,0.0,0.0,0.0,0.0,0.0,0.0,0.0,0.0,0.0,0.0,0.0,0.0,0.0,0.0,0.0,0.0,0.0,0.0,0.0,0.0,0.0,0.0,0.0,0.0,0.0,0.0,0.0,0.0,0.0,0.0,0.0,0.0,0.0,0.0,0.0,0.0,0.0,0.0,0.0,0.0,0.0,0.0,0.0,0.0,0.0,0.0,0.0,0.0,0.0,0.0,0.0,0.0,0.0,0.0,0.0,0.0,0.0,0.0,0.0,0.0,0.0,0.0,0.0,0.0,0.0,0.0,0.0,0.0,0.0,0.0,0.0,0.0,0.0,0.0,0.0,0.0,0.0,0.0,0.0,0.0,0.0,0.0,0.0,0.0,0.0,0.0,0.0,0.0,0.0,0.0,0.0,0.0,0.0,0.0,0.0,0.0,0.0,0.0,0.0,0.0,0.0,0.0,0.0,0.0,0.0,0.0,0.0,0.0,0.0,0.0,0.0,0.0,0.0,0.0,0.0,0.0,0.0,0.0,0.0,0.0,0.0,0.0,0.0,0.0,0.0,0.0,0.0,0.0,0.0,0.0,0.0,0.0,0.0,0.0,0.0,0.0,0.0,0.0,0.0,0.0,0.0,0.0,0.0,0.0,0.0,0.0,0.0,0.0,0.0,0.0,0.0,0.0,0.0,0.0,0.0,0.0,0.0,0.0,0.0,0.0,0.0,0.0,0.0,0.0,0.0,0.0,0.0,0.0,0.0,0.0,0.0,0.0,0.0,0.0,0.0,0.0,0.0,0.0,0.0,0.0,0.0,0.0,0.0,0.0,0.0,0.0,0.0,0.0,0.0,0.0,0.0,0.0,0.0,0.0,0.0,0.0,0.0,0.0,0.0,0.0,0.0,0.0,0.0,0.0,0.0,0.0,0.0,0.0,0.0,0.0,0.0,0.0,0.0,0.0,0.0,0.0,0.0,0.0,0.0,0.0,0.0,0.0,0.0,0.0,0.0,0.0,0.0,0.0,0.0,0.0,0.0,0.0,0.0,0.0,0.0,0.0,0.0,0.0,0.0,0.0,0.0,0.0,0.0,0.0,0.0,0.0,0.0,0.0,0.0,0.0,0.0,0.0,0.0,0.0,0.0,0.0,0.0,0.0,0.0,0.0,0.0,0.0,0.0,0.0,0.0,0.0,0.0,0.0,0.0,0.0,0.0,0.0,0.0,0.0,0.0,0.0,0.0,0.0,0.0,0.0,0.0,0.0,0.0,0.0,0.0,0.0,0.0,0.0,0.0,0.0,0.0,0.0,0.0,0.0,0.0,0.0,0.0,0.0,0.0,0.0,0.0,0.0,0.0,0.0,0.0,0.0,0.0,0.0,0.0,0.0,0.0,0.0,0.0,0.0,0.0,0.0,0.0,0.0,0.0,0.0,0.0,0.0,0.0,0.0,0.0,0.0,0.0,0.0,0.0,0.0,0.0,0.0,0.0,0.0,0.0,0.0,0.0,0.0,0.0,0.0,0.0,0.0,0.0,0.0,0.0,0.0,0.0,0.0,0.0,0.0,0.0,0.0,0.0,0.0,0.0,0.0,0.0,0.0,0.0,0.0,0.0,0.0,0.0,0.0,0.0,0.0,0.0,0.0,0.0,0.0,0.0,0.0,0.0,0.0,0.0,0.0,0.0,0.0,0.0,0.0,0.0,0.0,0.0,0.0,0.0,0.0,0.0,0.0,0.0,0.0,0.0,0.0,0.0,0.0,0.0,0.0,0.0,0.0,0.0,0.0,0.0,0.0,0.0,0.0,0.0,0.0,0.0,0.0,0.0,0.0,0.0,0.0,0.0,0.0,0.0,0.0,0.0,0.0,0.0,0.0,0.0,0.0,0.0,0.0,0.0,0.0,0.0,0.0,0.0,0.0,0.0,0.0,0.0,0.0,0.0,0.0,0.0,0.0,0.0,0.0,0.0,0.0,0.0,0.0,0.0,0.0,0.0,0.0,0.0,0.0,0.0,0.0,0.0,0.0,0.0,0.0,0.0,0.0,0.0,0.0,0.0,0.0,0.0,0.0,0.0,0.0,0.0,0.0,0.0,0.0,0.0,0.0,0.0,0.0,0.0,0.0,0.0,0.0,0.0,0.0,0.0,0.0,0.0,0.0,0.0,0.0,0.0,0.0,0.0,0.0,0.0,0.0,0.0,0.0,0.0,0.0,0.0,0.0,0.0,0.0,0.0,0.0,0.0,0.0,0.0,0.0,0.0,0.0,0.0,0.0,0.0,0.0,0.0,0.0,0.0,0.0,0.0,0.0,0.0,0.0,0.0,0.0,0.0,0.0,0.0,0.0,0.0,0.0,0.0,0.0,0.0,0.0,0.0,0.0,0.0,0.0,0.0,0.0,0.0,0.0,0.0,0.0,0.0,0.0,0.0,0.0,0.0,0.0,0.0,0.0,0.0,0.0,0.0,0.0,0.0,0.0,0.0,0.0,0.0,0.0,0.0,0.0,0.0,0.0,0.0,0.0,0.0,0.0,0.0,0.0,0.0,0.0,0.0,0.0,0.0,0.0,0.0,0.0,0.0,0.0,0.0,0.0,0.0,0.0,0.0,0.0,0.0,0.0,0.0,0.0,0.0,0.0,0.0,0.0,0.0,0.0,0.0,0.0,0.0,0.0,0.0,0.0,0.0,0.0,0.0,0.0,0.0,0.0,0.0,0.0,0.0,0.0,0.0,0.0,0.0,0.0,0.0,0.0,0.0,0.0,0.0,0.0,0.0,0.0,0.0,0.0,0.0,0.0,0.0,0.0,0.0,0.0,0.0,0.0,0.0,0.0,0.0,0.0,0.0,0.0,0.0,0.0,0.0,0.0,0.0,0.0,0.0,0.0,0.0,0.0,0.0,0.0,0.0,0.0,0.0,0.0,0.0,0.0,0.0,0.0,0.0,0.0,0.0,0.0,0.0,0.0,0.0,0.0,0.0,0.0,0.0,0.0,0.0,0.0,0.0,0.0,0.0,0.0,0.0,0.0,0.0,0.0,0.0,0.0,0.0,0.0,0.0,0.0,0.0,0.0,0.0,0.0,0.0,0.0,0.0,0.0,0.0,0.0,0.0,0.0,0.0,0.0,0.0,0.0,0.0,0.0,0.0,0.0,0.0,0.0,0.0,0.0,0.0,0.0,0.0,0.0,0.0,0.0,0.0,0.0,0.0,0.0,0.0,0.0,0.0,0.0,0.0,0.0,0.0,0.0,0.0,0.0,0.0,0.0,0.0,0.0,0.0,0.0,0.0,0.0,0.0,0.0,0.0,0.0,0.0,0.0,0.0,0.0,0.0,0.0,0.0,0.0,0.0,0.0,0.0,0.0,0.0,0.0,0.0,0.0,0.0,0.0,0.0,0.0,0.0,0.0,0.0,0.0,0.0,0.0,0.0,0.0,0.0,0.0,0.0,0.0,0.0,0.0,0.0,0.0,0.0,0.0,0.0,0.0,0.0,0.0,0.0,0.0,0.0,0.0,0.0,0.0,0.0,0.0,0.0,0.0,0.0,0.0,0.0,0.0,0.0,0.0,0.0,0.0,0.0,0.0,0.0,0.0,0.0,0.0,0.0,0.0,0.0,0.0,0.0,0.0,0.0,0.0,0.0,0.0,0.0,0.0,0.0,0.0,0.0,0.0,0.0,0.0,0.0,0.0,0.0,0.0,0.0,0.0,0.0,0.0,0.0,0.0,0.0,0.0,0.0,0.0,0.0,0.0,0.0,0.0,0.0,0.0,0.0,0.0,0.0,0.0,0.0,0.0,0.0,0.0,0.0,0.0,0.0,0.0,0.0,0.0,0.0,0.0,0.0,0.0,0.0,0.0,0.0,0.0,0.0,0.0,0.0,0.0,0.0,0.0,0.0,0.0,0.0,0.0,0.0,0.0,0.0,0.0,0.0,0.0,0.0,0.0,0.0,0.0,0.0,0.0,0.0,0.0,0.0,0.0,0.0,0.0,0.0,0.0,0.0,0.0,0.0,0.0,0.0,0.0,0.0,0.0,0.0,0.0,0.0,0.0,0.0,0.0,0.0,0.0,0.0,0.0,0.0,0.0,0.0,0.0,0.0,0.0,0.0,0.0,0.0,0.0,0.0,0.0,0.0,0.0,0.0,0.0,0.0,0.0,0.0,0.0,0.0,0.6601,0.6785,0.0,0.0,0.0,0.0,0.0,0.0,0.0,0.0,0.0,0.0,0.0,0.0,0.0,0.0,0.0,0.0,0.0,0.0,0.0,0.0,0.0,0.0,0.0,0.0,0.0,0.0,0.0,0.0,0.0,0.0,0.0,0.0,0.0,0.0,0.0,0.0,0.0,0.0,0.0,0.0,0.0,0.0,0.0,0.0,0.0,0.0,0.0,0.0,0.0,0.0,0.0,0.0,0.0,0.0,0.0,0.0,0.0,0.0,0.0,0.0,0.0,0.0,0.0,0.0,0.0,0.0,0.0,0.0,0.0,0.0,0.0,0.0,0.0,0.0,0.0,0.0,0.0,0.0,0.0,0.0,0.0,0.0,0.0,0.0,0.0,0.0,0.0,0.0,0.0,0.0,0.0,0.0,0.0,0.0,0.0,0.0,0.0,0.0,0.0,0.0,0.0,0.0,0.0,0.0,0.0,0.0,0.0,0.0,0.0,0.0,0.0,0.0,0.0,0.0,0.5495,0.6094,0.0,0.0,0.0,0.0,0.0,0.0,0.0,0.0,0.0,0.0,0.0,0.0,0.0,0.0,0.0,0.0,0.0,0.0,0.0,0.0,0.0,0.0,0.0,0.0,0.0,0.0,0.0,0.0,0.0,0.0,0.0,0.0,0.0,0.0,0.0,0.0,0.0,0.0,0.0,0.0,0.0,0.0,0.0,0.0,0.0,0.0,0.0,0.0,0.0,0.0,0.0,0.0,0.0,0.0,0.0,0.0,0.0,0.0,0.0,0.0,0.0,0.0,0.0,0.0,0.0,0.0,0.0,0.0,0.0,0.0,0.0,0.0,0.0,0.0,0.0,0.0,0.0,0.0,0.0,0.0,0.0,0.0,0.0,0.0,0.0,0.0,0.0,0.0,0.0,0.0,0.0,0.0,0.0,0.0,0.0,0.0,0.0,0.0,0.0,0.0,0.0,0.0,0.0,0.0,0.0,0.0,0.0,0.0,0.4916,0.5122,0.5329,0.3828,0.3017,0.2817,0.4308,0.4919,0.4916,0.4916,0.0,0.0,0.0,0.0,0.0,0.0,0.0,0.0,0.0,0.0,0.0,0.0,0.0,0.0,0.0,0.0,0.0,0.0,0.0,0.0,0.0,0.0,0.0,0.0,0.0,0.0,0.0,0.0,0.0,0.0,0.0,0.0,0.0,0.0,0.0,0.0,0.0,0.0,1.4025,1.3243,1.2512,1.1896,1.1108,0.0,0.0,0.0,0.0,0.0,0.0,0.0,0.0,0.0,0.0,0.0,0.0,0.0,0.0,0.0,0.0,0.0,0.0,0.0,0.0,0.0,0.0,0.0,0.0,0.0,0.0,0.0,0.0,0.0,0.0,0.0,0.0,0.0,0.0,0.0,0.0,0.0,0.0,0.0,0.0,0.0,0.0,0.0,1.2557,1.1051,0.0,0.0,0.0,0.0,0.0,0.0,0.0,0.0,0.0,0.0,0.0,0.0,0.0,0.484,0.3278,0.3147,0.3082,0.3082,0.3082,0.3897,0.541,0.5135,0.4185,0.27,0.2971,0.0,0.3082,0.3082,0.0,0.0,0.0,0.0,0.0,0.0,0.0,0.0,0.0,0.0,0.0,0.0,0.0,0.0,0.0,0.0,0.0,0.0,0.0,0.0,0.0,0.0,0.0,0.0,0.0,0.0,0.0,0.0,0.0,0.0,0.0,0.0,0.0,0.0,0.0,0.0,1.4569,1.3974,1.3494,1.2696,1.1903,1.1108,1.0744,1.0624,1.0624,1.0989,0.0,0.0,0.0,0.0,0.0,0.0,0.0,0.0,0.0,0.0,0.0,0.0,0.0,0.0,0.0,0.0,0.0,0.0,0.0,0.0,0.0,0.0,0.0,0.0,0.0,0.0,0.0,0.0,0.0,0.0,0.0,0.0,0.0,0.0,0.0,0.0,0.0,0.0,0.0,1.2427,1.1315,1.0647,1.0465,1.0281,0.0,0.0,0.0,0.0,0.0,0.0,0.0,0.0,0.0,0.618,0.5663,0.4995,0.4241,0.2216,0.1209,0.1209,0.1209,0.1613,0.2357,0.2357,0.1954,0.1214,0.1214,0.1212,0.1209,0.1209,0.1207,0.1272,0.0,0.0,0.0,0.0,0.4509,0.5406,0.0,0.0,0.0,0.0,0.0,0.0,0.0,0.0,0.0,0.0,0.0,0.0,0.0,0.0,0.0,1.542,0.0,0.0,0.0,0.0,0.0,0.0,0.0,0.0,0.0,0.0,0.0,1.541,1.4569,1.3906,1.3304,1.2512,1.1655,1.0926,1.0926,1.08,1.0624,1.0807,1.0807,0.0,0.0,0.0,0.0,0.0,0.0,0.0,0.0,0.0,0.0,0.0,0.0,0.0,0.0,0.0,0.0,0.0,0.0,0.0,0.0,0.0,0.0,0.0,0.0,0.0,0.0,0.0,0.0,0.0,0.0,0.0,0.0,0.0,0.0,0.0,0.0,0.0,0.0,1.1377,1.0129,0.997,0.9332,0.9134,0.0,0.0,0.0,0.0,0.0,0.0,0.647,0.6995,0.6751,0.5456,0.4517,0.4048,0.4048,0.1347,-0.0,-0.0,-0.0,-0.0,-0.0,-0.0,-0.0,-0.0,-0.0,-0.0,-0.0,-0.0,-0.0,-0.0,-0.0,0.0804,0.2011,0.2011,0.2889,0.4048,0.0,0.0,0.0,0.0,0.0,0.0,0.0,0.0,0.0,0.0,0.0,0.0,0.0,0.0,1.5859,1.5449,1.541,1.541,0.0,0.0,0.0,0.0,0.0,0.0,0.0,0.0,0.0,1.541,1.4569,1.4213,1.4145,1.3312,1.2512,1.1772,1.1772,1.1351,1.0618,1.1406,1.1288,1.0688,0.0,0.0,0.0,0.0,0.0,0.0,0.0,0.0,0.0,0.0,0.0,0.0,0.0,0.0,0.0,0.0,0.0,0.0,0.0,0.0,0.0,0.0,0.0,0.0,0.0,0.0,0.0,0.0,0.0,0.0,0.0,0.0,0.0,0.0,0.0,0.0,0.0,0.0,0.0,0.8221,0.8091,0.0,0.0,0.0,0.0,0.6915,0.7021,0.6709,0.5509,0.5533,0.548,0.541,0.2088,0.027,0.027,0.0067,-0.0,-0.0,-0.0,-0.0,-0.0,-0.0,-0.0,-0.0,-0.0,-0.0,-0.0,-0.0,-0.0,-0.0,-0.0,0.0067,0.0135,0.0135,0.0202,0.027,0.0,0.0,0.0,0.0,0.0,0.0,0.0,0.0,0.0,0.0,0.0,0.0,0.0,1.6143,1.6056,1.585,1.5566,1.541,1.541,0.0,0.0,0.0,0.0,0.0,0.0,0.0,1.541,1.541,1.5108,1.4451,1.3425,1.313,1.2274,1.1052,1.1052,1.0863,1.0624,1.0926,1.0863,1.0624,1.0926,1.0863,0.0,0.0,0.0,0.0,0.0,0.0,0.0,0.0,0.0,0.0,0.0,0.0,0.0,0.0,0.0,0.0,0.0,0.0,0.0,0.0,0.0,0.0,0.0,0.0,0.0,0.0,0.0,0.0,0.0,0.0,0.0,0.0,0.0,0.0,0.0,0.0,0.0,0.8812,0.7832,0.0,0.7502,0.7307,0.7125,0.6955,0.6378,0.5309,0.3751,0.2554,0.2965,0.5343,0.1885,-0.0,-0.0,-0.0,-0.0,-0.0,-0.0,-0.0,-0.0,-0.0,-0.0,-0.0,-0.0,-0.0,-0.0,-0.0,-0.0,-0.0,-0.0,-0.0,-0.0,-0.0,-0.0,-0.0,0.0,0.0,0.0,0.0,0.0,0.0,0.0,0.0,0.0,0.0,0.0,1.7373,1.6797,1.6465,1.623,1.6135,1.5664,1.541,1.541,0.0,0.0,0.0,0.0,0.0,0.0,1.541,1.541,1.541,1.541,1.4746,1.3425,1.3425,1.2573,1.0982,1.0982,1.0863,1.0624,1.0624,1.0624,1.0624,1.0624,1.0624,1.0624,0.0,0.0,0.0,0.0,0.0,0.0,0.0,0.0,0.0,0.0,0.0,0.0,0.0,0.0,0.0,0.0,0.0,0.0,0.0,0.0,0.0,0.0,0.0,0.0,0.0,0.0,0.0,0.0,0.0,0.0,0.0,0.0,0.0,0.0,0.9875,0.8549,0.8812,0.7567,0.6785,0.7116,0.6597,0.6342,0.6502,0.5439,0.4295,0.3078,0.1074,0.1075,0.3498,0.1279,-0.0,-0.0,-0.0,-0.0,-0.0,-0.0,-0.0,-0.0,-0.0,-0.0,-0.0,-0.0,0.0674,0.1751,0.0472,0.0337,0.0874,0.0269,-0.0,-0.0,-0.0,-0.0,-0.0,0.0,0.0,0.0,0.0,0.0,0.0,0.0,0.0,0.0,0.0,1.8258,1.7695,1.6855,1.6758,1.6572,1.6123,1.5684,1.543,1.541,1.541,0.0,0.0,0.0,0.0,1.541,1.541,1.541,1.541,1.541,1.4991,1.4213,1.4213,1.3356,1.1826,1.1826,1.1406,1.0688,1.0624,1.0624,1.0624,1.0624,1.0624,1.0624,0.0,0.0,0.0,0.0,0.0,0.0,0.0,0.0,0.0,0.0,0.0,0.0,0.0,0.0,0.0,0.0,0.0,0.0,0.0,0.0,0.0,0.0,0.0,0.0,0.0,0.0,0.0,0.0,0.0,0.0,0.0,0.0,0.0,1.1648,1.0338,0.9005,0.8091,0.7242,0.6334,0.5491,0.5428,0.5428,0.5428,0.4348,0.3678,0.3678,0.1471,0.0134,-0.0,0.0067,0.0067,-0.0,-0.0,-0.0,-0.0,-0.0,0.0067,0.0202,0.0202,0.0135,0.0067,0.0067,0.2088,0.5068,0.1616,0.1142,0.2544,0.074,-0.0,-0.0,-0.0,-0.0,-0.0,0.0,0.0,0.0,0.0,0.0,0.0,0.0,0.0,0.0,0.0,1.8449,1.792,1.7686,1.7383,1.7031,1.6592,1.6143,1.5752,1.543,0.0,0.0,0.0,0.0,0.0,1.541,1.541,1.541,1.541,1.541,1.4991,1.4213,1.4213,1.3666,1.2696,1.2696,1.2581,1.2274,1.1717,1.1469,1.1406,1.08,1.0624,1.0645,0.0,0.0,0.0,0.0,0.0,0.0,0.0,0.0,0.0,0.0,0.0,0.0,0.0,0.0,0.0,0.0,0.0,0.0,0.0,0.0,0.0,0.0,0.0,0.0,0.0,0.0,0.0,0.0,0.0,0.0,0.0,1.0989,1.0681,1.0926,0.997,0.9005,0.8091,0.7242,0.6334,0.5491,0.5428,0.5432,0.5372,0.5103,0.4903,0.4909,0.43,0.2681,0.0067,0.1273,0.1343,-0.0,-0.0,-0.0,-0.0,-0.0,0.1347,0.3912,0.3912,0.323,0.1944,0.1944,0.2547,0.3489,0.3766,0.3424,0.2544,0.074,-0.0,-0.0,-0.0,-0.0,-0.0,0.0,0.0,0.0,0.0,0.0,0.0,0.0,0.0,0.0,0.0,1.8529,1.8008,1.8008,1.7637,1.7285,1.7031,1.6426,1.5957,1.5703,0.0,0.0,0.0,0.0,1.541,1.541,1.541,1.541,1.541,1.541,1.4991,1.4213,1.4213,1.3786,1.3009,1.3009,1.3009,1.2948,1.2512,1.2406,1.2539,1.2044,1.1425,1.084,1.1525,1.1769,1.1871,1.2577,1.2755,1.3005,1.4441,0.0,0.0,0.0,0.0,0.0,0.0,0.0,0.0,0.0,0.0,0.0,0.0,0.0,0.0,0.0,0.0,0.0,0.0,0.0,0.0,0.0,0.0,0.0,0.0,1.0926,1.0624,1.0624,0.9849,0.9005,0.8091,0.7242,0.6334,0.5491,0.5428,0.5432,0.5372,0.5372,0.5376,0.5379,0.5386,0.4434,0.2342,0.2544,0.2547,0.2287,0.1542,0.1139,0.1141,0.1141,0.2217,0.4308,0.5062,0.4852,0.3825,0.3825,0.3823,0.3887,0.4982,0.4773,0.3749,0.0,0.0,0.0,0.0,-0.0,-0.0,0.0,0.0,0.0,0.0,0.0,0.0,0.0,0.0,0.0,0.0,0.0,1.8008,1.8008,1.7676,1.7432,1.7393,1.6747,1.6266,0.0,0.0,0.0,1.541,1.541,1.541,1.541,1.541,1.541,1.541,1.541,1.505,1.4332,1.4332,1.3965,1.3243,1.3243,1.3268,1.331,1.325,1.3459,1.3794,1.3772,1.2801,1.1525,1.2639,1.3096,1.3276,1.4348,1.4745,1.4794,1.5196,0.0,0.0,0.0,0.0,0.0,0.0,0.0,0.0,0.0,0.0,0.0,0.0,0.0,0.0,0.0,0.0,0.0,0.0,0.0,0.0,0.0,0.0,0.0,0.0,1.0624,1.0624,1.0624,0.9849,0.9011,0.8221,0.7372,0.6527,0.562,0.5425,0.5428,0.5428,0.5428,0.5428,0.5428,0.5372,0.0,0.0,0.0,0.3756,0.5396,0.3823,0.3013,0.3013,0.3013,0.3013,0.308,0.464,0.5393,0.5393,0.5393,0.5386,0.5376,0.5386,0.5379,0.5428,0.5386,0.4434,0.2813,0.1004,0.0336,0.0269,0.0,0.0,0.0,0.0,0.0,0.0,0.0,0.0,0.0,1.8202,1.8076,1.8008,1.8008,1.7939,1.7754,1.7412,1.7446,1.7172,0.0,0.0,1.5781,1.543,1.541,1.541,1.541,1.541,1.541,1.541,1.541,1.5294,1.5177,1.5177,1.505,1.4932,1.4932,1.5181,1.5434,1.4814,1.4791,1.5103,1.4688,1.4164,1.3687,1.4177,1.4375,1.4424,1.4924,1.5126,1.5205,1.6044,1.6358,1.6428,1.7217,1.7579,0.0,0.0,0.0,0.0,0.0,0.0,0.0,0.0,0.0,0.0,0.0,0.0,0.0,0.0,0.0,0.0,0.0,0.0,0.0,1.0624,1.0624,1.0624,1.0624,0.9849,0.9204,0.9075,0.8291,0.7437,0.6527,0.5815,0.5428,0.5428,0.5428,0.5428,0.5428,0.5428,0.5369,0.5379,0.503,0.5033,0.5396,0.5043,0.4906,0.4849,0.4849,0.0,0.4903,0.5243,0.5376,0.5369,0.5369,0.5432,0.5432,0.5432,0.5432,0.5428,0.5376,0.5183,0.4643,0.2813,0.221,0.1944,0.0,0.0,0.0,0.0,0.0,0.0,0.0,0.0,0.0,0.0,1.9299,1.9299,1.9299,1.9299,1.9215,1.9049,1.8533,0.0,0.0,1.6688,1.6201,1.5752,1.5732,1.5635,1.542,1.541,1.541,1.541,1.541,1.541,1.542,1.5635,1.5732,1.5752,1.5967,1.6191,1.6396,1.5951,1.6062,1.6458,1.6184,1.6066,1.6084,1.5789,1.5644,1.5739,1.6365,1.6585,1.6655,1.7148,1.7285,1.7354,1.7862,1.8008,1.8008,0.0,0.0,0.0,0.0,0.0,0.0,0.0,0.0,0.0,0.0,0.0,0.0,0.0,0.0,1.1745,1.1276,0.0,1.0949,1.0802,1.0775,1.0728,1.0645,1.0238,0.9786,0.9338,0.8549,0.7832,0.7372,0.6593,0.6075,0.6075,0.562,0.5428,0.5428,0.5428,0.5432,0.5369,0.5432,0.5432,0.5379,0.5372,0.5372,0.5379,0.5379,0.5376,0.5369,0.5369,0.5432,0.5428,0.5428,0.5428,0.5428,0.5428,0.5428,0.5428,0.5369,0.5376,0.5316,0.4361,0.4025,0.3894,0.0,0.0,0.0,0.0,0.0,0.0,0.0,0.0,0.0,0.0,2.0462,2.059,2.059,2.059,2.061,0.0,0.0,0.0,0.0,1.7771,1.7131,1.6739,1.6719,1.6487,1.59,1.589,1.5841,1.5664,1.5664,1.5664,1.5674,1.6035,1.6191,1.6211,1.6572,1.6777,1.6855,1.6855,1.7109,1.75,1.75,1.7705,1.794,1.7139,1.6853,1.6991,1.7725,1.8008,1.8008,1.8008,1.8008,1.8008,1.8008,1.8008,1.8008,1.8008,1.8008,0.0,0.0,0.0,0.0,0.0,0.0,0.0,0.0,1.6402,1.5292,1.4488,1.3517,1.2606,1.1923,1.16,1.1349,1.1116,1.1076,1.0995,1.0762,1.0728,1.0509,0.9744,0.884,0.8221,0.8221,0.7437,0.6981,0.6981,0.6272,0.5885,0.5885,0.5885,0.5818,0.5686,0.562,0.5557,0.5428,0.5428,0.5428,0.5428,0.5428,0.5428,0.5428,0.5428,0.5428,0.5428,0.5428,0.5428,0.5428,0.5428,0.5428,0.5428,0.5428,0.5432,0.5376,0.5376,0.5379,0.5389,0.0,0.0,0.0,0.0,0.0,0.0,0.0,0.0,0.0,0.0,0.0,0.0,0.0,0.0,0.0,0.0,0.0,0.0,2.0135,1.9769,1.9365,1.8948,1.8926,1.8545,1.7716,1.7716,1.7359,1.6519,1.6519,1.6519,1.6582,1.6641,1.666,1.666,1.6709,1.6943,1.7314,1.7314,1.7549,1.7939,1.7939,1.7969,1.8008,1.7862,1.7862,1.7862,1.794,1.8008,1.8008,1.8008,1.8008,1.8008,1.8008,1.8008,1.8008,1.8008,1.8008,1.8008,1.8008,1.8008,1.8008,1.8008,1.7978,1.7726,0.0,1.6537,1.6225,1.525,1.4104,1.3207,1.3137,1.2144,1.1416,1.1383,1.1376,1.1363,1.1329,1.1329,1.1168,1.0844,0.9799,0.9139,0.9139,0.8355,0.7827,0.7827,0.7767,0.7702,0.7702,0.7702,0.7377,0.6593,0.6523,0.6203,0.5428,0.5428,0.5428,0.5428,0.5428,0.5428,0.5428,0.5428,0.5428,0.5428,0.5428,0.5428,0.5428,0.5428,0.5428,0.5428,0.5428,0.5428,0.5428,0.5428,0.5432,0.5432,0.0,0.0,0.0,0.0,0.0,0.0,0.0,0.0,0.0,0.0,0.0,0.0,0.0,0.0,0.0,0.0,0.0,0.0,2.1259,2.0676,2.0115,1.9693,1.967,1.9354,1.8775,1.823,1.7811,1.7451,1.6971,1.6665,1.6738,1.6992,1.7109,1.7119,1.7363,1.7578,1.7744,1.7744,1.7852,1.8008,1.8008,1.8008,1.8008,1.8008,1.8008,1.8008,1.8008,1.8008,0.0,1.8008,1.8008,1.8008,1.8008,1.8008,1.8008,1.8008,1.8008,1.8008,1.8008,1.8008,1.8008,1.8008,1.8008,1.7862,1.7501,1.6991,1.6349,1.5376,1.434,1.3401,1.2834,1.2298,1.1877,1.171,1.1683,1.1623,1.145,1.1423,1.1383,1.1263,1.0795,1.0397,1.0079,0.9262,0.8748,0.8748,0.8285,0.8027,0.8027,0.7502,0.7046,0.6719,0.6203,0.5752,0.5428,0.5428,0.5428,0.5428,0.5428,0.5428,0.5428,0.5428,0.5428,0.5428,0.5428,0.5428,0.5428,0.5428,0.5428,0.5428,0.5428,0.5428,0.5428,0.5428,0.5428,0.5428,0.0,0.0,0.0,0.0,0.0,0.0,0.0,0.0,0.0,0.0,0.0,0.0,0.0,0.0,0.0,0.0,0.0,0.0,0.0,2.1616,2.1128,2.0807,2.0796,2.056,2.0033,1.9415,1.8986,1.8738,1.7818,1.7392,1.7392,1.7534,1.7559,1.7568,1.7871,1.8008,1.8008,1.8008,1.8008,1.8008,1.8008,1.8008,1.8008,1.8008,1.8008,1.8008,1.8008,1.8008,1.8008,1.8008,1.8008,1.8008,1.8008,1.8008,1.8008,1.8008,1.8008,1.8008,1.8008,1.8008,1.8008,1.8008,1.8008,1.8008,1.8008,1.7501,1.6784,1.6088,1.5163,1.4235,1.3302,1.2879,1.2517,1.2096,1.1991,1.1917,1.1697,1.1663,1.1637,1.1557,1.155,1.1349,1.0848,1.0269,0.9878,0.9878,0.9271,0.8936,0.8936,0.8337,0.7868,0.7669,0.6963,0.6477,0.6215,0.6168,0.6145,0.6145,0.6145,0.6013,0.5752,0.5491,0.5557,0.5749,0.5491,0.5428,0.5428,0.5428,0.5428,0.5428,0.5428,0.5428,0.5428,0.5428,0.5428,0.5428,0.0,0.0,0.0,0.0,0.0,0.0,0.0,0.0,0.0,0.0,0.0,0.0,0.0,0.0,0.0,0.0,0.0,0.0,0.0,2.3065,2.3005,2.298,2.298,2.2665,2.183,2.1768,2.1381,2.0546,1.964,1.9191,1.9191,1.8375,1.7988,1.7988,1.8008,1.8008,1.8008,1.8008,1.8008,1.8008,1.8008,1.8008,1.8008,1.8008,1.8008,1.8008,1.8008,0.0,1.8008,1.8008,1.8008,1.8008,1.8008,1.8008,1.8008,1.8008,1.8008,1.8008,1.8008,1.8008,1.8008,1.8008,1.8008,1.8008,1.8008,1.8008,1.794,1.794,1.7148,1.6219,1.5305,1.4314,1.3382,1.2432,1.2285,1.2285,1.2278,1.2278,1.2171,1.1891,1.1857,1.1737,1.143,1.1328,1.1328,1.1328,1.1328,1.1328,1.1328,1.1259,1.0842,1.0008,0.9699,0.9164,0.8342,0.8068,0.7897,0.7897,0.7897,0.7502,0.6654,0.5815,0.5881,0.6588,0.5752,0.5428,0.5428,0.5428,0.5428,0.5428,0.5428,0.5428,0.5428,0.5428,0.5428,0.5428,0.0,0.0,0.0,0.0,0.0,0.0,0.0,0.0,0.0,0.0,0.0,0.0,0.0,0.0,0.0,0.0,0.0,0.0,0.0,2.3078,2.3078,2.3078,2.3078,2.2944,2.2702,2.2199,2.1753,2.1491,2.059,2.0139,2.0139,1.9879,1.9759,1.9683,1.911,1.8844,1.8854,1.8269,1.8008,1.8008,1.8008,1.8008,1.8008,1.8008,1.8008,1.8008,0.0,0.0,1.8008,1.8008,1.8008,1.8008,1.8008,1.8008,1.8008,1.8008,1.8008,1.8008,1.8008,1.8008,1.8008,1.8008,1.8008,1.8008,1.8008,1.8008,1.7794,1.7207,1.6853,1.628,1.5376,1.495,1.4593,1.4307,1.3665,1.3237,1.3237,1.2659,1.2265,1.2171,1.2158,1.2118,1.2017,1.1657,1.1423,1.1423,1.1423,1.1423,1.1423,1.0867,1.0384,1.0101,0.9455,0.8992,0.8646,0.8569,0.8533,0.8533,0.8533,0.8391,0.8049,0.778,0.7848,0.8049,0.778,0.7232,0.6519,0.6519,0.6049,0.5428,0.5428,0.5428,0.5428,0.5428,0.5428,0.5428,0.0,0.0,0.0,0.0,0.0,0.0,0.0,0.0,0.0,0.0,0.0,0.0,0.0,0.0,0.0,0.0,0.0,2.3078,0.0,0.0,2.3078,2.3078,2.3078,2.3078,2.3078,2.2567,2.2322,2.2322,2.1491,2.1037,2.1037,2.0719,2.059,2.059,2.0009,1.9748,1.9748,1.9177,1.8721,1.8462,1.8462,1.8269,1.8008,1.8008,1.8008,0.0,0.0,0.0,1.8395,1.8076,1.8008,1.8008,1.8008,1.8008,1.8008,1.8008,1.8008,1.8008,1.8008,1.8008,1.8008,1.8008,1.8008,1.8008,1.8008,1.8008,1.7862,1.7207,1.707,1.6784,1.5869,1.572,1.5579,1.5234,1.4665,1.4243,1.4243,1.3738,1.331,1.331,1.331,1.331,1.331,1.2657,1.2081,1.1737,1.1737,1.1737,1.1737,1.1166,1.0876,1.0876,1.0278,0.9944,0.9944,0.9782,0.9736,0.9736,0.9388,0.9458,0.9736,0.9104,0.8969,0.9249,0.8969,0.8399,0.7729,0.7729,0.7035,0.6048,0.5993,0.5776,0.5437,0.5449,0.5428,0.5428,0.0,0.0,0.0,0.0,0.0,0.0,0.0,0.0,0.0,0.0,0.0,0.0,0.0,0.0,0.0,0.0,0.0,0.0,0.0,0.0,0.0,2.3078,2.3078,2.3078,2.3078,2.3078,2.3078,2.3078,2.2322,2.1939,2.1939,2.1101,2.0719,2.0719,2.0655,2.0655,2.0655,2.059,2.0139,1.9365,1.9365,1.8854,1.8144,1.8144,0.0,0.0,0.0,1.8664,1.9177,1.8269,1.8008,1.8008,1.8008,1.8008,1.8008,1.8008,1.8008,1.8008,1.8008,1.8008,1.8008,1.8008,1.8008,1.8008,1.8008,1.8008,1.8008,1.8008,1.8008,1.7725,1.6853,1.6636,1.6358,1.5517,1.5305,1.5305,1.5305,1.5234,1.5234,1.5234,1.5163,1.5092,1.5092,1.4243,1.3237,1.2372,1.2305,1.2305,1.2305,1.2305,1.2305,1.2305,1.2037,1.1891,1.1891,1.161,1.147,1.147,1.0628,1.0635,1.1401,0.9706,0.9427,1.0142,0.9357,0.8925,0.8915,0.8915,0.8272,0.7332,0.7233,0.6555,0.5652,0.5564,0.5439,0.5439,0.0,0.0,0.0,0.0,0.0,0.0,0.0,0.0,0.0,0.0,0.0,0.0,0.0,0.0,0.0,0.0,0.0,0.0,0.0,0.0,0.0,0.0,0.0,0.0,2.3078,2.3078,2.3078,2.3078,2.2884,2.2823,2.2823,2.2567,2.2433,2.2433,2.1815,2.1553,2.1553,2.0846,2.0462,2.0268,0.0,2.0139,1.9944,0.0,0.0,0.0,0.0,1.9694,1.9177,1.8269,1.8008,1.8008,1.8008,1.8008,1.8008,1.8008,1.8008,1.8008,1.8008,1.8008,1.8008,1.8008,1.8008,1.8008,1.8008,1.8008,1.8008,1.8008,1.8008,1.794,1.7716,1.7647,1.7579,1.7295,1.6715,1.621,1.621,1.5658,1.5234,1.5234,1.4522,1.4099,1.4099,1.3237,1.2592,1.2298,1.2305,1.2305,1.2305,1.2305,1.2305,1.2305,1.2231,1.2191,1.2191,1.2118,1.2078,1.2078,1.186,1.1854,1.2078,1.1629,1.1557,1.1708,1.1484,1.093,1.017,1.017,0.9488,0.8398,0.8349,0.7771,0.6846,0.674,0.6207,0.5515,0.0,0.0,0.0,0.0,0.0,0.0,0.0,0.0,0.0,0.0,0.0,0.0,0.0,0.0,0.0,0.0,0.0,0.0,0.0,0.0,0.0,0.0,0.0,0.0,2.3078,2.3078,2.3078,2.3078,0.0,0.0,2.3078,2.3078,2.3078,2.3065,2.2628,2.2445,2.2384,2.1928,0.0,0.0,0.0,0.0,0.0,0.0,0.0,0.0,2.0398,2.0009,1.9299,1.9177,1.8654,1.8008,1.8008,1.8008,1.8008,1.8008,1.8008,1.8008,1.8008,1.8008,1.8008,1.8008,1.8008,1.8008,1.8008,1.8008,1.8008,1.8008,1.8008,1.8008,1.8008,1.8008,1.8008,1.8008,1.7579,1.7217,1.7217,1.6793,1.6446,1.6446,1.5948,1.5587,1.5587,1.4728,1.4011,1.3585,1.2806,1.2305,1.2305,1.2305,1.2305,1.2305,1.2305,1.2305,1.2305,1.2305,1.2305,1.2305,1.2305,1.2305,1.2305,1.2305,1.2305,1.2305,1.2305,1.1911,1.1326,1.1326,1.0713,0.9691,0.9592,0.8979,0.8098,0.7897,0.7151,0.6257,0.0,0.0,0.0,0.0,0.0,0.0,0.0,0.0,0.0,0.0,0.0,0.0,0.0,0.0,0.0,0.0,0.0,0.0,0.0,0.0,0.0,0.0,0.0,2.3078,2.3078,2.3078,2.3078,2.3078,2.3078,0.0,0.0,0.0,0.0,0.0,0.0,0.0,0.0,0.0,0.0,0.0,0.0,0.0,0.0,0.0,0.0,0.0,2.0782,2.0268,1.9748,2.0526,1.9562,1.8008,1.8008,1.8008,1.8008,1.8008,1.8008,1.8008,1.8008,1.8008,1.8008,1.8008,1.8008,1.8008,1.8144,1.8076,1.8008,1.8144,1.8076,1.8008,1.8008,1.8008,1.8008,1.8008,1.8008,1.8008,1.8008,1.8008,1.8008,1.8008,1.7872,1.7794,1.7794,1.7001,1.607,1.5234,1.3665,1.2592,1.2298,1.2305,1.2305,1.2305,1.2305,1.2305,1.2305,1.2305,1.2305,1.2305,1.2305,1.2305,1.2305,1.2305,1.2305,1.2305,1.2305,1.2305,1.2305,1.2305,1.1774,1.0989,1.0846,1.0176,0.9337,0.9101,0.8264,0.7151,0.0,0.0,0.0,0.0,0.0,0.0,0.0,0.0,0.0,0.0,1.9814,2.0974,0.0,0.0,0.0,0.0,0.0,0.0,0.0,0.0,0.0,0.0,0.0,2.3078,2.3078,2.3078,2.3078,2.3078,2.3078,2.3078,0.0,0.0,0.0,0.0,0.0,0.0,0.0,0.0,0.0,0.0,0.0,0.0,0.0,0.0,0.0,0.0,2.169,2.1553,2.1491,2.1616,2.0009,1.8008,1.8008,1.8008,1.8008,1.8008,1.8008,1.8008,1.8008,1.8008,1.8008,1.8008,1.8008,1.8202,1.8911,1.8529,1.8202,1.8921,1.8529,1.8008,1.8008,1.8008,1.8008,1.8008,1.8008,1.8008,1.8008,1.8008,1.8008,1.8008,1.7285,1.6853,1.6853,1.6009,1.5376,1.5234,1.4879,1.4019,1.2372,1.2305,1.2305,1.2305,1.2305,1.2305,1.2305,1.2305,1.2305,1.2305,1.2305,1.2305,1.2305,1.2305,1.2305,1.2305,1.2305,1.2305,1.2305,1.2305,1.2224,1.207,1.2024,1.1403,1.0467,1.0364,0.9093,0.7428,0.0,0.0,0.0,0.0,0.0,0.0,0.0,1.8008,1.8462,1.9814,2.0333,2.1101,2.2322,2.2823,2.3078,0.0,0.0,0.0,0.0,0.0,0.0,0.0,0.0,2.3078,2.3078,2.3078,2.3078,2.3078,0.0,2.3078,2.3078,2.3078,2.3078,2.3078,2.3078,2.3078,2.3078,2.3078,0.0,2.3078,2.3078,2.3078,0.0,0.0,0.0,0.0,0.0,2.2261,2.1877,2.1877,2.0782,1.9365,1.9365,1.9044,1.8654,1.8654,1.8654,1.8596,1.8134,1.8008,1.8008,1.8008,1.8008,1.8202,1.911,1.8977,1.8787,1.9233,1.8977,1.8529,1.8076,1.8008,1.8008,1.8008,1.8008,1.8008,1.8008,1.8008,1.8008,1.8008,1.7579,1.7354,1.7354,1.6932,1.6437,1.5939,1.5939,1.5296,1.3875,1.331,1.2806,1.2298,1.2305,1.2305,1.2305,1.2305,1.2305,1.2305,1.2305,1.2305,1.2305,1.2305,1.2305,1.2305,1.2305,1.2305,1.2305,1.2305,1.2305,1.2305,1.2305,1.1996,1.1601,1.1481,1.0452,0.9,0.0,0.0,0.0,0.0,0.0,0.0,0.0,1.8008,1.8664,2.0398,2.059,2.0974,2.2063,2.2689,2.3078,0.0,0.0,0.0,0.0,0.0,0.0,0.0,0.0,2.3078,2.3078,0.0,0.0,2.3078,2.3078,0.0,0.0,0.0,0.0,0.0,2.3078,2.3078,2.3078,2.3078,2.3078,0.0,0.0,2.3078,2.3078,0.0,0.0,0.0,0.0,2.2689,2.2137,2.2137,2.1616,2.091,2.1101,2.0398,1.9562,1.9562,1.9562,1.9431,1.8721,1.8596,1.8596,1.8596,1.8395,1.8529,1.9628,1.9562,1.9431,1.9759,1.9694,1.9299,1.8462,1.8269,1.8202,1.8008,1.8008,1.8008,1.8008,1.8008,1.8008,1.8008,1.8008,1.8008,1.8008,1.8008,1.7716,1.6922,1.6922,1.6428,1.5234,1.4243,1.3382,1.2592,1.2372,1.2305,1.2305,1.2305,1.2305,1.2305,1.2305,1.2305,1.2305,1.2305,1.2305,1.2305,1.2305,1.2305,1.2305,1.2305,1.2305,1.2305,1.2305,1.2305,1.2305,1.2305,1.1567,1.0562,0.0,0.0,0.0,0.0,0.0,0.0,0.0,1.8008,1.8664,2.0398,2.059,2.1227,2.2823,2.3078,2.3078,0.0,0.0,0.0,0.0,0.0,0.0,0.0,0.0,0.0,0.0,0.0,0.0,2.3078,2.3078,0.0,0.0,0.0,0.0,0.0,0.0,2.3078,2.3078,2.3078,0.0,0.0,0.0,0.0,0.0,0.0,0.0,0.0,0.0,2.3078,2.3005,2.3005,2.2445,2.1877,2.2628,2.1803,2.0462,2.0462,2.0462,2.0462,2.0398,2.0333,2.0333,2.0333,1.9759,1.9628,2.1302,2.0462,1.9759,2.1365,2.1037,2.0204,1.9365,1.9177,1.8911,1.8144,1.8008,1.8008,1.8008,1.8008,1.8008,1.8008,1.8008,1.8008,1.8008,1.8008,1.794,1.7862,1.7872,1.7079,1.5305,1.4243,1.3673,1.36,1.2732,1.2305,1.2305,1.2305,1.2305,1.2305,1.2305,1.2305,1.2305,1.2305,1.2305,1.2305,1.2305,1.2305,1.2305,1.2305,1.2305,1.2305,1.2305,1.2305,1.2305,1.2305,1.1675,1.0718,0.0,0.0,0.0,0.0,0.0,0.0,1.8008,1.8008,1.8664,2.0398,2.059,2.1227,2.2944,2.3078,2.3078,2.3078,0.0,0.0,0.0,0.0,0.0,0.0,0.0,0.0,0.0,0.0,2.3078,2.3078,2.3078,0.0,0.0,0.0,0.0,0.0,0.0,2.3078,2.3078,2.3078,0.0,0.0,0.0,0.0,0.0,0.0,0.0,0.0,0.0,0.0,2.3078,2.3078,2.2884,2.2702,2.3017,2.2628,2.199,2.1553,2.1365,2.1302,2.0719,2.059,2.059,2.059,2.0333,2.0398,2.1616,2.1365,2.1037,2.1753,2.1616,2.1101,2.0268,2.0074,1.9944,1.9628,1.9562,1.9365,1.8854,1.8787,1.8596,1.8076,1.8008,1.8008,1.8008,1.8008,1.8008,1.8008,1.8008,1.7657,1.6941,1.5939,1.4942,1.3745,1.3317,1.2879,1.2305,1.2305,1.2305,1.2305,1.2305,1.2305,1.2305,1.2305,1.2305,1.2305,1.2305,1.2305,1.2305,1.2305,1.2305,1.2305,1.2305,1.2305,1.2305,1.2305,1.2077,1.1607,0.0,0.0,0.0,0.0,0.0,1.8008,1.8008,1.8202,1.8911,2.0398,2.0846,2.1542,2.2944,2.3078,2.3078,2.3078,2.3078,0.0,0.0,0.0,0.0,0.0,0.0,0.0,0.0,0.0,2.3078,2.3078,2.3078,2.3078,0.0,0.0,2.3078,2.3078,0.0,0.0,0.0,0.0,0.0,0.0,0.0,0.0,0.0,0.0,0.0,0.0,0.0,0.0,0.0,0.0,0.0,2.3078,2.3078,2.3078,2.3005,2.2445,2.2249,2.2125,2.1479,2.1353,2.1353,2.1353,2.1164,2.1239,2.2063,2.2063,2.1939,2.2199,2.2249,2.2002,2.1164,2.0974,2.091,2.0655,2.059,2.0398,1.9748,1.9431,1.9044,1.8462,1.8134,1.8008,1.8008,1.8008,1.8008,1.8008,1.8008,1.8008,1.8008,1.7354,1.6289,1.4593,1.4307,1.3665,1.2732,1.2732,1.2592,1.2305,1.2305,1.2305,1.2305,1.2305,1.2305,1.2305,1.2305,1.2305,1.2305,1.2305,1.2305,1.2305,1.2305,1.2305,1.2305,1.2305,1.2305,1.2224,0.0,0.0,0.0,0.0,0.0,0.0,1.8008,1.8721,1.9628,2.0462,2.1365,2.2199,2.3017,2.3078,2.3078,2.3078,2.3078,0.0,0.0,0.0,0.0,0.0,0.0,0.0,0.0,0.0,2.3078,2.3078,2.3078,2.3078,2.3078,2.3078,2.3078,2.3078,0.0,0.0,0.0,0.0,0.0,0.0,0.0,0.0,0.0,0.0,0.0,0.0,0.0,0.0,0.0,0.0,0.0,0.0,0.0,2.3078,2.3078,2.3078,2.3078,2.3078,2.3078,2.3078,2.3078,2.3078,2.2506,2.2125,2.2884,2.2445,2.2137,2.2944,2.3078,2.2823,2.2002,2.1877,2.1616,2.0719,2.059,2.059,2.059,1.9814,1.9299,1.9299,1.8529,1.8008,1.8008,1.8008,1.8008,1.8008,1.8008,1.8008,1.8008,1.8008,1.7569,1.6636,1.5658,1.4665,1.3673,1.3673,1.3244,1.2305,1.2305,1.2305,1.2305,1.2305,1.2305,1.2305,1.2305,1.2305,1.2305,1.2305,1.2305,1.2305,1.2305,1.2305,1.2305,1.2305,1.2305,1.2305,0.0,0.0,0.0,0.0,0.0,0.0,0.0,1.911,1.9617,2.0462,2.0846,2.1542,2.2944,2.3078,2.3078,2.3078,2.3078,0.0,0.0,0.0,0.0,0.0,0.0,0.0,0.0,0.0,2.3078,2.3078,2.3078,2.3078,2.3078,2.3078,2.3078,2.3078,2.3078,2.3078,0.0,0.0,0.0,0.0,0.0,0.0,2.3078,0.0,0.0,0.0,0.0,0.0,0.0,0.0,0.0,0.0,0.0,0.0,0.0,2.3078,2.3078,2.3078,2.3078,2.3078,2.3078,2.3078,2.2884,2.2823,2.3065,2.2884,2.2823,2.3078,2.3078,2.3005,2.2763,2.2689,2.2628,2.2372,2.231,2.2113,2.1553,2.0719,1.9944,1.9365,1.8529,1.8008,1.8008,1.8008,1.8008,1.8008,1.8008,1.8008,1.8008,1.8008,1.7569,1.6636,1.5658,1.4736,1.3745,1.3098,1.2586,1.2305,1.2305,1.2305,1.2305,1.2305,1.2305,1.2305,1.2305,1.2305,1.2305,1.2305,1.2305,1.2305,1.2305,1.2305,1.2305,1.2305,1.2305,1.2305,0.0,0.0,0.0,0.0,0.0,0.0,0.0,1.9562,2.002,2.0526,2.091,2.1616,2.2944,2.3078,2.3078,2.3078,2.3078,0.0,0.0,0.0,0.0,0.0,0.0,0.0,0.0,2.3078,2.3078,2.3078,2.3078,2.3078,2.3078,2.3078,2.3078,2.3078,2.3078,2.3078,0.0,0.0,0.0,0.0,0.0,0.0,2.3078,0.0,0.0,0.0,0.0,0.0,0.0,0.0,0.0,0.0,0.0,0.0,0.0,0.0,2.3078,2.3078,2.3078,2.3078,2.3078,2.3078,2.3078,2.3078,2.3078,2.3078,2.3078,2.3078,2.3078,2.3078,2.3078,2.3078,2.3078,2.3078,2.3078,2.2823,2.2002,2.1175,2.0139,1.8977,1.8337,1.8008,1.8008,1.8008,1.8008,1.8008,1.8008,1.8008,1.8008,1.8008,1.7716,1.7139,1.6576,1.5587,1.4314,1.3665,1.3018,1.2305,1.2305,1.2305,1.2305,1.2305,1.2305,1.2305,1.2305,1.2305,0.0,1.2305,1.2305,1.2305,1.2305,1.2305,1.2305,1.2305,1.2305,1.2305,0.0,0.0,0.0,0.0,0.0,0.0,0.0,2.0139,2.0719,2.0719,2.1428,2.2199,2.3017,2.3078,2.3078,2.3078,0.0,0.0,0.0,0.0,0.0,0.0,0.0,0.0,2.3078,2.3078,2.3078,2.3078,2.3078,2.3078,2.3078,2.3078,2.3078,2.3078,2.3078,2.3078,0.0,0.0,0.0,0.0,0.0,0.0,0.0,0.0,0.0,0.0,0.0,0.0,0.0,0.0,0.0,0.0,0.0,0.0,0.0,0.0,0.0,0.0,0.0,2.3078,2.3078,2.3078,2.3078,2.3078,2.3078,2.3078,0.0,2.3078,2.3078,2.3078,2.3078,2.3078,2.3078,2.3078,2.3078,2.2823,2.2002,2.1112,1.9879,1.8202,1.8008,1.8008,1.8008,1.8008,1.8008,1.8008,1.8008,1.8008,1.8008,1.8008,1.8008,1.8008,1.8008,1.7088,1.5234,1.5163,1.4163,1.2305,1.2305,1.2305,1.2305,1.2305,1.2305,1.2305,1.2305,1.2305,1.2305,1.2305,1.2305,1.2305,1.2305,1.2305,1.2305,1.2305,1.2305,1.2305,0.0,0.0,0.0,0.0,0.0,0.0,0.0,0.0,0.0,0.0,2.1753,2.2199,2.3017,2.3078,2.3078,0.0,0.0,0.0,0.0,0.0,0.0,0.0,0.0,0.0,2.3078,2.3078,2.3078,2.3078,2.3078,2.3078,2.3078,2.3078,2.3078,2.3078,2.3078,2.3078,0.0,0.0,0.0,0.0,0.0,0.0,0.0,0.0,0.0,0.0,2.3078,2.3078,0.0,0.0,0.0,0.0,0.0,0.0,0.0,0.0,2.3078,2.3078,2.3078,0.0,2.3078,2.3078,2.3078,2.3078,0.0,2.3078,2.3078,2.3078,2.3078,2.3078,2.3078,2.3078,2.3078,2.3078,2.3078,2.2823,2.2002,2.059,1.9233,1.8144,1.8008,1.8008,1.8008,1.8008,1.8008,1.8008,1.8008,1.8008,1.8008,1.8008,1.8008,1.8008,1.8008,1.7088,1.5234,1.4458,1.3448,1.2305,1.2305,1.2305,1.2305,1.2305,1.2305,1.2305,1.2305,1.2305,1.2305,1.2305,1.2305,1.2305,1.2305,1.2305,1.2305,1.2305,1.2305,1.2305,0.0,0.0,0.0,0.0,0.0,0.0,0.0,0.0,0.0,0.0,0.0,0.0,0.0,0.0,0.0,0.0,0.0,0.0,0.0,0.0,0.0,0.0,0.0,2.3078,2.3078,2.3078,2.3078,2.3078,2.3078,2.3078,2.3078,2.3078,2.3078,2.3078,2.3078,2.3078,0.0,0.0,0.0,0.0,2.3078,0.0,0.0,0.0,0.0,0.0,2.3078,2.3078,0.0,2.3078,2.3078,2.3078,0.0,0.0,0.0,0.0,2.3078,2.3078,2.3078,2.3078,2.3078,2.3078,2.3078,2.3078,2.3078,2.3078,2.3078,2.3078,2.3078,2.3078,2.3078,2.3078,2.3078,2.3078,2.3078,2.2823,2.2002,2.0719,1.9562,1.8721,1.8596,1.8462,1.8008,1.8008,1.8008,1.8008,1.8008,1.8008,1.8008,1.8008,1.8008,1.8008,1.8008,1.7295,1.586,1.4879,1.3882,1.2952,1.2519,1.2305,1.2305,1.2305,1.2305,1.2305,1.2305,1.2305,1.2305,1.2305,1.2305,1.2305,1.2305,1.2305,1.2305,1.2305,1.2305,1.2305,0.0,0.0,0.0,0.0,0.0,0.0,0.0,0.0,0.0,0.0,0.0,0.0,0.0,0.0,0.0,0.0,0.0,0.0,0.0,0.0,0.0,0.0,0.0,2.3078,2.3078,2.3078,2.3078,2.3078,2.3078,2.3078,2.3078,2.3078,2.3078,2.3078,2.3078,2.3078,0.0,2.3078,2.3078,2.3078,2.3078,0.0,0.0,0.0,0.0,0.0,0.0,0.0,0.0,2.3078,2.3075,2.2952,2.2952,0.0,0.0,0.0,0.0,0.0,2.2952,2.3015,2.3078,2.3078,2.3078,2.3078,2.3078,2.3078,2.3078,2.3078,2.3078,2.3078,2.3078,2.3078,2.3078,2.3078,2.3017,2.2702,2.2013,2.1175,2.0268,1.9431,1.9299,1.8977,1.8076,1.8008,1.8008,1.8008,1.8008,1.8008,1.8008,1.8008,1.8008,1.8008,1.8008,1.7647,1.6853,1.586,1.4879,1.3882,1.2952,1.2519,1.2519,1.2372,1.2305,1.2305,1.2305,1.2305,1.2305,1.2305,1.2305,1.2305,1.2305,1.2305,1.2305,1.2305,1.2305,1.2305,0.0,0.0,0.0,0.0,0.0,0.0,0.0,0.0,0.0,0.0,0.0,0.0,0.0,0.0,0.0,0.0,0.0,0.0,0.0,0.0,0.0,2.3078,2.3078,2.3078,2.3078,2.3078,2.3078,2.3078,2.3078,2.3078,2.3078,2.3078,2.3078,2.3078,2.3078,2.3078,2.3078,2.3078,2.3078,2.3078,2.3078,0.0,0.0,0.0,0.0,0.0,0.0,0.0,0.0,2.3078,2.2824,2.2435,2.2435,0.0,0.0,0.0,0.0,0.0,2.2435,2.2774,2.3078,2.3078,2.3078,2.3078,2.3078,2.3078,2.3078,2.3078,2.3078,2.3078,2.3078,2.3078,2.3078,2.3078,2.2506,2.2063,2.1939,2.1175,2.0268,1.9431,1.9299,1.8977,1.8076,1.8008,1.8008,1.8008,1.8008,1.8008,1.8008,1.8008,1.8008,1.8008,1.8008,1.794,1.7794,1.6853,1.593,1.495,1.3954,1.3455,1.3455,1.2659,1.2305,1.2305,1.2305,1.2305,1.2305,1.2305,1.2305,1.2305,1.2305,1.2305,1.2305,1.2305,1.2305,1.2305,0.0,0.0,0.0,0.0,0.0,0.0,0.0,0.0,0.0,0.0,0.0,0.0,0.0,0.0,0.0,0.0,0.0,0.0,0.0,0.0,0.0,2.3078,2.3078,2.3078,2.3078,2.3078,2.3078,2.3078,2.3078,2.3078,2.3078,2.3078,2.3078,2.3078,2.3078,2.3078,2.3078,2.3078,2.3078,2.3078,0.0,0.0,0.0,0.0,0.0,0.0,0.0,0.0,0.0,0.0,2.2322,2.187,2.187,0.0,0.0,0.0,0.0,0.0,2.2309,2.2711,2.3078,2.3078,2.3078,2.3078,2.3078,2.3078,2.3078,2.3078,2.3078,2.3078,2.3078,2.3078,2.3078,2.3078,2.2823,2.2567,2.2567,2.2187,2.1479,2.0139,2.0009,1.9497,1.8144,1.8008,1.8008,1.8008,1.8008,1.8008,1.8008,1.8008,1.8008,1.8008,1.8008,1.8008,1.8008,1.7569,1.6862,1.593,1.495,1.4522,1.4458,1.3528,1.3025,1.3025,1.2519,1.2305,1.2305,1.2305,1.2305,1.2305,1.2305,1.2305,1.2305,1.2305,1.2305,1.2305,0.0,0.0,0.0,0.0,0.0,0.0,0.0,0.0,0.0,0.0,0.0,0.0,0.0,0.0,0.0,0.0,0.0,0.0,0.0,0.0,2.3078,2.3078,2.3078,2.3078,2.3078,2.3078,2.3078,2.3078,2.3078,2.3078,2.3078,2.3078,2.3078,2.3078,2.3078,2.3078,2.3078,2.3078,2.3078,2.3078,0.0,0.0,0.0,0.0,0.0,0.0,0.0,0.0,0.0,0.0,0.0,0.0,0.0,0.0,0.0,2.1091,2.1581,2.2121,2.2121,2.2623,2.3078,2.3078,2.3078,2.3078,2.3078,2.3078,2.3078,2.3078,2.3078,2.3078,2.3078,2.3078,2.3078,2.3078,2.3078,2.3078,2.3078,2.3078,2.2494,2.0782,2.059,1.9944,1.8134,1.8008,1.8008,1.8008,1.8008,1.8008,1.8008,1.8008,1.8008,1.8008,1.8008,1.8008,1.8008,1.8008,1.7647,1.6922,1.6009,1.5438,1.5163,1.4171,1.36,1.331,1.2592,1.2305,1.2305,1.2305,1.2305,1.2305,1.2305,1.2305,1.2305,1.2305,1.2305,1.2305,0.0,0.0,0.0,0.0,0.0,0.0,0.0,0.0,0.0,0.0,0.0,0.0,0.0,0.0,0.0,0.0,0.0,0.0,0.0,0.0,2.3078,2.3078,2.3078,2.3078,2.3078,2.3078,2.3078,2.3078,2.3078,2.3078,2.3078,2.3078,2.3078,2.3078,2.3078,2.3078,2.3078,2.3078,2.3078,2.3078,2.3078,0.0,0.0,0.0,0.0,0.0,0.0,0.0,0.0,0.0,0.0,0.0,0.0,0.0,1.9924,1.9924,2.069,2.1543,2.1543,2.2322,2.3078,2.3078,2.3078,2.3078,2.3078,2.3078,2.3078,2.3078,2.3078,2.3078,2.3078,2.3078,2.3078,2.3078,2.3078,2.3078,2.3078,2.3078,2.2494,2.0782,2.059,1.9944,1.8134,1.8008,1.8008,1.8008,1.8008,1.8008,1.8008,1.8008,1.8008,1.8008,1.8008,1.8008,1.8008,1.8008,1.794,1.7872,1.6932,1.607,1.5163,1.4171,1.3237,1.2372,1.2305,1.2305,1.2305,1.2305,1.2305,1.2305,1.2305,1.2305,1.2305,1.2305,1.2305,1.2305,0.0,0.0,0.0,0.0,0.0,0.0,0.0,0.0,0.0,0.0,0.0,0.0,0.0,0.0,0.0,0.0,0.0,0.0,0.0,2.3078,2.3078,2.3078,2.3078,2.3078,2.3078,2.3078,2.3078,2.3078,2.3078,2.3078,2.3078,2.3078,2.3078,2.3078,2.3078,2.3078,2.3078,2.3078,2.3078,2.3078,2.3078,2.3078,0.0,0.0,0.0,0.0,0.0,0.0,0.0,0.0,2.1054,2.0125,2.0125,1.9974,1.9798,1.9798,2.0602,2.1493,2.1493,2.2297,2.3078,2.3078,2.3078,2.3078,2.3078,2.3078,2.3078,2.3078,2.3078,2.3078,2.3078,2.3078,2.3078,2.3078,2.3078,2.3078,2.3078,2.2689,2.1939,2.0719,2.0139,1.9299,1.8144,1.8008,1.8008,1.8008,1.8008,1.8008,1.8008,1.8008,1.8008,1.8008,1.8008,1.8008,1.8008,1.8008,1.8008,1.8008,1.7647,1.7285,1.6941,1.593,1.5013,1.4091,1.3455,1.2806,1.2305,1.2305,1.2305,1.2305,1.2305,1.2305,1.2305,1.2305,1.2305,1.2305,0.0,0.0,0.0,0.0,0.0,0.0,0.0,0.0,0.0,0.0,0.0,0.0,0.0,0.0,0.0,0.0,0.0,0.0,2.3065,2.3078,2.3078,2.3078,2.3078,2.3078,2.3078,2.3078,2.3078,2.3078,2.3078,2.3078,2.3078,2.3078,2.3078,2.3078,2.3078,2.3078,2.3078,2.3078,2.3078,2.3078,2.3078,2.3078,0.0,0.0,0.0,0.0,0.0,0.0,0.0,0.0,2.074,1.9798,1.9798,1.9798,1.9798,1.9798,2.0602,2.1493,2.1493,2.2297,2.3078,2.3078,2.3078,2.3078,2.3078,2.3078,2.3078,2.3078,2.3078,2.3078,2.3078,2.3078,2.3078,2.3078,2.3078,2.3017,2.2763,2.2261,2.1491,2.0333,1.9694,1.8977,1.8076,1.8008,1.8008,1.8008,1.8008,1.8008,1.8008,1.8008,1.8008,1.8008,1.8008,1.8008,1.8008,1.8008,1.8008,1.8008,1.8008,1.7862,1.7579,1.6922,1.6079,1.5163,1.4171,1.3317,1.2732,1.2445,1.2305,1.2305,1.2305,1.2305,1.2305,1.2305,1.2305,1.2305,0.0,0.0,0.0,0.0,0.0,0.0,0.0,0.0,0.0,0.0,0.0,0.0,0.0,0.0,0.0,0.0,0.0,0.0,2.3078,2.3078,2.3078,2.3078,2.3078,2.3078,2.3078,2.3078,2.3078,2.3078,2.3078,2.3078,2.3078,2.3078,2.3078,2.3078,2.3078,2.3078,2.3078,2.3078,2.3078,2.3078,2.3078,2.3078,2.3078,0.0,0.0,0.0,0.0,0.0,0.0,0.0,2.074,1.9798,1.9798,1.9798,1.9798,1.9811,2.0602,2.1493,2.1493,2.2297,2.3078,2.3078,2.3078,2.3078,2.3078,2.3078,2.3078,2.3078,2.3078,2.3078,2.3078,2.3078,2.3078,2.3078,2.3078,2.2823,2.2002,2.1877,2.1227,1.9497,1.9299,1.8977,1.8076,1.8008,1.8008,1.8008,1.8008,1.8008,1.8008,1.8008,1.8008,1.8008,1.8008,1.8008,1.8008,1.8008,1.8008,1.8008,1.8008,1.7501,1.6627,1.6627,1.607,1.5163,1.4171,1.3745,1.36,1.2659,1.2305,1.2305,1.2305,1.2305,1.2305,1.2305,1.2305,1.2305,0.0,0.0,0.0,0.0,0.0,0.0,0.0,0.0,0.0,0.0,0.0,0.0,0.0,0.0,0.0,0.0,0.0,0.0,2.3078,2.3078,2.3078,2.3078,2.3078,2.3078,2.3078,2.3078,2.3078,2.3078,2.3078,2.3078,2.3078,2.3078,2.3078,2.3078,2.3078,2.3078,2.3078,2.3078,2.3078,2.3078,2.3078,2.3078,2.3078,0.0,0.0,0.0,0.0,0.0,0.0,0.0,0.0,0.0,1.9798,1.9798,1.9874,2.0288,2.0928,2.1568,2.197,2.2585,2.3078,2.3078,2.3078,2.3078,2.3078,2.3078,2.3078,2.3078,2.3078,2.3078,2.3078,2.3078,2.3078,2.3078,2.3078,2.2823,2.2002,2.1365,2.059,1.9431,1.8787,1.8269,1.8008,1.8008,1.8008,1.8008,1.8008,1.8008,1.8008,1.8008,1.8008,1.8008,1.8008,1.8008,1.8008,1.8008,1.8008,1.8008,1.8008,1.7862,1.7579,1.7579,1.707,1.6149,1.586,1.4942,1.36,1.2659,1.2305,1.2305,1.2305,1.2305,1.2305,1.2305,1.2305,1.2305,0.0,0.0,0.0,0.0,0.0,0.0,0.0,0.0,0.0,0.0,0.0,0.0,0.0,0.0,0.0,0.0,0.0,0.0,0.0,2.3078,2.3078,2.3078,2.3078,2.3078,2.3078,2.3078,2.3078,2.3078,2.3078,2.3078,2.3078,2.3078,2.3078,2.3078,2.3078,2.3078,2.3078,2.3078,2.3078,2.3078,2.3078,2.3078,2.3078,0.0,0.0,0.0,0.0,0.0,0.0,0.0,0.0,0.0,2.0476,2.0476,2.0539,2.0891,2.138,2.1895,2.2221,2.2711,2.3078,2.3078,2.3078,2.3078,2.3078,2.3078,2.3078,2.3078,2.3078,2.3078,2.3078,2.3078,2.3078,2.3078,2.3078,2.2823,2.2002,2.1175,2.0268,1.9431,1.8529,1.8008,1.8008,1.8008,1.8008,1.8008,1.8008,1.8008,1.8008,1.8008,1.8008,1.8008,1.8008,1.8008,1.8008,1.8008,1.8008,1.8008,1.8008,1.8008,1.8008,1.8008,1.7716,1.7139,1.6358,1.5155,1.36,1.2659,1.2305,1.2305,1.2305,1.2305,1.2305,1.2305,1.2305,1.2305,0.0,0.0,0.0,0.0,0.0,0.0,0.0,0.0,0.0,0.0,0.0,0.0,0.0,0.0,0.0,0.0,0.0,0.0,0.0,0.0,2.3078,2.3078,2.3078,2.3078,2.3078,2.3078,2.3078,2.3078,2.3078,2.3078,2.3078,2.3078,2.3078,2.3078,2.3078,2.3078,2.3078,2.3078,2.3078,2.3078,2.3078,2.3078,2.3078,2.3078,0.0,0.0,0.0,0.0,0.0,0.0,0.0,0.0,2.1493,2.1493,2.1493,2.1543,2.192,2.2322,2.2372,2.2761,2.3078,2.3078,2.3078,2.3078,2.3078,2.3078,2.3078,2.3078,2.3078,2.3078,2.3078,2.3078,2.3078,2.3078,2.3078,2.2823,2.2002,2.1239,2.0398,1.9431,1.8586,1.8076,1.8008,1.8008,1.8008,1.8008,1.8008,1.8008,1.8008,1.8008,1.8008,1.8008,1.8008,1.8008,1.8008,1.8008,1.8008,1.8008,1.8008,1.8008,1.8008,1.8008,1.8008,1.7872,1.6088,1.4807,1.3882,1.2879,1.2445,1.2445,1.2445,1.2445,1.2445,1.2445,1.2445,1.2445,0.0,0.0,0.0,0.0,0.0,0.0,0.0,0.0,0.0,0.0,0.0,0.0,0.0,0.0,0.0,0.0,0.0,0.0,0.0,0.0,2.3078,2.3078,2.3078,2.3078,2.3078,2.3078,2.3078,2.3078,2.3078,2.3078,2.3078,2.3078,2.3078,2.3078,2.3078,2.3078,2.3078,2.3078,2.3078,2.3078,2.3078,2.3078,2.3078,2.3078,2.3078,0.0,0.0,0.0,0.0,0.0,0.0,0.0,2.1493,2.1493,2.1568,2.2008,2.2221,2.2397,2.2836,2.2977,2.3078,2.3078,2.3078,2.3078,2.3078,2.3078,2.3078,2.3078,2.3078,2.3078,2.3078,2.3078,2.3078,2.3078,2.3078,2.2823,2.2002,2.1753,2.1037,1.9497,1.91,1.8721,1.8076,1.8008,1.8008,1.8008,1.8008,1.8008,1.8008,1.8008,1.8008,1.8008,1.8008,1.8008,1.8008,1.8008,1.8008,1.8008,1.8008,1.8008,1.8008,1.8008,1.8008,1.794,1.6784,1.621,1.5852,1.4091,1.3382,1.3382,1.3382,1.3382,1.3382,1.3382,1.3382,1.331,0.0,0.0,0.0,0.0,0.0,0.0,0.0,0.0,0.0,0.0,0.0,0.0,0.0,0.0,0.0,0.0,0.0,0.0,0.0,0.0,2.2702,2.3065,2.3078,2.3078,2.3078,2.3078,2.3078,2.3078,2.3078,2.3078,2.3078,2.3078,2.3078,2.3078,2.3078,2.3078,2.3078,2.3078,2.3078,2.3078,2.3078,2.3078,2.3078,2.3078,2.3078,2.3078,2.3078,0.0,0.0,0.0,0.0,0.0,0.0,0.0,2.2334,2.2623,2.2711,2.2774,2.3002,2.3078,2.3078,2.3078,2.3078,2.3078,2.3078,2.3078,2.3078,2.3078,2.3078,2.3078,2.3078,2.3078,2.3078,2.3078,2.3078,2.2944,2.2506,2.2125,2.1428,2.0074,1.9562,1.8977,1.8076,1.8008,1.8008,1.8008,1.8008,1.8008,1.8008,1.8008,1.8008,1.8008,1.8008,1.8008,1.8008,1.8008,1.8008,1.8008,1.8008,1.8008,1.8008,1.8008,1.8008,1.793,1.6788,1.6278,1.6124,1.4502,1.3917,1.4065,1.4065,1.4238,1.445,1.445,1.4099,1.36,0.0,0.0,0.0,0.0,0.0,0.0,0.0,0.0,0.0,0.0,0.0,0.0,0.0,0.0,0.0,0.0,0.0,0.0,0.0,0.0,0.0,2.2884,2.3017,2.3078,2.3078,2.3078,2.3078,2.3078,2.3078,2.3078,2.3078,2.3078,2.3078,2.3078,2.3078,2.3078,2.3078,2.3078,2.3078,2.3078,2.3078,2.3078,2.3078,2.3078,2.3078,2.3078,2.3078,2.3078,2.3078,2.3078,0.0,0.0,0.0,0.0,2.3078,2.3078,2.3078,2.3078,2.3078,2.3078,2.3078,2.3078,2.3078,2.3078,2.3078,2.3078,2.3078,2.3078,2.3078,2.3078,2.3078,2.3078,2.3078,2.3078,2.3078,2.3078,2.3078,2.2384,2.1553,2.0719,1.9814,1.8977,1.8076,1.8008,1.8008,1.8008,1.8008,1.8008,1.8008,1.8008,1.8008,1.8008,1.8008,1.8008,1.8008,1.8008,1.8008,1.8008,1.8008,1.7969,1.79,1.79,1.79,1.7813,1.6673,1.6136,1.5912,1.4669,1.4322,1.4655,1.4655,1.4949,1.5345,1.5345,1.4822,1.4163,0.0,0.0,0.0,0.0,0.0,0.0,0.0,0.0,0.0,0.0,0.0,0.0,0.0,0.0,0.0,0.0,0.0,0.0,2.0719,0.0,0.0,2.2063,2.2763,2.3078,2.3078,2.3078,2.3078,2.3078,2.3078,2.3078,2.3078,2.3078,2.3078,2.3078,2.3078,2.3078,2.3078,2.3078,2.3078,2.3078,2.3078,2.3078,2.3078,2.3078,2.3078,2.3078,2.3078,2.3078,2.3078,2.3078,2.3078,0.0,0.0,0.0,2.3078,2.3078,2.3078,2.3078,2.3078,2.3078,2.3078,2.3078,2.3078,2.3078,2.3078,2.3078,2.3078,2.3078,2.3078,2.3078,2.3078,2.3078,2.3078,2.3078,2.3078,2.3078,2.3078,2.2384,2.1553,2.0719,1.9814,1.8977,1.8076,1.8008,1.8008,1.8008,1.8008,1.8008,1.8008,1.8008,1.8008,1.8008,1.8008,1.8008,1.8008,1.8008,1.8008,1.8008,1.8008,1.7822,1.7471,1.7471,1.7471,1.7461,1.7261,1.6963,1.6542,1.5542,1.5154,1.5198,1.5198,1.5437,1.5842,1.5842,1.5987,1.6,0.0,0.0,0.0,0.0,0.0,0.0,0.0,0.0,0.0,0.0,0.0,0.0,0.0,0.0,0.0,1.9233,1.8854,1.9177,2.0526,2.0974,2.1616,2.2506,2.2884,2.3078,2.3078,2.3078,2.3078,2.3078,2.3078,2.3078,2.3078,2.3078,2.3078,2.3078,2.3078,2.3078,2.3078,2.3078,2.3078,2.3078,2.3078,2.3078,2.3078,2.3078,2.3078,2.3078,2.3078,2.3078,2.3078,2.3078,2.3078,2.3078,2.3078,0.0,0.0,0.0,2.3078,2.3078,2.3078,2.3078,2.3078,2.3078,2.3078,2.3078,2.3078,2.3078,2.3078,2.3078,2.3078,2.3078,2.3078,2.3078,2.3078,2.3078,2.3078,2.3078,2.3078,2.2823,2.2249,2.1428,2.0974,2.0398,1.9562,1.9044,1.8721,1.8721,1.8269,1.8008,1.8008,1.8008,1.8008,1.8008,1.8008,1.79,1.7666,1.7656,1.7539,1.7295,1.7295,1.7197,1.7021,1.7021,1.7021,1.7002,1.6758,1.6533,1.6338,1.5638,1.5491,1.576,1.576,1.6024,1.6327,1.6327,1.6307,1.6088,0.0,0.0,0.0,0.0,0.0,0.0,0.0,0.0,0.0,0.0,0.0,0.0,0.0,0.0,0.0,0.0,1.8405,1.8529,1.9814,2.0333,2.1164,2.2433,2.2884,2.3078,2.3078,2.3078,2.3078,2.3078,2.3078,2.3078,2.3078,2.3078,2.3078,2.3078,2.3078,2.3078,2.3078,2.3078,2.3078,2.3078,2.3078,2.3078,2.3078,2.3078,2.3078,2.3078,2.3078,2.3078,2.3078,2.3078,2.3078,2.3078,2.3078,2.3078,0.0,0.0,0.0,2.3078,2.3078,2.3078,2.3078,2.3078,2.3078,2.3078,2.3078,2.3078,2.3078,2.3078,2.3078,2.3078,2.3078,2.3078,2.3078,2.3078,2.3078,2.3078,2.3078,2.2944,2.2567,2.1939,2.169,2.1302,2.0655,1.9824,1.9299,1.9299,1.8462,1.8008,1.8008,1.8008,1.8008,1.8008,1.8008,1.7812,1.7393,1.7275,1.7051,1.6665,1.6665,1.667,1.6562,1.6562,1.6504,1.6387,1.6162,1.6056,1.5869,1.5547,1.5605,1.5898,1.5898,1.6172,1.6562,1.6562,1.636,1.6092,0.0,0.0,0.0,0.0,0.0,0.0,0.0,0.0,0.0,0.0,0.0,0.0,1.8008,1.8008,1.8008,1.8076,1.8008,1.8008,1.8144,1.9694,2.0655,2.0719,2.2249,0.0,2.3078,2.3078,2.3078,2.3078,2.3078,2.3078,2.3078,2.3078,2.3078,2.3078,2.3078,2.3078,2.3078,2.3078,2.3078,2.3078,2.3078,2.3078,2.3078,2.3078,2.3078,2.3078,2.3078,2.3078,2.3078,2.3078,2.3078,2.3078,2.3078,2.3078,2.3078,0.0,0.0,0.0,2.3078,2.3078,2.3078,2.3078,2.3078,2.3078,2.3078,2.3078,2.3078,2.3078,2.3078,2.3078,2.3078,2.3078,2.3078,2.3078,2.3078,2.3078,2.3078,2.2445,2.1939,2.1877,2.1164,2.0655,2.059,1.9824,1.9299,1.9299,1.8462,1.8008,1.8008,1.8008,1.8008,1.8008,1.8008,1.7812,1.7393,1.6973,1.6694,1.6665,1.6665,1.6514,1.6154,1.6154,1.5869,1.5508,1.5889,1.583,1.5439,1.542,1.542,1.5449,1.5449,1.5713,1.6154,1.6154,1.6377,1.6558,0.0,0.0,0.0,0.0,0.0,0.0,0.0,0.0,0.0,0.0,0.0,0.0,0.0,1.8008,1.8008,1.8008,1.8008,1.8462,1.9628,2.0268,2.1101,2.2187,2.275,2.3078,2.3078,2.3078,2.3078,2.3078,2.3078,2.3078,2.3078,2.3078,2.3078,2.3078,2.3078,2.3078,2.3078,2.3078,2.3078,2.3078,2.3078,2.3078,2.3078,2.3078,2.3078,2.3078,2.3078,2.3078,2.3078,2.3078,2.3078,2.3078,2.3078,2.3078,2.3078,2.3078,2.3078,2.3078,2.3078,2.3078,2.3078,2.3078,2.3078,2.3078,2.3078,2.3078,2.3078,2.3078,2.3078,2.3078,2.3078,2.3078,2.3078,2.3078,2.3078,2.3078,2.3078,2.2823,2.2689,2.2689,2.2372,2.2175,2.2175,2.1479,2.0974,2.0974,1.9617,1.8844,1.8844,1.8269,1.8008,1.8008,1.8008,1.7676,1.6973,1.625,1.5889,1.5889,1.5889,1.5801,1.5644,1.5644,1.5557,1.542,1.5576,1.5557,1.541,1.541,1.541,1.541,1.541,1.5508,1.5644,1.5644,1.5928,1.6299,0.0,0.0,0.0,0.0,0.0,0.0,0.0,0.0,0.0,1.8008,0.0,0.0,0.0,0.0,1.8008,1.8008,1.8269,1.8921,2.0074,2.0462,2.1101,2.2175,2.2567,2.2702,2.2702,2.2944,2.3078,2.3078,2.3078,2.3078,2.3078,2.3078,2.3078,2.3078,2.3078,2.3078,2.3078,2.3078,2.3078,2.3078,2.3078,2.3078,2.3078,2.3078,2.3078,2.3078,2.3078,2.3078,2.3078,2.3078,2.3078,2.3078,2.3078,2.3078,2.3078,2.3078,2.3078,2.3078,2.3078,2.3078,2.3078,2.3078,2.3305,2.3424,2.3125,2.3305,2.3424,2.3138,2.3078,2.3078,2.3078,2.3078,2.3078,2.3078,2.3078,2.3078,2.3078,2.3078,2.3078,2.3078,2.3078,2.3078,2.3078,2.2384,2.1877,2.1877,2.059,1.9759,1.9759,1.8911,1.8267,1.7803,1.7656,1.7236,1.6514,1.5781,1.541,1.541,1.541,1.541,1.541,1.541,1.541,1.541,1.541,1.541,1.541,1.541,1.541,1.541,1.541,1.541,1.541,1.541,1.5596,1.585,0.0,0.0,0.0,0.0,0.0,0.0,0.0,0.0,1.8977,1.8144,0.0,0.0,0.0,0.0,0.0,1.8008,1.8787,1.9299,1.9299,2.0074,2.059,2.0655,2.1428,2.1877,2.1939,2.2702,2.3078,2.3078,2.3078,2.3078,2.3078,2.3078,2.3078,2.3078,2.3078,2.3078,2.3078,2.3078,2.3078,2.3078,2.3078,2.3078,2.3078,2.3078,2.3078,2.3078,2.3078,2.3078,2.3078,2.3078,2.3078,2.3078,2.3078,2.3078,2.3078,2.3078,2.3078,2.3078,0.0,0.0,0.0,2.3078,2.3708,2.406,2.3245,2.3708,2.406,2.3245,2.3078,2.3078,2.3078,2.3078,2.3078,2.3078,2.3078,2.3078,2.3078,2.3078,2.3078,2.3078,2.3078,2.3078,2.3078,2.2384,2.1939,2.1939,2.1101,2.0655,2.0655,1.9824,1.8771,1.7458,1.6963,1.6514,1.6125,1.5625,1.541,1.541,1.541,1.541,1.541,1.541,1.541,1.541,1.541,1.541,1.541,1.541,1.541,1.541,1.541,1.541,1.541,1.541,1.541,1.541,0.0,0.0,0.0,0.0,0.0,0.0,2.0139,1.9694,1.9233,0.0,0.0,0.0,1.8008,1.8008,1.8008,1.8008,1.8202,1.8664,1.9243,1.9562,2.0204,2.1491,2.1753,2.2199,2.2763,2.3017,2.3078,2.3078,2.3078,2.3078,2.3078,2.3078,2.3078,2.3078,2.3078,2.3078,2.3078,2.3078,2.3078,2.3078,2.3078,2.3078,2.3078,2.3078,2.3078,2.3078,2.3078,2.3078,2.3078,2.3078,2.3078,2.3078,2.3078,2.3078,2.3078,2.3078,2.3078,2.3078,2.3078,0.0,0.0,0.0,0.0,0.0,2.3125,2.3245,2.3365,2.3138,2.3078,2.3078,2.3078,2.3078,2.3078,2.3078,2.3078,2.3078,2.3078,2.3078,2.3078,2.3078,2.3078,2.3078,2.3078,2.2884,2.2763,2.2763,2.2002,2.1553,2.1553,2.0719,1.9598,1.8317,1.7864,1.7165,1.6125,1.5625,1.541,1.541,1.541,1.541,1.541,1.541,1.541,1.541,1.541,1.541,1.541,1.541,1.541,1.541,1.541,1.541,1.541,1.541,1.541,1.541,0.0,0.0,0.0,0.0,0.0,2.0139,2.0974,2.0719,2.0268,0.0,0.0,0.0,1.8596,1.8202,1.8008,1.8008,1.8337,1.8787,1.9299,1.9617,2.0268,2.1302,2.169,2.2137,2.2567,2.2944,2.3078,2.3078,2.3078,2.3078,2.3078,2.3078,2.3078,2.3078,2.3078,2.3078,2.3078,2.3078,2.3078,2.3078,2.3078,2.3078,2.3078,2.3078,2.3078,2.3078,2.3078,2.3078,2.3078,2.3078,2.3078,2.3078,2.3078,2.3078,2.3078,2.3078,2.3078,2.3078,2.3078,2.3078,2.3078,2.3078,0.0,0.0,2.3198,2.3365,2.3484,2.3198,2.3078,2.3078,2.3078,2.3078,2.3078,2.3078,2.3078,2.3078,2.3078,2.3078,2.3078,2.3078,2.3078,2.3078,2.3078,2.3078,2.3078,2.3078,2.2702,2.2249,2.1939,2.1428,2.0455,1.8884,1.8603,1.7899,1.6763,1.6436,1.6301,1.6301,1.6026,1.5864,1.5864,1.5864,1.5864,1.5864,1.5864,1.5864,1.5864,1.5526,1.541,1.541,1.541,1.541,1.541,1.541,1.541,1.541,0.0,0.0,1.8529,2.0139,2.0526,2.091,2.1753,2.1877,2.1616,0.0,2.0655,2.0268,1.9431,1.8596,1.8144,1.8008,1.8721,1.9177,1.9299,2.0009,2.0526,2.0719,2.1491,2.1939,2.2002,2.275,2.3078,2.3078,2.3078,2.3078,2.3078,2.3078,2.3078,2.3078,2.3078,2.3078,2.3078,2.3078,2.3078,2.3078,2.3078,2.3078,2.3078,2.3078,2.3078,2.3078,2.3078,2.3078,2.3078,2.3078,2.3078,2.3078,2.3078,2.3078,2.3078,2.3078,2.3078,2.3078,2.3078,2.3078,2.3078,2.3078,2.3662,0.0,2.3245,2.3649,2.3943,2.3245,2.3078,2.3078,2.3078,2.3078,2.3078,2.3078,2.3078,2.3078,2.3078,2.3078,2.3078,2.3078,2.3078,2.3078,2.3078,2.3078,2.3078,2.3078,2.3078,2.2823,2.2063,2.1954,2.1136,1.9313,1.9174,1.8632,1.7578,1.7578,1.7578,1.7578,1.6922,1.6595,1.6595,1.6595,1.6595,1.6595,1.6539,1.6492,1.6436,1.5806,1.5468,1.541,1.541,1.541,1.541,1.541,1.541,1.541,1.8008,1.8008,1.8337,1.9365,2.0139,2.091,2.1753,2.1877,2.1815,2.169,2.1049,2.0268,1.9431,1.9177,1.8787,1.8076,1.8134,1.8529,1.9233,1.9431,2.0204,2.1565,2.1815,2.2187,2.2823,2.3005,2.3078,2.3078,2.3078,2.3078,2.3078,2.3078,2.3078,2.3078,2.3078,2.3078,2.3078,2.3078,2.3078,2.3078,2.3078,2.3078,2.3078,2.3078,2.3078,2.3078,2.3078,2.3078,2.3078,2.3078,2.3078,2.3078,2.3078,2.3078,2.3078,2.3078,2.3078,2.3078,2.3078,2.3078,2.3078,2.3078,2.3185,0.0,2.3138,2.3185,2.3305,2.3138,2.3078,2.3078,2.3078,2.3078,2.3078,2.3078,2.3078,2.3078,2.3078,2.3078,2.3078,2.3078,2.3078,2.3078,2.3078,2.3078,2.3078,2.3078,2.3078,2.3005,2.2884,2.2461,2.1565,2.0204,1.9722,1.8869,1.7633,1.7578,1.7578,1.7578,1.7468,1.7413,1.7413,1.7413,1.7413,1.7357,1.6765,1.6492,1.6492,1.6322,1.5921,1.541,1.541,1.541,1.541,1.541,1.541,1.541,1.8596,1.8269,1.8395,1.9694,1.9944,2.0398,2.169,2.1877,2.2063,2.2445,2.1741,2.1112,2.0655,2.0204,1.9748,1.9299,1.9299,1.9497,1.9944,2.0333,2.0974,2.1877,2.2249,2.2702,2.3078,2.3078,2.3078,2.3078,2.3078,2.3078,2.3078,2.3078,2.3078,2.3078,2.3078,2.3078,2.3078,2.3078,2.3078,2.3078,2.3078,2.3078,2.3078,2.3078,2.3078,2.3078,2.3078,2.3078,2.3078,2.3078,2.3078,2.3078,2.3078,2.3078,2.3078,2.3078,2.3078,2.3078,2.3078,2.3078,2.3078,2.3078,2.3078,0.0,0.0,2.3078,2.3078,2.3078,2.3078,2.3078,2.3078,2.3078,2.3078,2.3078,2.3078,2.3078,2.3078,2.3078,2.3078,2.3078,2.3078,2.3078,2.3078,2.3078,2.3078,2.3078,2.3078,2.2952,2.2736,2.246,2.1749,2.0582,2.03,1.9655,1.8727,1.8715,1.8715,1.8715,1.8328,1.8167,1.8167,1.8167,1.8167,1.8124,1.7743,1.7578,1.7578,1.7191,1.681,1.6472,1.6083,1.569,1.541,1.541,1.541,1.541,1.8911,1.8586,1.8721,2.0074,2.0074,2.0204,2.1491,2.1939,2.2384,2.3005,2.2506,2.2063,2.1939,2.1101,2.0526,2.0333,2.0333,2.0398,2.059,2.1428,2.1939,2.2125,2.2763,2.3078,2.3078,2.3078,2.3078,2.3078,2.3078,2.3078,2.3078,2.3078,2.3078,2.3078,2.3078,2.3078,2.3078,2.3078,2.3078,2.3078,2.3078,2.3078,2.3078,2.3078,2.3078,2.3078,2.3078,2.3078,2.3078,2.3078,2.3078,2.3078,2.3078,2.3078,2.3078,2.3078,2.3078,2.3078,2.3078,2.3078,2.3078,2.3078,2.3078,2.3078,0.0,0.0,0.0,2.3078,2.3078,2.3078,2.3078,2.3078,2.304,2.2927,2.3002,2.3027,2.2927,2.3002,2.3078,2.3078,2.3078,2.3078,2.3078,2.3078,2.3078,2.3078,2.2977,2.2786,2.2334,2.2108,2.1581,2.0743,2.0605,2.0275,1.9811,1.9798,1.9798,1.9798,1.9202,1.8927,1.8927,1.8927,1.8927,1.8874,1.8768,1.8715,1.8661,1.807,1.7743,1.7523,1.6922,1.6255,1.5584,1.5584,1.5526,1.541,1.8144,1.8721,1.9233,1.9431,2.0655,2.1428,2.0846,2.199,2.3017,2.3078,2.3005,2.2702,2.2002,2.1101,2.0268,1.9497,1.9431,1.9759,2.0526,2.1428,2.2199,2.2944,2.3078,2.3078,2.3078,2.3078,2.3078,2.3078,2.3078,2.3078,2.3078,2.3078,2.3078,2.3078,2.3078,2.3078,2.3078,2.3078,2.3078,2.3078,2.3078,2.3078,2.3078,2.3078,2.3078,2.3078,2.3078,2.3078,2.3078,2.3078,2.3078,2.3078,2.3078,2.3078,2.3078,2.3078,2.3078,2.3078,2.3078,2.3078,2.3078,2.3078,2.3078,2.3078,2.3078,0.0,2.3078,2.3078,0.0,2.3078,2.3078,0.0,0.0,2.2485,2.2811,2.2902,2.2472,2.2824,2.3078,2.3078,2.3078,2.3078,2.3078,2.3078,2.3078,2.3078,2.2686,2.2372,2.2309,2.138,2.0857,2.0718,2.0162,1.9874,1.9798,1.9798,1.9798,1.9798,1.9695,1.9695,1.9695,1.9695,1.9695,1.9643,1.898,1.8715,1.8715,1.8608,1.8167,1.7578,1.7523,1.7024,1.6379,1.6379,1.5979,1.541,1.8664,1.8664,1.8844,1.9879,2.0268,2.059,2.1239,2.2372,2.3078,2.3078,2.3078,2.2944,2.2628,2.2249,2.1928,2.1542,2.1467,2.1667,2.2051,2.2372,2.2763,2.3078,2.3078,2.3078,2.3078,2.3078,2.3078,2.3078,2.3078,2.3078,2.3078,2.3078,2.3078,2.3078,2.3078,2.3078,2.3078,2.3078,2.3078,2.3078,2.3078,2.3078,2.3078,2.3078,2.3078,2.3125,2.3662,2.3484,2.3078,2.3078,2.3078,2.3078,2.3078,2.3078,2.3078,2.3078,2.3078,2.3078,2.3078,2.3078,2.3078,2.3078,2.3078,2.3078,2.3078,2.3078,2.3078,2.3078,0.0,0.0,0.0,0.0,0.0,0.0,2.2927,2.299,2.2824,2.2987,2.3078,2.3078,2.3078,2.3078,2.3078,2.3078,2.294,2.2686,2.277,2.2462,2.1448,2.1268,2.0912,2.0227,1.9924,1.9798,1.9798,1.9798,1.9798,1.9798,1.9798,1.9798,1.9798,1.9798,1.9798,1.9798,1.9475,1.9319,1.9319,1.9319,1.915,1.8874,1.8874,1.8167,1.709,1.6652,1.6312,1.5979,1.8854,1.8664,1.8911,2.0655,2.0398,2.0526,2.2002,2.2567,2.2823,2.3078,2.3078,2.3078,2.3078,2.2884,2.2763,2.2763,2.2763,2.2763,2.2763,2.3005,2.3078,2.3078,2.3078,2.3078,2.3078,2.3078,2.3078,2.3078,2.3078,2.3078,2.3078,2.3078,2.3078,2.3078,2.3078,2.3078,2.3078,2.3078,2.3078,2.3078,2.3078,2.3245,2.3424,2.3424,2.3424,2.3484,2.4118,2.3767,2.3078,2.3078,2.3078,2.3078,2.3078,2.3078,2.3078,2.3078,2.3078,2.3078,2.3078,2.3078,2.3078,2.3078,2.3078,2.3078,2.3078,2.3078,2.3078,2.3078,2.3078,0.0,0.0,0.0,2.3027,2.2877,0.0,2.3027,2.2924,2.3037,2.3078,2.3078,2.3078,2.3078,2.3078,2.3305,2.3137,2.2359,2.2803,2.2395,2.0769,2.0964,2.0733,1.9811,1.9798,1.9798,1.9798,1.9798,1.9798,1.9798,1.9798,1.9798,1.9798,1.9798,1.9798,1.9798,1.9798,1.9798,1.9798,1.9798,1.9798,1.9798,1.9798,1.915,1.8112,1.7146,1.6652,1.6379,1.8008,1.8721,1.9824,2.1553,2.1815,2.2125,2.2944,2.2445,2.2199,2.3017,2.3078,2.3078,2.3078,2.2384,2.1939,2.1939,2.1939,2.1939,2.1939,2.2689,2.3078,2.3078,2.3078,2.3078,2.3078,2.3078,2.3078,2.3078,2.3078,2.3078,2.3078,2.3078,2.3078,2.3078,2.3078,2.3078,2.3078,2.3078,2.3078,2.3078,2.3078,2.3603,2.4234,2.4234,2.4234,2.4292,2.4292,2.3767,2.3078,2.3078,2.3078,2.3078,2.3078,2.3078,2.3078,2.3078,2.3078,2.3078,2.3078,2.3078,2.3078,2.3078,2.3078,2.3078,2.3078,2.3078,2.3078,2.3078,2.3078,2.3078,2.3078,2.3078,2.2902,2.2422,2.2786,0.0,0.0,2.2799,2.3078,2.3078,2.3078,2.3078,2.3078,2.3826,2.3709,2.2405,2.2496,2.2086,2.0743,2.019,1.9823,1.9798,1.9798,1.9798,1.9798,1.9798,1.9798,1.9798,1.9798,1.9798,1.9798,1.9798,1.9798,1.9798,1.9798,1.9798,1.9798,1.9798,1.9798,1.9798,1.9798,1.9747,1.9527,1.8124,1.7079,1.6379,1.8721,1.8654,1.8977,2.0719,2.1502,2.2199,2.3005,2.2884,2.2823,2.3078,2.3078,2.3078,2.3078,2.2884,2.2689,2.2689,2.2689,2.2689,2.2689,2.2944,2.3078,2.3078,2.3078,2.3078,2.3078,2.3078,2.3078,2.3078,2.3078,2.3078,2.3078,2.3078,2.3078,2.3078,2.3078,2.3078,2.3078,2.3078,2.3078,2.3078,2.3078,2.3872,2.5007,2.5007,2.5007,2.5007,2.5007,2.4567,2.3884,2.3884,2.3543,2.3185,2.3721,2.3543,2.3078,2.3078,2.3078,2.3078,2.3078,2.3078,2.3078,2.3078,2.3078,2.3078,2.3078,2.3078,2.3078,2.3078,2.3078,2.3078,2.3078,2.3078,2.3015,2.2887,2.2952,2.3015,0.0,2.2965,2.3078,2.3078,2.3078,2.3078,2.3078,2.3035,2.2636,2.1807,2.1872,2.1602,2.0784,2.0974,2.1037,2.1037,2.1037,2.1037,2.1037,2.1037,2.0868,2.0446,2.0446,2.0446,2.0459,2.0003,2.0055,2.0459,2.0003,1.9798,1.9798,1.9798,1.9798,1.9798,1.9798,1.9798,1.9631,1.8112,1.7468,1.7135,1.8721,1.8664,1.8977,2.0782,2.1741,2.2506,2.3005,2.3078,2.3078,2.3078,2.3078,2.3078,2.3078,2.3078,2.3078,2.3078,2.3078,2.3078,2.3078,2.3078,2.3078,2.3078,2.3078,2.3078,2.3078,2.3078,2.3078,2.3078,2.3078,2.3078,2.3078,2.3078,2.3078,2.3078,2.3078,2.3078,2.3078,2.3078,2.3078,2.3078,2.3078,2.3872,2.5063,2.5287,2.5563,2.5783,2.5783,2.5342,2.4681,2.4681,2.4337,2.3989,2.4234,2.3943,2.3484,2.3185,2.3078,2.3078,2.3078,2.3078,2.3078,2.3078,2.3078,2.3078,2.3078,2.3078,2.3078,2.3078,2.3078,2.3078,2.3078,2.3078,2.3078,2.3078,2.3078,2.3078,0.0,2.3078,2.3002,2.2862,2.2836,2.2836,2.2836,2.2783,2.2428,2.1601,2.202,2.1993,2.1153,2.1472,2.1697,2.1697,2.1697,2.1697,2.1697,2.1697,2.152,2.1113,2.1113,2.1113,2.1113,2.0434,2.0396,2.0746,2.0105,1.9798,1.9798,1.9798,1.9798,1.9798,1.9798,1.9798,1.9643,1.8447,1.7852,1.7523,1.8008,1.8721,1.9814,2.1491,2.2506,2.3065,2.3065,2.3078,2.3078,2.3078,2.3078,2.3078,2.3078,2.3078,2.3078,2.3078,2.3078,2.3078,2.3078,2.3078,2.3078,2.3078,2.3078,2.3078,2.3078,2.3078,2.3078,2.3078,2.3078,2.3078,2.3078,2.3078,2.3078,2.3078,2.3078,2.3078,2.3078,2.3078,2.3078,2.3078,2.3125,2.3649,2.4452,2.5175,2.5906,2.6563,2.651,2.6068,2.5453,2.5453,2.5453,2.5287,2.4567,2.435,2.4118,2.3365,2.3078,2.3078,2.3078,2.3078,2.3078,2.3078,2.3078,2.3078,2.3078,2.3078,2.3078,2.3078,2.3078,2.3078,2.3078,2.3078,2.3078,2.3078,2.3078,2.3078,2.3078,2.3078,2.2924,2.2372,2.2284,2.2272,2.2329,2.3057,2.3005,2.1758,2.2867,2.3065,2.1833,2.1758,2.1744,2.1791,2.1791,2.1791,2.1791,2.1791,2.1791,2.1758,2.1758,2.1758,2.1758,2.1113,2.0845,2.0845,2.0144,1.985,1.985,1.9798,1.9798,1.9798,1.9798,1.9798,1.9695,1.898,1.8221,1.7633,1.8008,1.8721,1.9431,1.9879,2.1227,2.2199,2.2199,2.2702,2.3078,2.3078,2.3078,2.3078,2.3078,2.3078,2.3078,2.3078,2.3078,2.3078,2.3078,2.3078,2.3078,2.3078,2.3078,2.3078,2.3078,2.3078,2.3078,2.3078,2.3078,2.3078,2.3078,2.3078,2.3078,2.3078,2.3078,2.3078,2.3078,2.3078,2.3078,2.3125,2.3767,2.4452,2.5175,2.596,2.6654,2.7255,2.6721,2.6404,2.6229,2.6229,2.5837,2.5342,2.5175,2.4738,2.4118,2.3365,2.3078,2.3078,2.3078,2.3078,2.3078,2.3078,2.3078,2.3078,2.3078,2.3078,2.3078,2.3078,2.3078,2.3078,2.3078,2.3078,2.3078,2.3078,2.3078,2.3078,2.3078,2.3078,2.2924,2.2372,2.1945,2.185,2.2325,2.2234,2.2172,2.2315,2.2256,2.2269,2.2452,2.2452,2.2665,2.3128,2.3128,2.3128,2.3128,2.3128,2.2905,2.2452,2.2452,2.2452,2.2406,2.1771,2.1724,2.2128,2.1028,2.0547,2.0497,2.0003,1.9798,1.9798,1.9798,1.9798,1.9695,1.898,1.8221,1.7688,1.8008,1.8721,1.9299,1.9299,2.0719,2.1877,2.1877,2.2567,2.3078,2.3078,2.3078,2.3078,2.3078,2.3078,2.3078,2.3078,2.3078,2.3078,2.3078,2.3078,2.3078,2.3078,2.3078,2.3078,2.3078,2.3078,2.3078,2.3078,2.3078,2.3078,2.3078,2.3078,2.3078,2.3078,2.3078,2.3078,2.3078,2.3078,2.3305,2.3649,2.4118,2.4738,0.0,2.6229,2.6774,2.71,2.6982,2.6982,2.6982,2.6982,2.6496,2.5837,2.5508,2.4908,2.4118,2.3365,2.3078,2.3078,2.3078,2.3078,2.3078,2.3078,2.3078,2.3078,2.3078,2.3078,2.3078,2.3078,2.3078,2.3078,2.3078,2.3078,2.3078,2.3078,2.3078,2.3078,2.3078,2.3078,2.2836,2.2046,2.1681,2.1555,2.1668,2.1659,2.1907,2.26,2.2577,2.2711,2.3054,2.3098,2.3246,2.3595,2.3595,2.3595,2.3595,2.3595,2.3421,2.3098,2.3098,2.3098,2.3054,2.2438,2.2346,2.2649,2.1643,2.1028,2.0746,2.0396,2.0055,1.9798,1.9798,1.9798,1.9747,1.9307,1.8927,1.8608,1.8008,1.8721,1.9299,1.9299,2.0719,2.1877,2.1877,2.2567,2.3078,2.3078,2.3078,2.3078,2.3078,2.3078,2.3078,2.3078,2.3078,2.3078,2.3078,2.3078,2.3078,2.3078,2.3078,2.3078,2.3078,2.3078,2.3078,2.3078,2.3078,2.3078,2.3078,2.3078,2.3078,2.3078,2.3078,2.3078,2.3078,2.3078,2.3531,2.4292,2.4408,2.4908,2.5618,2.6336,2.6669,2.6721,2.7357,2.7625,2.7625,2.7625,2.7188,2.651,2.5783,2.5119,2.4452,2.3649,2.3305,2.3258,2.3258,2.3198,2.3078,2.3078,2.3078,2.3078,2.3078,2.3078,2.3078,2.3078,2.3078,2.3078,2.3078,2.3078,2.3078,2.3078,2.3078,2.3078,2.3078,2.3015,2.2636,2.1606,2.143,0.0,2.0864,2.1293,2.1899,2.2649,2.3098,2.3406,2.3595,2.3508,2.3508,2.3595,2.3595,2.3595,2.3595,2.3595,2.3595,2.3595,2.3595,2.3595,2.3595,2.3054,2.283,2.2785,2.21,2.1486,2.0894,2.0845,2.0396,1.9798,1.9798,1.9798,1.9798,1.9798,1.9798,1.9798,1.8008,1.8721,1.9299,1.9299,2.0719,2.1877,2.1877,2.2567,2.3078,2.3078,2.3078,2.3078,2.3078,2.3078,2.3078,2.3078,2.3078,2.3078,2.3078,2.3078,2.3078,2.3078,2.3078,2.3078,2.3078,2.3078,2.3078,2.3078,2.3078,2.3078,2.3078,2.3078,2.3078,2.3078,2.3078,2.3078,2.3078,2.3078,2.3531,2.435,2.4951,2.5673,2.6404,2.7137,2.7408,2.7408,2.756,2.7625,2.7625,2.7625,2.7509,2.7306,2.6549,2.6229,2.596,2.5231,2.4567,2.4118,2.4118,2.3603,2.3078,2.3078,2.3078,2.3078,2.3078,2.3078,2.3078,2.3078,2.3078,2.3078,2.3078,2.3078,2.3078,2.3078,2.3078,2.3078,2.3078,2.2736,2.2221,2.1556,2.1091,2.0805,2.0825,2.0894,2.1465,2.2603,2.2285,2.25,2.3551,2.3143,2.3098,2.3595,2.3595,2.3595,2.3595,2.3595,2.3595,2.3595,2.3595,2.3595,2.3595,2.3508,2.3421,2.3421,2.277,2.2161,2.152,2.1028,2.0396,1.9798,1.9798,1.9798,1.9798,1.9798,1.9798,1.9798,1.8596,1.9365,2.0139,2.059,2.1678,2.2506,2.2506,2.2823,2.3078,2.3078,2.3078,2.3078,2.3078,2.3078,2.3078,2.3078,2.3078,2.3078,2.3078,2.3078,2.3078,2.3078,2.3078,2.3078,2.3078,2.3078,2.3078,2.3078,2.3078,2.3078,2.3078,2.3078,2.3078,2.3078,2.3078,2.3078,2.3078,2.3078,2.3531,2.435,2.5119,2.5837,2.6563,2.7306,2.7625,2.7625,2.7625,2.7625,2.7625,2.7625,2.7357,2.6982,2.6616,2.6229,2.5837,2.5508,2.4908,2.4408,2.4794,2.4337,2.3708,2.3708,2.3708,2.359,2.3198,2.3078,2.3078,2.3078,2.3078,2.3078,2.3078,2.3078,2.3078,2.3078,2.3078,2.3078,2.3078,2.2661,2.2108,2.1556,2.1004,2.0598,2.0309,2.0308,2.0818,2.21,2.2193,2.2331,2.2606,2.295,2.3143,2.3143,2.3421,2.3595,2.3595,2.3595,2.3595,2.3595,2.3595,2.3595,2.3595,2.3595,2.3595,2.3595,2.3275,2.2815,2.2146,2.1534,2.1099,2.0756,2.0434,2.0295,2.0308,1.9952,1.9798,1.9798,1.9177,2.0139,2.1101,2.1753,2.2567,2.3078,2.3078,2.3078,2.3078,2.3078,2.3078,2.3078,2.3078,2.3078,2.3078,2.3078,2.3078,2.3078,2.3078,2.3078,2.3078,2.3078,2.3078,2.3078,2.3078,2.3078,2.3078,2.3078,2.3078,2.3078,2.3078,2.3078,2.3078,2.3078,2.3078,2.3078,2.3138,2.3305,2.3826,2.4624,2.5342,2.6068,2.6774,2.7357,2.7625,2.7625,2.7625,2.7625,2.7625,2.7625,2.7188,2.6721,2.6721,2.6336,2.5892,2.5892,2.5342,2.4908,2.5453,2.4951,2.4292,2.4292,2.4176,2.3884,2.3245,2.3078,2.3078,2.3078,2.3078,2.3078,2.3078,2.3078,2.3078,2.3078,2.3078,2.3078,2.3078,2.256,2.197,2.1543,2.0891,2.03,1.9849,1.9798,2.0232,2.1232,2.1771,2.196,2.1697,2.2651,2.3039,2.2694,2.329,2.3595,2.3595,2.3595,2.3595,2.3595,2.3595,2.3595,2.3595,2.3595,2.3595,2.3595,2.3595,2.3246,2.2649,2.1993,2.1602,2.1472,2.0979,2.0696,2.0497,2.0003,1.9798,1.9798,1.9431,2.0655,2.1815,2.1877,2.2567,2.3078,2.3078,2.3078,2.3078,2.3078,2.3078,2.3078,2.3078,2.3078,2.3078,2.3078,2.3078,2.3078,2.3078,2.3078,2.3078,2.3078,2.3078,2.3078,2.3078,2.3078,2.3078,2.3078,2.3078,2.3078,2.3078,2.3078,2.3078,2.3078,2.3078,2.3078,2.3138,2.3884,2.4624,2.5342,2.6122,2.6826,2.7509,2.7575,2.7625,2.7625,2.7625,2.7625,2.7625,2.7625,2.756,2.7509,2.7509,2.7458,2.7408,2.7408,2.6878,2.6283,2.6404,2.5342,2.4292,2.4292,2.3767,2.3198,2.3138,2.3078,2.3078,2.3078,2.3078,2.3078,2.3078,2.3078,2.3078,2.3078,2.3078,2.3078,2.3078,2.2234,2.1543,2.1493,2.0539,1.9861,1.9811,1.9798,1.985,1.9991,2.0042,2.057,2.1649,2.1791,2.2146,2.2694,2.329,2.3595,2.3595,2.3595,2.3595,2.3595,2.3595,2.3595,2.3595,2.3595,2.3595,2.3595,2.3595,2.3246,2.2649,2.1993,2.139,2.0894,2.0795,2.0446,1.9901,1.9798,1.9798,1.9798,2.0846,2.1428,2.2063,2.2567,2.2884,2.3078,2.3078,2.3078,2.3078,2.3078,2.3078,2.3078,2.3078,2.3078,2.3078,2.3078,2.3078,2.3078,2.3078,2.3078,2.3078,2.3078,2.3078,2.3078,2.3078,2.3078,2.3078,2.3078,2.3078,2.3078,2.3078,2.3078,2.3078,2.3078,2.3078,2.3078,2.3125,2.3943,2.4452,2.4851,2.6014,2.6669,2.6982,2.7408,2.7625,2.7625,2.7625,2.7625,2.7625,2.7625,2.7625,2.7625,2.7625,2.7625,2.7625,2.7625,2.7086,2.6616,2.7034,2.639,2.5618,2.5618,2.5063,2.4381,2.3943,2.3424,2.3078,2.3078,2.3078,2.3078,2.3078,2.3078,2.3078,2.3078,2.3078,2.3078,2.3078,2.2184,2.1493,2.1493,2.0489,1.9798,1.9798,1.9798,1.9798,1.9798,2.0144,2.0633,2.1113,2.1866,2.2406,2.2694,2.329,2.3595,2.3595,2.3595,2.3595,2.3595,2.3595,2.3595,2.3595,2.3595,2.3595,2.3595,2.3595,2.3465,2.3231,2.2935,2.2711,2.2438,2.2067,2.1534,2.0904,2.0534,2.0156,1.9798,2.1815,2.2075,2.2445,2.3005,2.3078,2.3078,2.3078,2.3078,2.3078,2.3078,2.3078,2.3078,2.3078,2.3078,2.3078,2.3078,2.3078,2.3078,2.3078,2.3078,2.3185,2.3424,2.3424,2.3424,2.3424,2.3424,2.3365,2.3078,2.3078,2.3078,2.3078,2.3078,2.3078,2.3078,2.3078,2.3078,2.3125,2.3943,2.4452,2.4738,2.6014,2.6616,2.6878,2.7408,2.7625,2.7625,2.7625,2.7625,2.7625,2.7625,2.7625,2.7625,2.7625,2.7625,2.7625,2.7625,2.7255,2.693,2.7458,2.7034,2.651,2.651,2.596,2.5231,2.4738,2.4163,2.3695,2.3484,2.3245,2.3078,2.3078,2.3078,2.3078,2.3078,2.3078,2.3015,2.2912,2.2083,2.143,2.1267,2.0388,1.9798,1.9798,1.9798,1.9798,1.9798,2.0258,2.0597,2.0795,2.1833,2.2498,2.2694,2.329,2.3595,2.3595,2.3595,2.3595,2.3595,2.3595,2.3595,2.3595,2.3595,2.3595,2.3595,2.3595,2.3595,2.3595,2.3595,2.3508,2.3275,2.2889,2.23,2.1663,2.1197,2.0782,2.032,2.2063,2.2567,2.3078,2.3078,2.3078,2.3078,2.3078,2.3078,2.3078,2.3078,2.3078,2.3078,2.3078,2.3078,2.3078,2.3078,2.3078,2.3078,2.3078,2.3078,2.3471,2.4234,2.4292,2.4292,2.4292,2.4292,2.3884,2.3078,2.3078,2.3078,2.3078,2.3078,2.3078,2.3078,2.3078,2.3078,2.3125,2.3943,2.4738,2.5453,2.6176,2.693,2.7575,2.7625,2.7625,2.7625,2.7625,2.7625,2.7625,2.7625,2.7625,2.7625,2.7625,2.7625,2.7625,2.7625,2.7575,2.7575,2.7625,2.7034,2.651,2.651,2.596,2.5398,2.5398,2.5398,2.5175,2.4452,2.3649,2.3078,2.3078,2.3078,2.3078,2.3078,2.3078,2.2877,2.2397,2.1845,2.128,2.0794,2.0162,1.9798,1.9798,1.9798,1.9798,1.9798,1.9798,2.0105,2.0746,2.139,2.2007,2.2694,2.329,2.3595,2.3595,2.3595,2.3595,2.3595,2.3595,2.3595,2.3595,2.3595,2.3595,2.3595,2.3595,2.3595,2.3595,2.3595,2.3246,2.2694,2.2694,2.23,2.1697,2.1697,2.1697,2.1615,2.2763,2.2944,2.3078,2.3078,2.3078,2.3078,2.3078,2.3078,2.3078,2.3078,2.3078,2.3078,2.3078,2.3078,2.3078,2.3078,2.3078,2.3305,2.3884,2.3943,2.4279,2.5007,2.4567,2.4292,2.4292,2.3767,2.3365,2.3078,2.3662,2.3943,2.3943,2.3943,2.3662,2.3138,2.3649,2.359,2.3198,2.4509,2.5175,2.5508,2.6759,2.7408,2.7625,2.7625,2.7625,2.7625,2.7625,2.7625,2.7625,2.7625,2.7625,2.7625,2.7625,2.7625,2.7625,2.7625,2.7625,2.7625,2.7625,2.7408,2.7255,2.7255,2.6721,2.6176,2.6176,2.5728,2.5175,2.4452,2.4118,2.3767,2.3198,2.3078,2.3078,2.3078,2.3078,2.2877,2.2385,2.1832,2.128,2.0781,2.0162,1.9798,1.9798,1.9798,1.9798,1.9798,1.9798,2.0105,2.0746,2.0979,2.1595,2.2649,2.2875,2.3187,2.3595,2.3595,2.3595,2.3595,2.3595,2.3595,2.3595,2.3595,2.3595,2.3595,2.3595,2.3595,2.3595,2.3595,2.3465,2.3334,2.3334,2.295,2.2392,2.2392,2.21,2.1615,2.3078,2.3078,2.3078,2.3078,2.3078,2.3078,2.3078,2.3078,2.3078,2.3078,2.3078,2.3078,2.3078,2.3365,2.3543,2.3543,2.3543,2.3884,2.4681,2.4738,2.5063,2.5783,2.5342,2.5119,2.5119,2.4654,2.4266,2.3975,2.4452,2.4738,2.4738,2.4738,2.4452,2.3989,2.4509,2.4439,2.4047,2.5007,2.5563,2.5892,2.6826,2.7357,2.7625,2.7625,2.7625,2.7625,2.7625,2.7625,2.7625,2.7625,2.7625,2.7625,2.7625,2.7625,2.7625,2.7625,2.7625,2.7625,2.7625,2.7625,2.7625,2.7625,2.7255,2.693,2.693,2.6336,2.5673,2.5231,2.4894,2.4567,2.4047,2.3975,2.3872,2.359,2.3543,2.3216,2.2166,2.1707,2.1204,2.0426,2.0024,1.9798,1.9798,1.9798,1.9798,1.9798,1.9798,2.0003,2.0396,2.0646,2.1272,2.23,2.23,2.2529,2.2891,2.3143,2.3246,2.3275,2.3508,2.3595,2.3595,2.3595,2.3595,2.3595,2.3595,2.3595,2.3595,2.3595,2.3595,2.3595,2.3595,2.3377,2.3054,2.3054,2.2756,2.2317,2.3078,2.3078,2.3078,2.3078,2.3078,2.3078,2.3078,2.3078,2.3078,2.3078,2.3138,2.3185,2.3185,2.3884,2.4408,2.4452,2.4408,2.4681,2.5453,2.5453,2.5783,2.6563,2.651,2.651,2.651,2.6457,2.6122,2.5453,2.5453,2.5453,2.5453,2.5453,2.5453,2.5398,2.5453,2.5453,2.5398,2.5453,2.5837,2.651,2.6563,2.6982,2.7625,2.7625,2.7625,2.7625,2.7625,2.7625,2.7625,2.7625,2.7625,2.7625,2.7625,2.7625,2.7625,2.7625,2.7625,2.7625,2.7625,2.7625,2.7625,2.7625,2.7625,2.7625,2.7625,2.7086,2.6563,2.651,2.596,2.5453,2.5398,2.5398,2.5175,2.4408,2.4292,2.3655,2.1744,2.1493,2.1066,1.9936,1.9798,1.9798,1.9798,1.9798,1.9798,1.9798,1.9798,1.9798,1.9798,2.0396,2.1028,2.1615,2.1663,2.1663,2.1697,2.2346,2.2694,2.2785,2.329,2.3551,2.3595,2.3595,2.3595,2.3595,2.3595,2.3595,2.3595,2.3595,2.3595,2.3595,2.3595,2.3595,2.3595,2.3595,2.3595,2.3508,2.3078,2.3078,2.3078,2.3078,2.3078,2.3078,2.3078,2.3078,2.3078,2.3078,2.3649,2.4002,2.4002,2.4681,2.5342,2.596,2.5453,2.5453,2.6176,2.6229,2.6549,2.7306,2.6826,2.651,2.651,2.596,2.5837,2.6229,2.5673,2.5673,2.6229,2.6229,2.596,2.5398,2.6014,2.596,2.5453,2.6014,2.6336,2.6563,2.7086,2.7458,2.7625,2.7625,2.7625,2.7625,2.7625,2.7625,2.7625,2.7625,2.7625,2.7625,2.7625,2.7625,2.7625,2.7625,2.7625,2.7625,2.7625,2.7625,2.7625,2.7625,2.7625,2.7625,2.7625,2.7458,2.7203,2.6616,2.6336,2.6068,2.5508,2.5398,2.5175,2.4408,2.4292,2.3655,2.1744,2.1493,2.1066,1.9936,1.9798,1.9798,1.9798,1.9798,1.9798,1.9798,1.9798,1.9798,1.9798,1.9952,2.0346,2.0979,2.1028,2.1245,2.1697,2.2346,2.292,2.3377,2.3054,2.3143,2.3595,2.3595,2.3595,2.3595,2.3595,2.3595,2.3595,2.3595,2.3595,2.3595,2.3595,2.3595,2.3595,2.3595,2.3595,2.3508,2.3078,2.3078,2.3078,2.3078,2.3078,2.3078,2.3078,2.3078,2.3078,2.3078,2.3484,2.3884,2.4234,2.4951,2.5673,2.6457,2.6122,2.6229,2.693,2.6982,2.7203,2.7575,2.7203,2.6982,2.6982,2.6602,2.6587,2.6982,2.6587,2.6602,2.6982,2.6982,2.6774,2.6428,2.6811,2.6759,2.6428,2.6811,2.6982,2.7034,2.7458,2.7625,2.7625,2.7625,2.7625,2.7625,2.7625,2.7625,2.7625,2.7625,2.7625,2.7625,2.7625,2.7625,2.7625,2.7625,2.7625,2.7625,2.7625,2.7625,2.7625,2.7625,2.7625,2.7625,2.7625,2.7625,2.7509,2.71,2.6982,2.6878,2.6481,2.6428,2.6162,2.5453,2.4776,2.3832,2.2234,2.1735,2.1087,1.995,2.0055,2.0156,1.985,1.9798,1.9798,1.9798,1.9798,1.9798,1.9798,1.9798,1.9952,2.0346,2.0346,2.0484,2.0855,2.15,2.2314,2.3187,2.2844,2.3024,2.3595,2.3595,2.3595,2.3595,2.3595,2.3595,2.3595,2.3595,2.3595,2.3595,2.3595,2.3595,2.3595,2.3595,2.3595,2.3551,2.3078,2.3078,2.3078,2.3078,2.3078,2.3078,2.3078,2.3078,2.3078,2.3078,2.3185,2.3543,2.4234,2.5063,2.5837,2.6457,2.6616,2.693,2.756,2.7625,2.7625,2.7625,2.7625,2.7625,2.7625,2.7625,2.7625,2.7625,2.7625,2.7625,2.7625,2.7625,2.7625,2.7625,2.7625,2.7625,2.7625,2.7625,2.7625,2.7625,2.7625,2.7625,2.7625,2.7625,2.7625,2.7625,2.7625,2.7625,2.7625,2.7625,2.7625,2.7625,2.7625,2.7625,2.7625,2.7625,2.7625,2.7625,2.7625,2.7625,2.7625,2.7625,2.7625,2.7625,2.7625,2.7625,2.7625,2.7625,2.7625,2.7625,2.7625,2.7625,2.7357,2.6616,2.5463,2.4199,2.2911,2.2179,2.134,2.0207,2.0584,2.0733,2.0131,1.9991,1.9952,1.9952,1.985,1.9798,1.9798,1.9798,1.9798,1.9798,1.9798,1.9901,2.0093,2.0547,2.1417,2.2694,2.2694,2.2965,2.3465,2.3551,2.3595,2.3595,2.3595,2.3595,2.3595,2.3595,2.3595,2.3595,2.3595,2.3595,2.3595,2.3595,2.3595,2.3595,2.3078,2.3078,2.3078,2.3078,2.3078,2.3078,2.3078,2.3078,2.3078,2.3078,2.3708,2.4176,2.4292,2.5508,2.6404,2.651,2.7086,2.7458,2.7575,2.7625,2.7625,2.7625,2.7625,2.7625,2.7625,2.7625,2.7625,2.7625,2.7625,2.7625,2.7625,2.7625,2.7625,2.7625,2.7625,2.7625,2.7625,2.7625,2.7625,2.7625,2.7625,2.7625,2.7625,2.7625,2.7625,2.7625,2.7625,2.7625,2.7625,2.7625,2.7625,2.7625,2.7625,2.7625,2.7625,2.7625,2.7625,2.7625,2.7625,2.7625,2.7625,2.7625,2.7625,2.7625,2.7625,2.7625,2.7625,2.7625,2.7625,2.7625,2.7625,2.7625,2.7357,2.6616,2.5845,2.4892,2.362,2.2848,2.2169,2.1492,2.152,2.152,2.1424,2.0917,2.0646,2.0646,2.0105,1.9798,1.9798,1.9798,1.9798,1.9798,1.9798,2.032,2.1363,2.1015,2.1417,2.2694,2.2694,2.2754,2.2844,2.3377,2.3595,2.3595,2.3595,2.3595,2.3595,2.3595,2.3595,2.3595,2.3595,2.3595,2.3595,2.3595,2.3595,2.3595,2.3078,2.3078,2.3078,2.3078,2.3078,2.3078,2.3078,2.3078,2.3258,2.3708,2.406,2.4624,2.5398,2.6068,2.6669,2.7034,2.7408,2.7625,2.7625,2.7625,2.7625,2.7625,2.7625,2.7625,2.7625,2.7625,2.7625,2.7625,2.7625,2.7625,2.7625,2.7625,2.7625,2.7625,2.7625,2.7625,2.7625,2.7625,2.7625,2.7625,2.7625,2.7625,2.7625,2.7625,2.7625,2.7625,2.7625,2.7625,2.7625,2.7625,2.7625,2.7625,2.7625,2.7625,2.7625,2.7625,2.7625,2.7625,2.7625,2.7625,2.7625,2.7625,2.7625,2.7625,2.7625,2.7625,2.7625,2.7625,2.7625,2.7625,2.7625,2.7625,2.7509,2.7152,2.5981,2.4862,2.4276,2.33,2.2437,2.1785,2.1993,2.21,2.1758,2.1424,2.1161,2.0845,2.0818,2.0521,1.985,2.0144,2.0144,1.9798,2.0144,2.0434,2.0657,2.1099,2.1582,2.2146,2.2558,2.2875,2.3187,2.3465,2.3595,2.3595,2.3595,2.3595,2.3595,2.3595,2.3595,2.3595,2.3595,2.3595,2.3595,2.3595,2.3595,2.3595,2.3078,2.3078,2.3078,2.3078,2.3078,2.3078,2.3078,2.3078,2.3365,2.4176,2.4292,2.4794,2.6122,2.6404,2.6721,2.7306,2.7509,2.7625,2.7625,2.7625,2.7625,2.7625,2.7625,2.7625,2.7625,2.7625,2.7625,2.7625,2.7625,2.7625,2.7625,2.7625,2.7625,2.7625,2.7625,2.7625,2.7625,2.7625,2.7625,2.7625,2.7625,2.7625,2.7625,2.7625,2.7625,2.7625,2.7625,2.7625,2.7625,2.7625,2.7625,2.7625,2.7625,2.7625,2.7625,2.7625,2.7625,2.7625,2.7625,2.7625,2.7625,2.7625,2.7625,2.7625,2.7625,2.7625,2.7625,2.7625,2.7625,2.7625,2.7625,2.7625,2.7565,2.7415,2.5992,2.483,2.4684,2.3647,2.2725,2.2225,2.2575,2.2725,2.2179,2.1993,2.1677,2.1077,2.1424,2.1232,2.0093,2.0497,2.0497,1.9798,2.0446,2.0646,2.0232,2.1376,2.1946,2.1946,2.2589,2.3054,2.3377,2.3551,2.3595,2.3595,2.3595,2.3595,2.3595,2.3595,2.3595,2.3595,2.3595,2.3595,2.3595,2.3595,2.3595,2.3595,2.3078,2.3078,2.3078,2.3078,2.3078,2.3078,2.3078,2.3078,2.3365,2.4176,2.4292,2.4624,2.5398,2.6068,2.651,2.6563,2.7203,2.7625,2.7625,2.7625,2.7625,2.7625,2.7625,2.7625,2.7625,2.7625,2.7625,2.7625,2.7625,2.7625,2.7625,2.7625,2.7625,2.7625,2.7625,2.7625,2.7625,2.7625,2.7625,2.7625,2.7625,2.7625,2.7625,2.7625,2.7625,2.7625,2.7625,2.7625,2.7625,2.7625,2.7625,2.7625,2.7625,2.7625,2.7625,2.7625,2.7625,2.7625,2.7625,2.7625,2.7625,2.7625,2.7625,2.7625,2.7625,2.7625,2.7625,2.7625,2.7625,2.7625,2.7625,2.7625,2.743,2.6752,2.6016,2.5297,2.4686,2.397,2.3508,2.345,2.3508,2.3508,2.345,2.2965,2.2346,2.1663,2.1649,2.1424,2.0746,2.0746,2.0497,1.9798,2.0446,2.1015,2.1568,2.2253,2.2649,2.2649,2.3231,2.3275,2.2799,2.3334,2.3595,2.3595,2.3595,2.3595,2.3595,2.3595,2.3595,2.3595,2.3595,2.3595,2.3595,2.3595,2.3595,2.3595,2.3078,2.3078,2.3078,2.3078,2.3078,2.3078,2.3078,2.3078,2.3531,2.4838,2.4951,2.5453,2.664,2.7019,2.7203,2.7203,2.7458,2.7625,2.7625,2.7625,2.7625,2.7625,2.7625,2.7625,2.7625,2.7625,2.7625,2.7625,2.7625,2.7625,2.7625,2.7625,2.7625,2.7625,2.7625,2.7625,2.7625,2.7625,2.7625,2.7625,2.7625,2.7625,2.7625,2.7625,2.7625,2.7625,2.7625,2.7625,2.7625,2.7625,2.7625,2.7625,2.7625,2.7625,2.7625,2.7625,2.7625,2.7625,2.7625,2.7625,2.7625,2.7625,2.7625,2.7625,2.7625,2.7625,2.7625,2.7625,2.7625,2.7625,2.7625,2.7625,2.74,2.6692,2.6033,2.5375,2.4672,2.4029,2.3595,2.3595,2.3595,2.3595,2.3595,2.3377,2.3009,2.2346,2.2665,2.2409,2.1424,2.1342,2.1232,2.0988,2.1643,2.1704,2.1161,2.2529,2.3054,2.2694,2.3334,2.3465,2.329,2.3508,2.3595,2.3595,2.3595,2.3595,2.3595,2.3595,2.3595,2.3595,2.3595,2.3595,2.3595,2.3595,2.3595,2.3595,2.3078,2.3078,2.3198,2.3424,2.3484,2.3531,2.3813,2.3813,2.4266,2.5563,2.5728,2.6215,2.7458,2.7625,2.7625,2.7625,2.7625,2.7625,2.7625,2.7625,2.7625,2.7625,2.7625,2.7625,2.7625,2.7625,2.7625,2.7625,2.7625,2.7625,2.7625,2.7625,2.7625,2.7625,2.7625,2.7625,2.7625,2.7625,2.7625,2.7625,2.7625,2.7625,2.7625,2.7625,2.7625,2.7625,2.7625,2.7625,2.7625,2.7625,2.7625,2.7625,2.7625,2.7625,2.7625,2.7625,2.7625,2.7625,2.7625,2.7625,2.7625,2.7625,2.7625,2.7625,2.7625,2.7625,2.7625,2.7625,2.7625,2.7625,2.7625,2.7625,2.729,2.6422,2.5899,2.53,2.4433,2.3894,2.3595,2.3595,2.3595,2.3595,2.3595,2.3595,2.3334,2.2754,2.3246,2.3128,2.2053,2.2179,2.2132,2.1697,2.2529,2.2452,2.1417,2.286,2.3377,2.2965,2.3421,2.3595,2.3595,2.3595,2.3595,2.3595,2.3595,2.3595,2.3595,2.3595,2.3595,2.3595,2.3595,2.3595,2.3595,2.3595,2.3595,2.3595,2.3078,2.3078,2.3365,2.4176,2.4292,2.4567,2.5287,2.5398,2.5673,2.6404,2.651,2.6774,2.7524,2.7625,2.7625,2.7625,2.7625,2.7625,2.7625,2.7625,2.7625,2.7625,2.7625,2.7625,2.7625,2.7625,2.7625,2.7625,2.7625,2.7625,2.7625,2.7625,2.7625,2.7625,2.7625,2.7625,2.7625,2.7625,2.7625,2.7625,2.7625,2.7625,2.7625,2.7625,2.7625,2.7625,2.7625,2.7625,2.7625,2.7625,2.7625,2.7625,2.7625,2.7625,2.7625,2.7625,2.7625,2.7625,2.7625,2.7625,2.7625,2.7625,2.7625,2.7625,2.7625,2.7625,2.7625,2.7625,2.7625,2.7625,2.7625,2.7625,2.7141,2.5824,2.5615,2.5136,2.3789,2.3595,2.3595,2.3595,2.3595,2.3595,2.3595,2.3595,2.3334,2.274,2.3246,2.3334,2.274,2.3275,2.3024,2.1744,2.2935,2.3334,2.2694,2.329,2.3595,2.3595,2.3595,2.3595,2.3595,2.3595,2.3595,2.3595,2.3595,2.3595,2.3595,2.3595,2.3595,2.3595,2.3595,2.3595,2.3595,2.3595,2.3595,2.3595,2.3078,2.3078,2.3198,2.3424,2.3943,2.435,2.4567,2.5063,2.5673,2.6404,2.651,2.6774,2.7524,2.7625,2.7625,2.7625,2.7625,2.7625,2.7625,2.7625,2.7625,2.7625,2.7625,2.7625,2.7625,2.7625,2.7625,2.7625,2.7625,2.7625,2.7625,2.7625,2.7625,2.7625,2.7625,2.7625,2.7625,2.7625,2.7625,2.7625,2.7625,2.7625,2.7625,2.7625,2.7625,2.7625,2.7625,2.7625,2.7625,2.7625,2.7625,2.7625,2.7625,2.7625,2.7625,2.7625,2.7625,2.7625,2.7625,2.7625,2.7625,2.7625,2.7625,2.7625,2.7625,2.7625,2.7625,2.7625,2.7625,2.7625,2.7625,2.7625,2.7141,2.5824,2.5615,2.5136,2.3789,2.3595,2.3595,2.3595,2.3595,2.3595,2.3595,2.3595,2.3508,2.3334,2.3508,2.3508,2.3334,2.3508,2.3406,2.3024,2.3406,2.3508,2.3334,2.3508,2.3595,2.3595,2.3595,2.3595,2.3595,2.3595,2.3595,2.3595,2.3595,2.3595,2.3595,2.3595,2.3595,2.3595,2.3595,2.3595,2.3595,2.3595,2.3595,2.3595,2.3543,2.359,2.3767,2.431,2.4838,2.5287,2.555,2.5986,2.6428,2.6878,2.6945,2.7086,2.756,2.7625,2.7625,2.7625,2.7625,2.7625,2.7625,2.7625,2.7625,2.7625,2.7625,2.7625,2.7625,2.7625,2.7625,2.7625,2.7625,2.7625,2.7625,2.7625,2.7625,2.7625,2.7625,2.7625,2.7625,2.7625,2.7625,2.7625,2.7625,2.7625,2.7625,2.7625,2.7625,2.7625,2.7625,2.7625,2.7625,2.7625,2.7625,2.7625,2.7625,2.7625,2.7625,2.7625,2.7625,2.7625,2.7625,2.7625,2.7625,2.7625,2.7625,2.7625,2.7625,2.7625,2.7625,2.7625,2.7625,2.7625,2.7625,2.7365,2.6841,2.5779,2.539,2.4837,2.3744,2.3595,2.3595,2.3595,2.3595,2.3595,2.3595,2.3595,2.3595,2.3595,2.3595,2.3595,2.3595,2.3595,2.3595,2.3595,2.3595,2.3595,2.3595,2.3595,2.3595,2.3595,2.3595,2.3595,2.3595,2.3595,2.3595,2.3595,2.3595,2.3595,2.3595,2.3595,2.3595,2.3595,2.3595,2.3595,2.3595,2.3595,2.3595,2.3595,2.4118,2.4292,2.4738,2.6176,2.6457,2.6721,2.7408,2.7575,2.7625,2.7625,2.7625,2.7625,2.7625,2.7625,2.7625,2.7625,2.7625,2.7625,2.7625,2.7625,2.7625,2.7625,2.7625,2.7625,2.7625,2.7625,2.7625,2.7625,2.7625,2.7625,2.7625,2.7625,2.7625,2.7625,2.7625,2.7625,2.7625,2.7625,2.7625,2.7625,2.7625,2.7625,2.7625,2.7625,2.7625,2.7625,2.7625,2.7625,2.7625,2.7625,2.7625,2.7625,2.7625,2.7625,2.7625,2.766,2.766,2.766,2.766,2.766,2.7675,2.761,2.7625,2.7625,2.7625,2.7625,2.7625,2.7625,2.7625,2.7625,2.7625,2.7036,2.6378,2.5719,2.5061,2.4388,2.3684,2.3595,2.3595,2.3595,2.3595,2.3595,2.3595,2.3595,2.3595,2.3595,2.3595,2.3595,2.3595,2.3595,2.3595,2.3595,2.3595,2.3595,2.3595,2.3595,2.3595,2.3595,2.3595,2.3595,2.3595,2.3595,2.3595,2.3595,2.3595,2.3595,2.3595,2.3595,2.3595,2.3595,2.3595,2.3595,2.3595,2.3595,2.3595,2.3595,2.4118,2.4292,2.4567,2.5453,2.6122,2.6563,2.6721,2.7255,2.7625,2.7625,2.7625,2.7625,2.7625,2.7625,2.7625,2.7625,2.7625,2.7625,2.7625,2.7625,2.7625,2.7625,2.7625,2.7625,2.7625,2.7625,2.7625,2.7625,2.7625,2.7625,2.7625,2.7625,2.7625,2.7625,2.7625,2.7625,2.7625,2.7625,2.7625,2.7625,2.7625,2.7625,2.7625,2.7625,2.7625,2.7625,2.7625,2.7625,2.7625,2.7625,2.7625,2.7625,2.7625,2.7625,2.766,2.8189,2.8319,2.8319,2.8319,2.8319,2.8189,2.771,2.7625,2.7625,2.7625,2.7625,2.7625,2.7625,2.7625,2.7625,2.7625,2.7036,2.6378,2.5719,2.5061,2.4388,2.3684,2.3595,2.3595,2.3595,2.3595,2.3595,2.3595,2.3595,2.3595,2.3595,2.3595,2.3595,2.3595,2.3595,2.3595,2.3595,2.3595,2.3595,2.3595,2.3595,2.3595,2.3595,2.3595,2.3595,2.3595,2.3595,2.3595,2.3595,2.3595,2.3595,2.3595,2.3595,2.3595,2.3595,2.3595,2.3595,2.3595,2.3595,2.3595,2.3595,2.5119,2.5342,2.5563,2.6322,2.6759,2.7034,2.7034,2.7357,2.7625,2.7625,2.7625,2.7625,2.7625,2.7625,2.7625,2.7625,2.7625,2.7625,2.7625,2.7625,2.7625,2.7625,2.7625,2.7625,2.7625,2.7625,2.7625,2.7625,2.7625,2.7625,2.7625,2.7625,2.7625,2.7625,2.7625,2.7625,2.7625,2.7625,2.7625,2.7625,2.7625,2.7625,2.7625,2.7625,2.7625,2.7625,2.7625,2.7625,2.7625,2.7625,2.7625,2.7625,2.7625,2.7625,2.766,2.8008,2.8271,2.8511,2.8511,2.8511,2.8415,2.8091,2.781,2.7625,2.7625,2.7625,2.7625,2.7625,2.781,2.8042,2.8042,2.7456,2.6824,2.6468,2.5555,2.4766,2.4395,2.4142,2.3991,2.3991,2.3767,2.3595,2.3595,2.3595,2.3595,2.3595,2.3595,2.3595,2.3595,2.3595,2.3595,2.3595,2.3595,2.3595,2.3595,2.3595,2.3595,2.3595,2.3595,2.3595,2.3595,2.3595,2.3595,2.3595,2.3595,2.3595,2.3595,2.3595,2.3595,2.3595,2.3595,2.3595,2.3595,2.3595,2.3595,2.3595,2.6229,2.651,2.6721,2.7458,2.7625,2.7625,2.7625,2.7625,2.7625,2.7625,2.7625,2.7625,2.7625,2.7625,2.7625,2.7625,2.7625,2.7625,2.7625,2.7625,2.7625,2.7625,2.7625,2.7625,2.7625,2.7625,2.7625,2.7625,2.7625,2.7625,2.7625,2.7625,2.7625,2.7625,2.7625,2.7625,2.7625,2.7625,2.7625,2.7625,2.7625,2.7625,2.7625,2.7625,2.7625,2.7625,2.7625,2.7675,2.776,2.776,2.776,2.771,2.7625,2.7675,2.776,2.7894,2.8304,2.8826,2.8826,2.8732,2.8654,2.8511,2.814,2.776,2.776,2.776,2.776,2.776,2.8222,2.8654,2.8654,2.7905,2.7294,2.7294,2.611,2.5221,2.5221,2.4736,2.4389,2.4389,2.3921,2.3595,2.3595,2.3595,2.3595,2.3595,2.3595,2.3595,2.3595,2.3595,2.3595,2.3595,2.3595,2.3595,2.3595,2.3595,2.3595,2.3595,2.3595,2.3595,2.3595,2.3595,2.3595,2.3595,2.3595,2.3595,2.3595,2.3595,2.3595,2.3595,2.3595,2.3595,2.3595,2.3595,2.3595,2.3595,2.6336,2.651,2.6721,2.7458,2.7625,2.7625,2.7625,2.7625,2.7625,2.7625,2.7625,2.7625,2.7625,2.7625,2.7625,2.7625,2.7625,2.7625,2.7625,2.7625,2.7625,2.7625,2.7625,2.7625,2.7625,2.7625,2.7625,2.7625,2.7625,2.7625,2.7625,2.7625,2.7625,2.7625,2.7625,2.7625,2.7625,2.7625,2.7625,2.7625,2.7625,2.7625,2.7625,2.7625,2.7625,2.7625,2.7625,2.7959,2.8367,2.8367,2.8367,2.8286,2.776,2.7944,2.8463,2.8996,2.9585,3.0081,3.0081,2.9673,2.9134,2.8654,2.8415,2.8367,2.8367,2.8367,2.8367,2.8367,2.8873,2.9271,2.9271,2.8211,2.7294,2.7294,2.611,2.5221,2.5221,2.4736,2.4389,2.4389,2.3921,2.3595,2.3595,2.3595,2.3595,2.3595,2.3595,2.3595,2.3595,2.3595,2.3595,2.3595,2.3595,2.3595,2.3595,2.3595,2.3595,2.3595,2.3595,2.3595,2.3595,2.3595,2.3595,2.3595,2.3595,2.3595,2.3595,2.3595,2.3595,2.3595,2.3595,2.3595,2.3595,2.3595,2.3595,2.3595,2.6982,2.7086,2.7203,2.756,2.7625,2.7625,2.7625,2.7625,2.7625,2.7625,2.7625,2.7625,2.7625,2.7625,2.7625,2.7625,2.7625,2.7625,2.7625,2.7625,2.7625,2.7625,2.7625,2.7625,2.7625,2.7625,2.7625,2.7625,2.7625,2.7625,2.7625,2.7625,2.7625,2.7625,2.7625,2.7625,2.7625,2.7625,2.7625,2.7625,2.7625,2.7625,2.7625,2.7944,2.8091,2.814,2.8496,2.8543,2.8511,2.8511,2.8286,2.7944,2.766,2.7993,2.8559,2.8826,2.9585,3.0293,3.0293,3.0123,2.9848,2.9585,2.9271,2.8996,2.8996,2.9271,2.9406,2.9088,2.9496,2.9892,2.9892,2.8985,2.8252,2.8252,2.7011,2.6052,2.6052,2.5598,2.5067,2.4471,2.4199,2.3921,2.3638,2.3879,2.3921,2.3638,2.3595,2.3595,2.3595,2.3595,2.3595,2.3595,2.3595,2.3595,2.3595,2.3595,2.3595,2.3595,2.3595,2.3752,2.4032,2.3767,2.3752,2.4032,2.3709,2.3595,2.3638,2.3921,2.4032,2.4074,2.4389,2.4511,2.4511,2.4511,2.4511,2.4511]},{"header":{"parameterUnit":"m.s-1","parameterCategory":1,"la1":30.6,"la2":28.766,"lo1":-90.7593,"lo2":-88.6598,"dy":0.0162,"dx":0.0183,"nx":116,"ny":114,"refTime":"2023-08-24T00:00:00:Z","depth":0,"parameterNumber":3,"parameterNumberName":"V-component_of_WINDS"},"data":[0.0,0.0,0.0,0.0,0.0,0.0,0.0,0.0,0.0,0.0,0.0,0.0,0.0,0.0,0.0,0.0,0.0,0.0,0.0,0.0,0.0,0.0,0.0,0.0,0.0,0.0,0.0,0.0,0.0,0.0,0.0,0.0,0.0,0.0,0.0,0.0,0.0,0.0,0.0,0.0,0.0,0.0,0.0,0.0,0.0,0.0,0.0,0.0,0.0,0.0,0.0,0.0,0.0,0.0,0.0,0.0,0.0,0.0,0.0,0.0,0.0,0.0,0.0,0.0,0.0,0.0,0.0,0.0,0.0,0.0,0.0,0.0,0.0,0.0,0.0,0.0,0.0,0.0,0.0,0.0,0.0,0.0,0.0,0.0,0.0,0.0,0.0,0.0,0.0,0.0,0.0,0.0,0.0,0.0,0.0,0.0,0.0,0.0,0.0,0.0,0.0,0.0,0.0,0.0,0.0,0.0,0.0,0.0,0.0,0.0,0.0,0.0,0.0,0.0,0.0,0.0,0.0,0.0,0.0,0.0,0.0,0.0,0.0,0.0,0.0,0.0,0.0,0.0,0.0,0.0,0.0,0.0,0.0,0.0,0.0,0.0,0.0,0.0,0.0,0.0,0.0,0.0,0.0,0.0,0.0,0.0,0.0,0.0,0.0,0.0,0.0,0.0,0.0,0.0,0.0,0.0,0.0,0.0,0.0,0.0,0.0,0.0,0.0,0.0,0.0,0.0,0.0,0.0,0.0,0.0,0.0,0.0,0.0,0.0,0.0,0.0,0.0,0.0,0.0,0.0,0.0,0.0,0.0,0.0,0.0,0.0,0.0,0.0,0.0,0.0,0.0,0.0,0.0,0.0,0.0,0.0,0.0,0.0,0.0,0.0,0.0,0.0,0.0,0.0,0.0,0.0,0.0,0.0,0.0,0.0,0.0,0.0,0.0,0.0,0.0,0.0,0.0,0.0,0.0,0.0,0.0,0.0,0.0,0.0,0.0,0.0,0.0,0.0,0.0,0.0,0.0,0.0,0.0,0.0,0.0,0.0,0.0,0.0,0.0,0.0,0.0,0.0,0.0,0.0,0.0,0.0,0.0,0.0,0.0,0.0,0.0,0.0,0.0,0.0,0.0,0.0,0.0,0.0,0.0,0.0,0.0,0.0,0.0,0.0,0.0,0.0,0.0,0.0,0.0,0.0,0.0,0.0,0.0,0.0,0.0,0.0,0.0,0.0,0.0,0.0,0.0,0.0,0.0,0.0,0.0,0.0,0.0,0.0,0.0,0.0,0.0,0.0,0.0,0.0,0.0,0.0,0.0,0.0,0.0,0.0,0.0,0.0,0.0,0.0,0.0,0.0,0.0,0.0,0.0,0.0,0.0,0.0,0.0,0.0,0.0,0.0,0.0,0.0,0.0,0.0,0.0,0.0,0.0,0.0,0.0,0.0,0.0,0.0,0.0,0.0,0.0,0.0,0.0,0.0,0.0,0.0,0.0,0.0,0.0,0.0,0.0,0.0,0.0,0.0,0.0,0.0,0.0,0.0,0.0,0.0,0.0,0.0,0.0,0.0,0.0,0.0,0.0,0.0,0.0,0.0,0.0,0.0,0.0,0.0,0.0,0.0,0.0,0.0,0.0,0.0,0.0,0.0,0.0,0.0,0.0,0.0,0.0,0.0,0.0,0.0,0.0,0.0,0.0,0.0,0.0,0.0,0.0,0.0,0.0,0.0,0.0,0.0,0.0,0.0,0.0,0.0,0.0,0.0,0.0,0.0,0.0,0.0,0.0,0.0,0.0,0.0,0.0,0.0,0.0,0.0,0.0,0.0,0.0,0.0,0.0,0.0,0.0,0.0,0.0,0.0,0.0,0.0,0.0,0.0,0.0,0.0,0.0,0.0,0.0,0.0,0.0,0.0,0.0,0.0,0.0,0.0,0.0,0.0,0.0,0.0,0.0,0.0,0.0,0.0,0.0,0.0,0.0,0.0,0.0,0.0,0.0,0.0,0.0,0.0,0.0,0.0,0.0,0.0,0.0,0.0,0.0,0.0,0.0,0.0,0.0,0.0,0.0,0.0,0.0,0.0,0.0,0.0,0.0,0.0,0.0,0.0,0.0,0.0,0.0,0.0,0.0,0.0,0.0,0.0,0.0,0.0,0.0,0.0,0.0,0.0,0.0,0.0,0.0,0.0,0.0,0.0,0.0,0.0,0.0,0.0,0.0,0.0,0.0,0.0,0.0,0.0,0.0,0.0,0.0,0.0,0.0,0.0,0.0,0.0,0.0,0.0,0.0,0.0,0.0,0.0,0.0,0.0,0.0,0.0,0.0,0.0,0.0,0.0,0.0,0.0,0.0,0.0,0.0,0.0,0.0,0.0,0.0,0.0,0.0,0.0,0.0,0.0,0.0,0.0,0.0,0.0,0.0,0.0,0.0,0.0,0.0,0.0,0.0,0.0,0.0,0.0,0.0,0.0,0.0,0.0,0.0,0.0,0.0,0.0,0.0,0.0,0.0,0.0,0.0,0.0,0.0,0.0,0.0,0.0,0.0,0.0,0.0,0.0,0.0,0.0,0.0,0.0,0.0,0.0,0.0,0.0,0.0,0.0,0.0,0.0,0.0,0.0,0.0,0.0,0.0,0.0,0.0,0.0,0.0,0.0,0.0,0.0,0.0,0.0,0.0,0.0,0.0,0.0,0.0,0.0,0.0,0.0,0.0,0.0,0.0,0.0,0.0,0.0,0.0,0.0,0.0,0.0,0.0,0.0,0.0,0.0,0.0,0.0,0.0,0.0,0.0,0.0,0.0,0.0,0.0,0.0,0.0,0.0,0.0,0.0,0.0,0.0,0.0,0.0,0.0,0.0,0.0,0.0,0.0,0.0,0.0,0.0,0.0,0.0,0.0,0.0,0.0,0.0,0.0,0.0,0.0,0.0,0.0,0.0,0.0,0.0,0.0,0.0,0.0,0.0,0.0,0.0,0.0,0.0,0.0,0.0,0.0,0.0,0.0,0.0,0.0,0.0,0.0,0.0,0.0,0.0,0.0,0.0,0.0,0.0,0.0,0.0,0.0,0.0,0.0,0.0,0.0,0.0,0.0,0.0,0.0,0.0,0.0,0.0,0.0,0.0,0.0,0.0,0.0,0.0,0.0,0.0,0.0,0.0,0.0,0.0,0.0,0.0,0.0,0.0,0.0,0.0,0.0,0.0,0.0,0.0,0.0,0.0,0.0,0.0,0.0,0.0,0.0,0.0,0.0,0.0,0.0,0.0,0.0,0.0,0.0,0.0,0.0,0.0,0.0,0.0,0.0,0.0,0.0,0.0,0.0,0.0,0.0,0.0,0.0,0.0,0.0,0.0,0.0,0.0,0.0,0.0,0.0,0.0,0.0,0.0,0.0,0.0,0.0,0.0,0.0,0.0,0.0,0.0,0.0,0.0,0.0,0.0,0.0,0.0,0.0,0.0,0.0,0.0,0.0,0.0,0.0,0.0,0.0,0.0,0.0,0.0,0.0,0.0,0.0,0.0,0.0,0.0,0.0,0.0,0.0,0.0,0.0,0.0,0.0,0.0,0.0,0.0,0.0,0.0,0.0,0.0,0.0,0.0,0.0,0.0,0.0,0.0,0.0,0.0,0.0,0.0,0.0,0.0,0.0,0.0,0.0,0.0,0.0,0.0,0.0,0.0,0.0,0.0,0.0,0.0,0.0,0.0,0.0,0.0,0.0,0.0,0.0,0.0,0.0,0.0,0.0,0.0,0.0,0.0,0.0,0.0,0.0,0.0,0.0,0.0,0.0,0.0,0.0,0.0,0.0,0.0,0.0,0.0,0.0,0.0,0.0,0.0,0.0,0.0,0.0,0.0,0.0,0.0,0.0,0.0,0.0,0.0,0.0,0.0,0.0,0.0,0.0,0.0,0.0,0.0,0.0,0.0,0.0,0.0,0.0,0.0,0.0,0.0,0.0,0.0,0.0,0.0,0.0,0.0,0.0,0.0,0.0,0.0,0.0,0.0,0.0,0.0,0.0,0.0,0.0,0.0,0.0,0.0,0.0,0.0,0.0,0.0,0.0,0.0,0.0,0.0,0.0,0.0,0.0,0.0,0.0,0.0,0.0,0.0,0.0,0.0,0.0,0.0,0.0,0.0,0.0,0.0,0.0,0.0,0.0,0.0,0.0,0.0,0.0,0.0,0.0,0.0,0.0,0.0,0.0,0.0,0.0,0.0,0.0,0.0,0.0,0.0,0.0,0.0,0.0,0.0,0.0,0.0,0.0,0.0,0.0,0.0,0.0,0.0,0.0,0.0,0.0,0.0,0.0,0.0,0.0,0.0,0.0,0.0,0.0,0.0,0.0,0.0,0.0,0.0,0.0,0.0,0.0,0.0,0.0,0.0,0.0,0.0,0.0,0.0,0.0,0.0,0.0,0.0,0.0,0.0,0.0,0.0,0.0,0.0,0.0,0.0,0.0,0.0,0.0,0.0,0.0,0.0,0.0,0.0,0.0,0.0,0.0,0.0,0.0,0.0,0.0,0.0,0.0,0.0,0.0,0.0,0.0,0.0,0.0,0.0,0.0,0.0,0.0,0.0,0.0,0.0,0.0,0.0,0.0,0.0,0.0,0.0,0.0,0.0,0.0,0.0,0.0,0.0,0.0,0.0,0.0,0.0,0.0,0.0,0.0,0.0,0.0,0.0,0.0,0.0,0.0,0.0,0.0,0.0,0.0,0.0,0.0,0.0,0.0,0.0,0.0,0.0,0.0,0.0,0.0,0.0,0.0,0.0,0.0,0.0,0.0,0.0,0.0,0.0,0.0,0.0,0.0,0.0,0.0,0.0,0.0,0.0,0.0,0.0,0.0,0.0,0.0,0.0,0.0,0.0,0.0,0.0,0.0,0.0,0.0,0.0,0.0,0.0,0.0,0.0,0.0,0.0,0.0,0.0,0.0,0.0,0.0,0.0,0.0,0.0,0.0,0.0,0.0,0.0,0.0,0.0,0.0,0.0,0.0,0.0,0.0,0.0,0.0,0.0,0.0,0.0,0.0,0.0,0.0,0.0,0.0,0.0,0.0,0.0,0.0,0.0,0.0,0.0,0.0,0.0,0.0,0.0,0.0,0.0,0.0,0.0,0.0,0.0,0.0,0.0,0.0,0.0,0.0,0.0,0.0,0.0,0.0,0.0,0.0,0.0,0.0,0.0,0.0,0.0,0.0,0.0,0.0,0.0,0.0,0.0,0.0,0.0,0.0,0.0,0.0,0.0,0.0,0.0,0.0,0.0,0.0,0.0,0.0,0.0,0.0,0.0,0.0,0.0,0.0,0.0,0.0,0.0,0.0,0.0,0.0,0.0,0.0,0.0,0.0,0.0,0.0,0.0,0.0,0.0,0.0,0.0,0.0,0.0,0.0,0.0,0.0,0.0,0.0,0.0,0.0,0.0,0.0,0.0,0.0,0.0,0.0,0.0,0.0,0.0,0.0,0.0,0.0,0.0,0.0,0.0,0.0,0.0,0.0,0.0,0.0,0.0,0.0,0.0,0.0,0.0,0.0,0.0,0.0,0.0,0.0,0.0,0.0,0.0,0.0,0.0,0.0,0.0,0.0,0.0,0.0,0.0,0.0,0.0,0.0,0.0,0.0,0.0,0.0,0.0,0.0,0.0,0.0,0.0,0.0,0.0,0.0,0.0,0.0,0.0,0.0,0.0,0.0,0.0,0.0,0.0,0.0,0.0,0.0,0.0,0.0,0.0,0.0,0.0,0.0,0.0,0.0,0.0,0.0,0.0,0.0,0.0,0.0,0.0,0.0,0.0,0.0,0.0,0.0,0.0,0.0,0.0,0.0,0.0,0.0,0.0,0.0,0.0,0.0,0.0,0.0,0.0,0.0,0.0,0.0,0.0,0.0,0.0,0.0,0.0,0.0,0.0,0.0,0.0,0.0,0.0,0.0,0.0,0.0,0.0,0.0,0.0,0.0,0.0,0.0,0.0,0.0,0.0,0.0,0.0,0.0,0.0,0.0,0.0,0.0,0.0,0.0,0.0,0.0,0.0,0.0,0.0,0.0,0.0,0.0,0.0,0.0,0.0,0.0,0.0,0.0,0.0,0.0,0.0,-3.0085,-2.9984,0.0,0.0,0.0,0.0,0.0,0.0,0.0,0.0,0.0,0.0,0.0,0.0,0.0,0.0,0.0,0.0,0.0,0.0,0.0,0.0,0.0,0.0,0.0,0.0,0.0,0.0,0.0,0.0,0.0,0.0,0.0,0.0,0.0,0.0,0.0,0.0,0.0,0.0,0.0,0.0,0.0,0.0,0.0,0.0,0.0,0.0,0.0,0.0,0.0,0.0,0.0,0.0,0.0,0.0,0.0,0.0,0.0,0.0,0.0,0.0,0.0,0.0,0.0,0.0,0.0,0.0,0.0,0.0,0.0,0.0,0.0,0.0,0.0,0.0,0.0,0.0,0.0,0.0,0.0,0.0,0.0,0.0,0.0,0.0,0.0,0.0,0.0,0.0,0.0,0.0,0.0,0.0,0.0,0.0,0.0,0.0,0.0,0.0,0.0,0.0,0.0,0.0,0.0,0.0,0.0,0.0,0.0,0.0,0.0,0.0,0.0,0.0,0.0,0.0,-3.0386,-3.0291,0.0,0.0,0.0,0.0,0.0,0.0,0.0,0.0,0.0,0.0,0.0,0.0,0.0,0.0,0.0,0.0,0.0,0.0,0.0,0.0,0.0,0.0,0.0,0.0,0.0,0.0,0.0,0.0,0.0,0.0,0.0,0.0,0.0,0.0,0.0,0.0,0.0,0.0,0.0,0.0,0.0,0.0,0.0,0.0,0.0,0.0,0.0,0.0,0.0,0.0,0.0,0.0,0.0,0.0,0.0,0.0,0.0,0.0,0.0,0.0,0.0,0.0,0.0,0.0,0.0,0.0,0.0,0.0,0.0,0.0,0.0,0.0,0.0,0.0,0.0,0.0,0.0,0.0,0.0,0.0,0.0,0.0,0.0,0.0,0.0,0.0,0.0,0.0,0.0,0.0,0.0,0.0,0.0,0.0,0.0,0.0,0.0,0.0,0.0,0.0,0.0,0.0,0.0,0.0,0.0,0.0,0.0,0.0,-3.0604,-3.0609,-3.0614,-3.0621,-3.0633,-3.0652,-3.0656,-3.0623,-3.0604,-3.0604,0.0,0.0,0.0,0.0,0.0,0.0,0.0,0.0,0.0,0.0,0.0,0.0,0.0,0.0,0.0,0.0,0.0,0.0,0.0,0.0,0.0,0.0,0.0,0.0,0.0,0.0,0.0,0.0,0.0,0.0,0.0,0.0,0.0,0.0,0.0,0.0,0.0,0.0,-2.7378,-2.7765,-2.8102,-2.8368,-2.8749,0.0,0.0,0.0,0.0,0.0,0.0,0.0,0.0,0.0,0.0,0.0,0.0,0.0,0.0,0.0,0.0,0.0,0.0,0.0,0.0,0.0,0.0,0.0,0.0,0.0,0.0,0.0,0.0,0.0,0.0,0.0,0.0,0.0,0.0,0.0,0.0,0.0,0.0,0.0,0.0,0.0,0.0,0.0,-2.8039,-2.8603,0.0,0.0,0.0,0.0,0.0,0.0,0.0,0.0,0.0,0.0,0.0,0.0,0.0,-3.0557,-3.0547,-3.0581,-3.0607,-3.0607,-3.0607,-3.0632,-3.0679,-3.0687,-3.0752,-3.0859,-3.0853,0.0,-3.0607,-3.0607,0.0,0.0,0.0,0.0,0.0,0.0,0.0,0.0,0.0,0.0,0.0,0.0,0.0,0.0,0.0,0.0,0.0,0.0,0.0,0.0,0.0,0.0,0.0,0.0,0.0,0.0,0.0,0.0,0.0,0.0,0.0,0.0,0.0,0.0,0.0,0.0,-2.7115,-2.7426,-2.7666,-2.802,-2.8386,-2.8749,-2.8929,-2.8994,-2.8994,-2.8815,0.0,0.0,0.0,0.0,0.0,0.0,0.0,0.0,0.0,0.0,0.0,0.0,0.0,0.0,0.0,0.0,0.0,0.0,0.0,0.0,0.0,0.0,0.0,0.0,0.0,0.0,0.0,0.0,0.0,0.0,0.0,0.0,0.0,0.0,0.0,0.0,0.0,0.0,0.0,-2.8076,-2.8542,-2.886,-2.8948,-2.9034,0.0,0.0,0.0,0.0,0.0,0.0,0.0,0.0,0.0,-3.0374,-3.0554,-3.067,-3.0665,-3.0721,-3.0777,-3.0777,-3.0777,-3.0778,-3.0808,-3.0808,-3.0837,-3.0894,-3.0894,-3.0855,-3.0777,-3.0777,-3.0718,-3.0657,0.0,0.0,0.0,0.0,-3.0627,-3.066,0.0,0.0,0.0,0.0,0.0,0.0,0.0,0.0,0.0,0.0,0.0,0.0,0.0,0.0,0.0,-2.6708,0.0,0.0,0.0,0.0,0.0,0.0,0.0,0.0,0.0,0.0,0.0,-2.6691,-2.7115,-2.7439,-2.7736,-2.8102,-2.8489,-2.8839,-2.8839,-2.8887,-2.8994,-2.8905,-2.8905,0.0,0.0,0.0,0.0,0.0,0.0,0.0,0.0,0.0,0.0,0.0,0.0,0.0,0.0,0.0,0.0,0.0,0.0,0.0,0.0,0.0,0.0,0.0,0.0,0.0,0.0,0.0,0.0,0.0,0.0,0.0,0.0,0.0,0.0,0.0,0.0,0.0,0.0,-2.8517,-2.9005,-2.9163,-2.9373,-2.9415,0.0,0.0,0.0,0.0,0.0,0.0,-3.0114,-3.0297,-3.0452,-3.0552,-3.0685,-3.075,-3.075,-3.0849,-3.0898,-3.0898,-3.0898,-3.0898,-3.0898,-3.0898,-3.0898,-3.0898,-3.0898,-3.0898,-3.0898,-3.0898,-3.084,-3.0742,-3.0742,-3.0712,-3.0676,-3.0676,-3.0704,-3.075,0.0,0.0,0.0,0.0,0.0,0.0,0.0,0.0,0.0,0.0,0.0,0.0,0.0,0.0,-2.7469,-2.6759,-2.6691,-2.6691,0.0,0.0,0.0,0.0,0.0,0.0,0.0,0.0,0.0,-2.6691,-2.7115,-2.7303,-2.7317,-2.7754,-2.8102,-2.842,-2.842,-2.8633,-2.8975,-2.859,-2.8658,-2.897,0.0,0.0,0.0,0.0,0.0,0.0,0.0,0.0,0.0,0.0,0.0,0.0,0.0,0.0,0.0,0.0,0.0,0.0,0.0,0.0,0.0,0.0,0.0,0.0,0.0,0.0,0.0,0.0,0.0,0.0,0.0,0.0,0.0,0.0,0.0,0.0,0.0,0.0,0.0,-2.9643,-2.9678,0.0,0.0,0.0,0.0,-2.9954,-3.011,-3.0261,-3.0463,-3.0597,-3.0686,-3.0679,-3.0828,-3.0897,-3.0897,-3.0898,-3.0898,-3.0898,-3.0898,-3.0898,-3.0898,-3.0898,-3.0898,-3.0898,-3.0898,-3.0898,-3.0898,-3.0898,-3.0898,-3.0898,-3.0898,-3.0898,-3.0879,-3.0879,-3.0898,-3.0897,0.0,0.0,0.0,0.0,0.0,0.0,0.0,0.0,0.0,0.0,0.0,0.0,0.0,-2.796,-2.7671,-2.7452,-2.6962,-2.6691,-2.6691,0.0,0.0,0.0,0.0,0.0,0.0,0.0,-2.6691,-2.6691,-2.6841,-2.7178,-2.7678,-2.784,-2.8228,-2.8791,-2.8791,-2.8863,-2.8994,-2.8839,-2.8863,-2.8994,-2.8839,-2.8863,0.0,0.0,0.0,0.0,0.0,0.0,0.0,0.0,0.0,0.0,0.0,0.0,0.0,0.0,0.0,0.0,0.0,0.0,0.0,0.0,0.0,0.0,0.0,0.0,0.0,0.0,0.0,0.0,0.0,0.0,0.0,0.0,0.0,0.0,0.0,0.0,0.0,-2.9513,-2.9748,0.0,-2.9813,-2.9861,-2.9965,-3.0125,-3.0333,-3.0498,-3.0552,-3.0734,-3.0795,-3.0691,-3.0821,-3.0898,-3.0898,-3.0898,-3.0898,-3.0898,-3.0898,-3.0898,-3.0898,-3.0898,-3.0898,-3.0898,-3.0898,-3.0898,-3.0898,-3.0898,-3.0898,-3.0898,-3.0898,-3.0898,-3.0898,-3.0898,-3.0898,-3.0898,0.0,0.0,0.0,0.0,0.0,0.0,0.0,0.0,0.0,0.0,0.0,-3.0091,-2.9093,-2.8518,-2.8112,-2.7806,-2.7131,-2.6691,-2.6691,0.0,0.0,0.0,0.0,0.0,0.0,-2.6691,-2.6691,-2.6691,-2.6691,-2.7019,-2.7678,-2.7678,-2.8075,-2.8797,-2.8797,-2.8863,-2.8994,-2.8994,-2.8994,-2.8994,-2.8994,-2.8994,-2.8994,0.0,0.0,0.0,0.0,0.0,0.0,0.0,0.0,0.0,0.0,0.0,0.0,0.0,0.0,0.0,0.0,0.0,0.0,0.0,0.0,0.0,0.0,0.0,0.0,0.0,0.0,0.0,0.0,0.0,0.0,0.0,0.0,0.0,0.0,-2.9092,-2.957,-2.9513,-2.9796,-2.9984,-2.9927,-3.0066,-3.0161,-3.0266,-3.0456,-3.0559,-3.0568,-3.0743,-3.0782,-3.07,-3.0833,-3.0898,-3.0898,-3.0898,-3.0898,-3.0898,-3.0898,-3.0898,-3.0898,-3.0898,-3.0898,-3.0898,-3.0898,-3.0871,-3.0829,-3.0875,-3.0857,-3.0808,-3.0878,-3.0898,-3.0898,-3.0898,-3.0898,-3.0898,0.0,0.0,0.0,0.0,0.0,0.0,0.0,0.0,0.0,0.0,-3.0386,-3.0649,-2.9194,-2.9025,-2.8704,-2.7926,-2.7165,-2.6725,-2.6691,-2.6691,0.0,0.0,0.0,0.0,-2.6691,-2.6691,-2.6691,-2.6691,-2.6691,-2.6906,-2.7303,-2.7303,-2.7689,-2.8376,-2.8376,-2.859,-2.897,-2.8994,-2.8994,-2.8994,-2.8994,-2.8994,-2.8994,0.0,0.0,0.0,0.0,0.0,0.0,0.0,0.0,0.0,0.0,0.0,0.0,0.0,0.0,0.0,0.0,0.0,0.0,0.0,0.0,0.0,0.0,0.0,0.0,0.0,0.0,0.0,0.0,0.0,0.0,0.0,0.0,0.0,-2.8471,-2.8993,-2.9455,-2.9678,-2.9877,-3.0122,-3.0367,-3.0398,-3.0398,-3.0398,-3.0453,-3.0502,-3.0502,-3.0629,-3.0703,-3.0703,-3.082,-3.0898,-3.0898,-3.0898,-3.0898,-3.0898,-3.0898,-3.0898,-3.0898,-3.0898,-3.0898,-3.0898,-3.0898,-3.0828,-3.0698,-3.0837,-3.078,-3.0617,-3.0811,-3.0898,-3.0898,-3.0898,-3.0898,-3.0898,0.0,0.0,0.0,0.0,0.0,0.0,0.0,0.0,0.0,0.0,-3.0704,-3.1038,-3.0632,-3.0108,-2.9499,-2.8738,-2.796,-2.7283,-2.6725,0.0,0.0,0.0,0.0,0.0,-2.6691,-2.6691,-2.6691,-2.6691,-2.6691,-2.6906,-2.7303,-2.7303,-2.756,-2.802,-2.802,-2.8093,-2.8228,-2.8464,-2.8565,-2.859,-2.8887,-2.8994,-2.9049,0.0,0.0,0.0,0.0,0.0,0.0,0.0,0.0,0.0,0.0,0.0,0.0,0.0,0.0,0.0,0.0,0.0,0.0,0.0,0.0,0.0,0.0,0.0,0.0,0.0,0.0,0.0,0.0,0.0,0.0,0.0,-2.8815,-2.8952,-2.8839,-2.9163,-2.9455,-2.9678,-2.9877,-3.0122,-3.0367,-3.0398,-3.0417,-3.0467,-3.0494,-3.0527,-3.0565,-3.0598,-3.0645,-3.0703,-3.0696,-3.0752,-3.0898,-3.0801,-3.0801,-3.0898,-3.0898,-3.0849,-3.0748,-3.0748,-3.0729,-3.0681,-3.0681,-3.0656,-3.0622,-3.0668,-3.0649,-3.0617,-3.0811,-3.084,-3.0762,-3.0859,-3.0898,-3.0898,0.0,0.0,0.0,0.0,0.0,0.0,0.0,0.0,0.0,0.0,-3.0838,-3.119,-3.119,-3.0548,-2.9939,-2.9499,-2.845,-2.7638,-2.7199,0.0,0.0,0.0,0.0,-2.6691,-2.6691,-2.6691,-2.6691,-2.6691,-2.6691,-2.6906,-2.7303,-2.7303,-2.75,-2.7897,-2.7897,-2.7897,-2.7926,-2.8102,-2.8362,-2.8667,-2.8899,-2.9191,-2.958,-3.0221,-3.0462,-3.0527,-3.1129,-3.1373,-3.1397,-3.1689,0.0,0.0,0.0,0.0,0.0,0.0,0.0,0.0,0.0,0.0,0.0,0.0,0.0,0.0,0.0,0.0,0.0,0.0,0.0,0.0,0.0,0.0,0.0,0.0,-2.8839,-2.8994,-2.8994,-2.9225,-2.9455,-2.9678,-2.9877,-3.0122,-3.0367,-3.0398,-3.0417,-3.0467,-3.0467,-3.0487,-3.0506,-3.0544,-3.0579,-3.0614,-3.0617,-3.0656,-3.0774,-3.0703,-3.0701,-3.076,-3.076,-3.074,-3.0656,-3.0659,-3.0634,-3.0602,-3.0602,-3.0582,-3.0554,-3.0593,-3.0567,-3.0532,0.0,0.0,0.0,0.0,-3.0859,-3.0898,0.0,0.0,0.0,0.0,0.0,0.0,0.0,0.0,0.0,0.0,0.0,-3.119,-3.119,-3.0615,-3.0192,-3.0125,-2.8716,-2.7752,0.0,0.0,0.0,-2.6691,-2.6691,-2.6691,-2.6691,-2.6691,-2.6691,-2.6691,-2.6691,-2.6873,-2.7241,-2.7241,-2.7409,-2.7765,-2.7765,-2.7818,-2.7906,-2.7935,-2.8376,-2.9082,-2.92,-2.9617,-3.0221,-3.0703,-3.0851,-3.0901,-3.1302,-3.1441,-3.1547,-3.2221,0.0,0.0,0.0,0.0,0.0,0.0,0.0,0.0,0.0,0.0,0.0,0.0,0.0,0.0,0.0,0.0,0.0,0.0,0.0,0.0,0.0,0.0,0.0,0.0,-2.8994,-2.8994,-2.8994,-2.9225,-2.9474,-2.9643,-2.9845,-3.0061,-3.0323,-3.0379,-3.0398,-3.0398,-3.0398,-3.0398,-3.0398,-3.0467,0.0,0.0,0.0,-3.0591,-3.0602,-3.0582,-3.0594,-3.0594,-3.0594,-3.0594,-3.0587,-3.0588,-3.0583,-3.0583,-3.0583,-3.0544,-3.0487,-3.0544,-3.0506,-3.0398,-3.0544,-3.0579,-3.0613,-3.0667,-3.076,-3.0878,0.0,0.0,0.0,0.0,0.0,0.0,0.0,0.0,0.0,-3.1055,-3.1151,-3.119,-3.119,-3.1072,-3.0751,-3.0159,-2.8891,-2.7616,0.0,0.0,-2.7334,-2.6725,-2.6691,-2.6691,-2.6691,-2.6691,-2.6691,-2.6691,-2.6691,-2.6758,-2.6825,-2.6825,-2.6873,-2.6939,-2.6939,-2.7247,-2.7844,-2.8157,-2.8719,-2.9482,-3.0451,-3.0548,-3.0208,-3.0929,-3.1182,-3.1288,-3.2004,-3.2254,-3.2239,-3.2004,-3.1933,-3.1897,-3.1545,-3.1389,0.0,0.0,0.0,0.0,0.0,0.0,0.0,0.0,0.0,0.0,0.0,0.0,0.0,0.0,0.0,0.0,0.0,0.0,0.0,-2.8994,-2.8994,-2.8994,-2.8994,-2.9225,-2.9414,-2.9454,-2.9644,-2.9829,-3.0061,-3.0267,-3.0398,-3.0398,-3.0398,-3.0398,-3.0398,-3.0398,-3.0448,-3.0506,-3.0466,-3.0486,-3.0602,-3.0543,-3.0546,-3.0614,-3.0614,0.0,-3.0527,-3.051,-3.0487,-3.0448,-3.0448,-3.0417,-3.0417,-3.0417,-3.0417,-3.0398,-3.0487,-3.056,-3.0607,-3.0613,-3.0643,-3.0681,0.0,0.0,0.0,0.0,0.0,0.0,0.0,0.0,0.0,0.0,-3.0293,-3.0293,-3.0293,-3.0293,-3.0161,-2.9757,-2.909,0.0,0.0,-2.7911,-2.8061,-2.7283,-2.7249,-2.708,-2.6708,-2.6691,-2.6691,-2.6691,-2.6691,-2.6691,-2.6708,-2.708,-2.7249,-2.7283,-2.7655,-2.8044,-2.8399,-2.8629,-2.9126,-2.9845,-3.0437,-3.0698,-3.0733,-3.1324,-3.1549,-3.1567,-3.1775,-3.186,-3.1823,-3.1582,-3.1507,-3.147,-3.1252,-3.119,-3.119,0.0,0.0,0.0,0.0,0.0,0.0,0.0,0.0,0.0,0.0,0.0,0.0,0.0,0.0,-3.0597,-3.0772,0.0,-3.0081,-2.9677,-2.9604,-2.9475,-2.9049,-2.9112,-2.9246,-2.9392,-2.957,-2.9748,-2.9845,-3.0047,-3.0196,-3.0196,-3.0323,-3.0398,-3.0398,-3.0398,-3.0417,-3.0448,-3.0417,-3.0417,-3.0506,-3.0467,-3.0467,-3.0506,-3.0506,-3.0487,-3.0448,-3.0448,-3.0417,-3.0398,-3.0398,-3.0398,-3.0398,-3.0398,-3.0398,-3.0398,-3.0448,-3.0487,-3.0537,-3.055,-3.0576,-3.0613,0.0,0.0,0.0,0.0,0.0,0.0,0.0,0.0,0.0,0.0,-2.9496,-2.9406,-2.9406,-2.9406,-2.9297,0.0,0.0,0.0,0.0,-2.8439,-2.8511,-2.7721,-2.7688,-2.7439,-2.6993,-2.6976,-2.7028,-2.7131,-2.7131,-2.7131,-2.7148,-2.7774,-2.8044,-2.8078,-2.8704,-2.9059,-2.9194,-2.9194,-2.9634,-3.0311,-3.0311,-3.0666,-3.123,-3.1565,-3.1696,-3.1623,-3.1329,-3.119,-3.119,-3.119,-3.119,-3.119,-3.119,-3.119,-3.119,-3.119,-3.119,0.0,0.0,0.0,0.0,0.0,0.0,0.0,0.0,-3.0209,-3.0174,-3.0547,-3.0903,-3.1202,-3.1469,-3.1444,-3.1182,-3.054,-3.043,-3.021,-2.9567,-2.9475,-2.9471,-2.9548,-2.9607,-2.9643,-2.9643,-2.9829,-2.9939,-2.9939,-3.0155,-3.0273,-3.0273,-3.0273,-3.0286,-3.0311,-3.0323,-3.0355,-3.0398,-3.0398,-3.0398,-3.0398,-3.0398,-3.0398,-3.0398,-3.0398,-3.0398,-3.0398,-3.0398,-3.0398,-3.0398,-3.0398,-3.0398,-3.0398,-3.0398,-3.0417,-3.0487,-3.0487,-3.0506,-3.0564,0.0,0.0,0.0,0.0,0.0,0.0,0.0,0.0,0.0,0.0,0.0,0.0,0.0,0.0,0.0,0.0,0.0,0.0,-2.672,-2.7715,-2.8046,-2.7313,-2.7281,-2.7494,-2.7943,-2.7943,-2.8189,-2.8757,-2.8757,-2.8757,-2.8721,-2.8822,-2.8856,-2.8856,-2.8941,-2.9347,-2.9989,-2.9989,-3.0395,-3.1072,-3.1072,-3.1123,-3.119,-3.1252,-3.1252,-3.1252,-3.123,-3.119,-3.119,-3.119,-3.119,-3.119,-3.119,-3.119,-3.119,-3.119,-3.119,-3.119,-3.119,-3.119,-3.119,-3.119,-3.114,-3.1172,0.0,-3.1598,-3.1672,-3.2153,-3.2054,-3.1885,-3.1913,-3.1636,-3.1366,-3.1274,-3.1256,-3.1219,-3.1127,-3.1127,-3.0895,-3.0202,-2.9715,-2.9434,-2.9434,-2.9626,-2.9729,-2.9729,-2.9765,-2.9782,-2.9782,-2.9782,-2.9864,-3.0047,-3.0042,-3.015,-3.0398,-3.0398,-3.0398,-3.0398,-3.0398,-3.0398,-3.0398,-3.0398,-3.0398,-3.0398,-3.0398,-3.0398,-3.0398,-3.0398,-3.0398,-3.0398,-3.0398,-3.0398,-3.0398,-3.0398,-3.0417,-3.0417,0.0,0.0,0.0,0.0,0.0,0.0,0.0,0.0,0.0,0.0,0.0,0.0,0.0,0.0,0.0,0.0,0.0,0.0,-2.7705,-2.8458,-2.8594,-2.7865,-2.7833,-2.7769,-2.7574,-2.7938,-2.8229,-2.8477,-2.8811,-2.9011,-2.8991,-2.9431,-2.9634,-2.9651,-3.0074,-3.0446,-3.0734,-3.0734,-3.092,-3.119,-3.119,-3.119,-3.119,-3.119,-3.119,-3.119,-3.119,-3.119,0.0,-3.119,-3.119,-3.119,-3.119,-3.119,-3.119,-3.119,-3.119,-3.119,-3.119,-3.119,-3.119,-3.119,-3.119,-3.1252,-3.1411,-3.1623,-3.1915,-3.2417,-3.259,-3.2755,-3.3002,-3.2893,-3.2632,-3.2173,-3.21,-3.1935,-3.1458,-3.1384,-3.1274,-3.0944,-3.0696,-3.0194,-2.927,-2.9375,-2.9532,-2.9532,-2.9625,-2.9696,-2.9696,-2.9813,-2.9924,-2.9999,-3.015,-3.0299,-3.0398,-3.0398,-3.0398,-3.0398,-3.0398,-3.0398,-3.0398,-3.0398,-3.0398,-3.0398,-3.0398,-3.0398,-3.0398,-3.0398,-3.0398,-3.0398,-3.0398,-3.0398,-3.0398,-3.0398,-3.0398,-3.0398,0.0,0.0,0.0,0.0,0.0,0.0,0.0,0.0,0.0,0.0,0.0,0.0,0.0,0.0,0.0,0.0,0.0,0.0,0.0,-2.8685,-2.8683,-2.8119,-2.8104,-2.7913,-2.7573,-2.7987,-2.8281,-2.8445,-2.9076,-2.9379,-2.9379,-3.0065,-3.0412,-3.0429,-3.0954,-3.119,-3.119,-3.119,-3.119,-3.119,-3.119,-3.119,-3.119,-3.119,-3.119,-3.119,-3.119,-3.119,-3.119,-3.119,-3.119,-3.119,-3.119,-3.119,-3.119,-3.119,-3.119,-3.119,-3.119,-3.119,-3.119,-3.119,-3.119,-3.119,-3.119,-3.1411,-3.1733,-3.2092,-3.2517,-3.2934,-3.3343,-3.355,-3.3479,-3.301,-3.2944,-3.2742,-3.2137,-3.2045,-3.1971,-3.1751,-3.1733,-3.1182,-2.9806,-2.9824,-2.9956,-2.9956,-3.0088,-3.0169,-3.0169,-3.032,-3.0425,-3.0476,-3.0464,-3.0472,-3.0546,-3.0316,-3.0202,-3.0202,-3.0202,-3.0228,-3.0299,-3.0367,-3.0355,-3.0279,-3.0367,-3.0398,-3.0398,-3.0398,-3.0398,-3.0398,-3.0398,-3.0398,-3.0398,-3.0398,-3.0398,-3.0398,0.0,0.0,0.0,0.0,0.0,0.0,0.0,0.0,0.0,0.0,0.0,0.0,0.0,0.0,0.0,0.0,0.0,0.0,0.0,-2.761,-2.766,-2.763,-2.763,-2.7864,-2.8449,-2.8497,-2.8763,-2.9342,-2.9956,-3.0269,-3.0269,-3.0885,-3.1157,-3.1157,-3.119,-3.119,-3.119,-3.119,-3.119,-3.119,-3.119,-3.119,-3.119,-3.119,-3.119,-3.119,-3.119,0.0,-3.119,-3.119,-3.119,-3.119,-3.119,-3.119,-3.119,-3.119,-3.119,-3.119,-3.119,-3.119,-3.119,-3.119,-3.119,-3.119,-3.119,-3.119,-3.123,-3.123,-3.1582,-3.2004,-3.2451,-3.2921,-3.3332,-3.3698,-3.3752,-3.3752,-3.3733,-3.3733,-3.344,-3.2669,-3.2577,-3.2247,-3.1403,-3.1336,-3.1336,-3.1336,-3.1336,-3.1336,-3.1336,-3.136,-3.1486,-3.1741,-3.0998,-3.0692,-3.0865,-3.011,-2.9731,-2.9731,-2.9731,-2.9813,-3.0013,-3.0267,-3.0254,-3.0028,-3.0299,-3.0398,-3.0398,-3.0398,-3.0398,-3.0398,-3.0398,-3.0398,-3.0398,-3.0398,-3.0398,-3.0398,0.0,0.0,0.0,0.0,0.0,0.0,0.0,0.0,0.0,0.0,0.0,0.0,0.0,0.0,0.0,0.0,0.0,0.0,0.0,-2.7625,-2.7625,-2.7625,-2.7625,-2.771,-2.791,-2.8286,-2.8606,-2.8779,-2.9406,-2.9717,-2.9717,-2.9892,-2.9995,-3.0021,-3.0435,-3.0601,-3.0617,-3.1015,-3.119,-3.119,-3.119,-3.119,-3.119,-3.119,-3.119,-3.119,0.0,0.0,-3.119,-3.119,-3.119,-3.119,-3.119,-3.119,-3.119,-3.119,-3.119,-3.119,-3.119,-3.119,-3.119,-3.119,-3.119,-3.119,-3.119,-3.119,-3.1291,-3.1528,-3.1696,-3.1951,-3.2417,-3.2616,-3.2777,-3.2903,-3.3196,-3.339,-3.339,-3.3634,-3.3697,-3.344,-3.3403,-3.3293,-3.3018,-3.2027,-3.1384,-3.1384,-3.1384,-3.1384,-3.1384,-3.156,-3.1723,-3.1793,-3.1665,-3.1617,-3.1714,-3.1431,-3.1299,-3.1299,-3.1299,-3.1317,-3.1407,-3.1495,-3.1478,-3.1407,-3.1495,-3.1324,-3.1002,-3.1002,-3.0759,-3.0398,-3.0398,-3.0398,-3.0398,-3.0398,-3.0398,-3.0398,0.0,0.0,0.0,0.0,0.0,0.0,0.0,0.0,0.0,0.0,0.0,0.0,0.0,0.0,0.0,0.0,0.0,-2.7625,0.0,0.0,-2.7625,-2.7625,-2.7625,-2.7625,-2.7625,-2.7993,-2.8189,-2.8189,-2.8779,-2.9088,-2.9088,-2.9316,-2.9406,-2.9406,-2.9805,-2.9978,-2.9978,-3.0393,-3.0699,-3.0878,-3.0878,-3.1015,-3.119,-3.119,-3.119,0.0,0.0,0.0,-3.0918,-3.1151,-3.119,-3.119,-3.119,-3.119,-3.119,-3.119,-3.119,-3.119,-3.119,-3.119,-3.119,-3.119,-3.119,-3.119,-3.119,-3.119,-3.1252,-3.1528,-3.1603,-3.1733,-3.2179,-3.223,-3.2298,-3.2484,-3.2745,-3.2952,-3.2952,-3.3166,-3.3361,-3.3361,-3.3361,-3.3361,-3.3361,-3.2547,-3.2099,-3.2247,-3.2247,-3.2247,-3.2247,-3.2428,-3.2506,-3.2506,-3.2352,-3.2272,-3.2272,-3.1995,-3.1846,-3.1846,-3.195,-3.1929,-3.1846,-3.2012,-3.207,-3.1991,-3.207,-3.1901,-3.1588,-3.1588,-3.1409,-3.1117,-3.0829,-3.0791,-3.0833,-3.0513,-3.0398,-3.0398,0.0,0.0,0.0,0.0,0.0,0.0,0.0,0.0,0.0,0.0,0.0,0.0,0.0,0.0,0.0,0.0,0.0,0.0,0.0,0.0,0.0,-2.7625,-2.7625,-2.7625,-2.7625,-2.7625,-2.7625,-2.7625,-2.8189,-2.8463,-2.8463,-2.9042,-2.9316,-2.9316,-2.9361,-2.9361,-2.9361,-2.9406,-2.9717,-3.0251,-3.0251,-3.0617,-3.1112,-3.1112,0.0,0.0,0.0,-3.0757,-3.0393,-3.1015,-3.119,-3.119,-3.119,-3.119,-3.119,-3.119,-3.119,-3.119,-3.119,-3.119,-3.119,-3.119,-3.119,-3.119,-3.119,-3.119,-3.119,-3.119,-3.119,-3.1329,-3.1696,-3.1789,-3.1933,-3.235,-3.2451,-3.2451,-3.2451,-3.2484,-3.2484,-3.2484,-3.2517,-3.255,-3.255,-3.2952,-3.339,-3.3762,-3.3807,-3.3807,-3.3807,-3.3807,-3.3807,-3.3807,-3.3073,-3.2669,-3.2669,-3.1898,-3.1513,-3.1513,-3.1765,-3.1784,-3.1538,-3.1998,-3.2081,-3.1924,-3.2102,-3.2184,-3.2146,-3.2146,-3.2277,-3.2403,-3.1645,-3.1513,-3.1648,-3.077,-3.0456,-3.0456,0.0,0.0,0.0,0.0,0.0,0.0,0.0,0.0,0.0,0.0,0.0,0.0,0.0,0.0,0.0,0.0,0.0,0.0,0.0,0.0,0.0,0.0,0.0,0.0,-2.7625,-2.7625,-2.7625,-2.7625,-2.776,-2.781,-2.781,-2.7993,-2.8076,-2.8076,-2.8559,-2.8732,-2.8732,-2.9225,-2.9496,-2.9629,0.0,-2.9717,-2.9848,0.0,0.0,0.0,0.0,-3.0038,-3.0393,-3.1015,-3.119,-3.119,-3.119,-3.119,-3.119,-3.119,-3.119,-3.119,-3.119,-3.119,-3.119,-3.119,-3.119,-3.119,-3.119,-3.119,-3.119,-3.119,-3.119,-3.123,-3.1312,-3.1351,-3.1389,-3.1524,-3.177,-3.1986,-3.1986,-3.2282,-3.2484,-3.2484,-3.2809,-3.3014,-3.3014,-3.339,-3.368,-3.3788,-3.3807,-3.3807,-3.3807,-3.3807,-3.3807,-3.3807,-3.3605,-3.3495,-3.3495,-3.3293,-3.3183,-3.3183,-3.3261,-3.3243,-3.3183,-3.3301,-3.3326,-3.3294,-3.3352,-3.3147,-3.2754,-3.2754,-3.2552,-3.2184,-3.1995,-3.206,-3.221,-3.1374,-3.1205,-3.1275,0.0,0.0,0.0,0.0,0.0,0.0,0.0,0.0,0.0,0.0,0.0,0.0,0.0,0.0,0.0,0.0,0.0,0.0,0.0,0.0,0.0,0.0,0.0,0.0,-2.7625,-2.7625,-2.7625,-2.7625,0.0,0.0,-2.7625,-2.7625,-2.7625,-2.761,-2.7944,-2.8091,-2.814,-2.8448,0.0,0.0,0.0,0.0,0.0,0.0,0.0,0.0,-2.954,-2.9805,-3.0293,-3.0393,-3.074,-3.119,-3.119,-3.119,-3.119,-3.119,-3.119,-3.119,-3.119,-3.119,-3.119,-3.119,-3.119,-3.119,-3.119,-3.119,-3.119,-3.119,-3.119,-3.119,-3.119,-3.119,-3.119,-3.119,-3.1389,-3.1545,-3.1545,-3.175,-3.1932,-3.1932,-3.2162,-3.2316,-3.2316,-3.2695,-3.3009,-3.3207,-3.3578,-3.3807,-3.3807,-3.3807,-3.3807,-3.3807,-3.3807,-3.3807,-3.3807,-3.3807,-3.3807,-3.3807,-3.3807,-3.3807,-3.3807,-3.3807,-3.3807,-3.3807,-3.3807,-3.3637,-3.3364,-3.3364,-3.3217,-3.2981,-3.2643,-3.2655,-3.2784,-3.1969,-3.1603,-3.1454,0.0,0.0,0.0,0.0,0.0,0.0,0.0,0.0,0.0,0.0,0.0,0.0,0.0,0.0,0.0,0.0,0.0,0.0,0.0,0.0,0.0,0.0,0.0,-2.7625,-2.7625,-2.7625,-2.7625,-2.7625,-2.7625,0.0,0.0,0.0,0.0,0.0,0.0,0.0,0.0,0.0,0.0,0.0,0.0,0.0,0.0,0.0,0.0,0.0,-2.9271,-2.9629,-2.9978,-2.9451,-3.0123,-3.119,-3.119,-3.119,-3.119,-3.119,-3.119,-3.119,-3.119,-3.119,-3.119,-3.119,-3.119,-3.119,-3.1112,-3.1151,-3.119,-3.1112,-3.1151,-3.119,-3.119,-3.119,-3.119,-3.119,-3.119,-3.119,-3.119,-3.119,-3.119,-3.119,-3.1269,-3.1291,-3.1291,-3.164,-3.2057,-3.2484,-3.3196,-3.368,-3.3788,-3.3807,-3.3807,-3.3807,-3.3807,-3.3807,-3.3807,-3.3807,-3.3807,-3.3807,-3.3807,-3.3807,-3.3807,-3.3807,-3.3807,-3.3807,-3.3807,-3.3807,-3.3807,-3.3807,-3.3954,-3.4073,-3.338,-3.3284,-3.3387,-3.254,-3.1956,-3.1603,0.0,0.0,0.0,0.0,0.0,0.0,0.0,0.0,0.0,0.0,-2.9935,-2.9134,0.0,0.0,0.0,0.0,0.0,0.0,0.0,0.0,0.0,0.0,0.0,-2.7625,-2.7625,-2.7625,-2.7625,-2.7625,-2.7625,-2.7625,0.0,0.0,0.0,0.0,0.0,0.0,0.0,0.0,0.0,0.0,0.0,0.0,0.0,0.0,0.0,0.0,-2.8654,-2.8732,-2.8779,-2.8685,-2.9805,-3.119,-3.119,-3.119,-3.119,-3.119,-3.119,-3.119,-3.119,-3.119,-3.119,-3.119,-3.119,-3.1055,-3.0559,-3.0838,-3.1055,-3.0576,-3.0838,-3.119,-3.119,-3.119,-3.119,-3.119,-3.119,-3.119,-3.119,-3.119,-3.119,-3.119,-3.1507,-3.1696,-3.1696,-3.2109,-3.2417,-3.2484,-3.2648,-3.3027,-3.3762,-3.3807,-3.3807,-3.3807,-3.3807,-3.3807,-3.3807,-3.3807,-3.3807,-3.3807,-3.3807,-3.3807,-3.3807,-3.3807,-3.3807,-3.3807,-3.3807,-3.3807,-3.3807,-3.3807,-3.3815,-3.385,-3.3721,-3.3833,-3.3971,-3.3123,-3.3069,-3.3163,0.0,0.0,0.0,0.0,0.0,0.0,0.0,-3.119,-3.0878,-2.9935,-2.9585,-2.9042,-2.8189,-2.781,-2.7625,0.0,0.0,0.0,0.0,0.0,0.0,0.0,0.0,-2.7625,-2.7625,-2.7625,-2.7625,-2.7625,0.0,-2.7625,-2.7625,-2.7625,-2.7625,-2.7625,-2.7625,-2.7625,-2.7625,-2.7625,0.0,-2.7625,-2.7625,-2.7625,0.0,0.0,0.0,0.0,0.0,-2.8238,-2.8511,-2.8511,-2.9271,-3.0251,-3.0251,-3.0477,-3.074,-3.074,-3.074,-3.0797,-3.1095,-3.119,-3.119,-3.119,-3.119,-3.1055,-3.0435,-3.0518,-3.0658,-3.0335,-3.0518,-3.0838,-3.1151,-3.119,-3.119,-3.119,-3.119,-3.119,-3.119,-3.119,-3.119,-3.119,-3.1389,-3.147,-3.147,-3.1677,-3.1914,-3.2144,-3.2144,-3.2433,-3.3087,-3.3361,-3.3578,-3.3788,-3.3807,-3.3807,-3.3807,-3.3807,-3.3807,-3.3807,-3.3807,-3.3807,-3.3807,-3.3807,-3.3807,-3.3807,-3.3807,-3.3807,-3.3807,-3.3807,-3.3807,-3.3807,-3.3807,-3.3876,-3.3931,-3.358,-3.3403,-3.3297,0.0,0.0,0.0,0.0,0.0,0.0,0.0,-3.119,-3.0757,-2.954,-2.9406,-2.9134,-2.8367,-2.7894,-2.7625,0.0,0.0,0.0,0.0,0.0,0.0,0.0,0.0,-2.7625,-2.7625,0.0,0.0,-2.7625,-2.7625,0.0,0.0,0.0,0.0,0.0,-2.7625,-2.7625,-2.7625,-2.7625,-2.7625,0.0,0.0,-2.7625,-2.7625,0.0,0.0,0.0,0.0,-2.7894,-2.8334,-2.8334,-2.8685,-2.918,-2.9042,-2.954,-3.0123,-3.0123,-3.0123,-3.0208,-3.0699,-3.0797,-3.0797,-3.0797,-3.0918,-3.0838,-3.0081,-3.0123,-3.0208,-2.9995,-3.0038,-3.0293,-3.0878,-3.1015,-3.1055,-3.119,-3.119,-3.119,-3.119,-3.119,-3.119,-3.119,-3.119,-3.119,-3.119,-3.119,-3.1312,-3.166,-3.166,-3.1897,-3.2484,-3.2952,-3.3332,-3.368,-3.3762,-3.3807,-3.3807,-3.3807,-3.3807,-3.3807,-3.3807,-3.3807,-3.3807,-3.3807,-3.3807,-3.3807,-3.3807,-3.3807,-3.3807,-3.3807,-3.3807,-3.3807,-3.3807,-3.3807,-3.3807,-3.3807,-3.3592,-3.3245,0.0,0.0,0.0,0.0,0.0,0.0,0.0,-3.119,-3.0757,-2.954,-2.9406,-2.895,-2.781,-2.7625,-2.7625,0.0,0.0,0.0,0.0,0.0,0.0,0.0,0.0,0.0,0.0,0.0,0.0,-2.7625,-2.7625,0.0,0.0,0.0,0.0,0.0,0.0,-2.7625,-2.7625,-2.7625,0.0,0.0,0.0,0.0,0.0,0.0,0.0,0.0,0.0,-2.7625,-2.766,-2.766,-2.8091,-2.8511,-2.7944,-2.8543,-2.9496,-2.9496,-2.9496,-2.9496,-2.954,-2.9585,-2.9585,-2.9585,-2.9995,-3.0081,-2.8919,-2.9496,-2.9995,-2.8873,-2.9088,-2.9673,-3.0251,-3.0393,-3.0559,-3.1112,-3.119,-3.119,-3.119,-3.119,-3.119,-3.119,-3.119,-3.119,-3.119,-3.119,-3.123,-3.1252,-3.1269,-3.162,-3.2451,-3.2952,-3.3214,-3.3243,-3.3606,-3.3807,-3.3807,-3.3807,-3.3807,-3.3807,-3.3807,-3.3807,-3.3807,-3.3807,-3.3807,-3.3807,-3.3807,-3.3807,-3.3807,-3.3807,-3.3807,-3.3807,-3.3807,-3.3807,-3.3807,-3.3807,-3.3906,-3.3995,0.0,0.0,0.0,0.0,0.0,0.0,-3.119,-3.119,-3.0757,-2.954,-2.9406,-2.895,-2.771,-2.7625,-2.7625,-2.7625,0.0,0.0,0.0,0.0,0.0,0.0,0.0,0.0,0.0,0.0,-2.7625,-2.7625,-2.7625,0.0,0.0,0.0,0.0,0.0,0.0,-2.7625,-2.7625,-2.7625,0.0,0.0,0.0,0.0,0.0,0.0,0.0,0.0,0.0,0.0,-2.7625,-2.7625,-2.776,-2.791,-2.7675,-2.7944,-2.84,-2.8732,-2.8873,-2.8919,-2.9316,-2.9406,-2.9406,-2.9406,-2.9585,-2.954,-2.8685,-2.8873,-2.9088,-2.8606,-2.8685,-2.9042,-2.9629,-2.9761,-2.9848,-3.0081,-3.0123,-3.0251,-3.0617,-3.0658,-3.0797,-3.1151,-3.119,-3.119,-3.119,-3.119,-3.119,-3.119,-3.119,-3.1368,-3.1694,-3.2144,-3.2598,-3.3184,-3.3379,-3.355,-3.3807,-3.3807,-3.3807,-3.3807,-3.3807,-3.3807,-3.3807,-3.3807,-3.3807,-3.3807,-3.3807,-3.3807,-3.3807,-3.3807,-3.3807,-3.3807,-3.3807,-3.3807,-3.3807,-3.3807,-3.3868,-3.3949,0.0,0.0,0.0,0.0,0.0,-3.119,-3.119,-3.1055,-3.0559,-2.954,-2.9225,-2.8717,-2.771,-2.7625,-2.7625,-2.7625,-2.7625,0.0,0.0,0.0,0.0,0.0,0.0,0.0,0.0,0.0,-2.7625,-2.7625,-2.7625,-2.7625,0.0,0.0,-2.7625,-2.7625,0.0,0.0,0.0,0.0,0.0,0.0,0.0,0.0,0.0,0.0,0.0,0.0,0.0,0.0,0.0,0.0,0.0,-2.7625,-2.7625,-2.7625,-2.766,-2.8091,-2.8222,-2.8319,-2.8764,-2.8857,-2.8857,-2.8857,-2.8996,-2.8966,-2.8367,-2.8367,-2.8463,-2.8286,-2.8222,-2.8415,-2.8996,-2.9134,-2.918,-2.9361,-2.9406,-2.954,-2.9978,-3.0208,-3.0477,-3.0878,-3.1095,-3.119,-3.119,-3.119,-3.119,-3.119,-3.119,-3.119,-3.119,-3.147,-3.1968,-3.2777,-3.2903,-3.3196,-3.3606,-3.3606,-3.368,-3.3807,-3.3807,-3.3807,-3.3807,-3.3807,-3.3807,-3.3807,-3.3807,-3.3807,-3.3807,-3.3807,-3.3807,-3.3807,-3.3807,-3.3807,-3.3807,-3.3807,-3.3807,-3.3815,0.0,0.0,0.0,0.0,0.0,0.0,-3.119,-3.0699,-3.0081,-2.9496,-2.8873,-2.8286,-2.7675,-2.7625,-2.7625,-2.7625,-2.7625,0.0,0.0,0.0,0.0,0.0,0.0,0.0,0.0,0.0,-2.7625,-2.7625,-2.7625,-2.7625,-2.7625,-2.7625,-2.7625,-2.7625,0.0,0.0,0.0,0.0,0.0,0.0,0.0,0.0,0.0,0.0,0.0,0.0,0.0,0.0,0.0,0.0,0.0,0.0,0.0,-2.7625,-2.7625,-2.7625,-2.7625,-2.7625,-2.7625,-2.7625,-2.7625,-2.7625,-2.8042,-2.8319,-2.776,-2.8091,-2.8334,-2.771,-2.7625,-2.781,-2.8415,-2.8511,-2.8685,-2.9316,-2.9406,-2.9406,-2.9406,-2.9935,-3.0293,-3.0293,-3.0838,-3.119,-3.119,-3.119,-3.119,-3.119,-3.119,-3.119,-3.119,-3.119,-3.1372,-3.1789,-3.2282,-3.2745,-3.3214,-3.3214,-3.3408,-3.3807,-3.3807,-3.3807,-3.3807,-3.3807,-3.3807,-3.3807,-3.3807,-3.3807,-3.3807,-3.3807,-3.3807,-3.3807,-3.3807,-3.3807,-3.3807,-3.3807,-3.3807,-3.3807,0.0,0.0,0.0,0.0,0.0,0.0,0.0,-3.0435,-3.0064,-2.9496,-2.9225,-2.8717,-2.771,-2.7625,-2.7625,-2.7625,-2.7625,0.0,0.0,0.0,0.0,0.0,0.0,0.0,0.0,0.0,-2.7625,-2.7625,-2.7625,-2.7625,-2.7625,-2.7625,-2.7625,-2.7625,-2.7625,-2.7625,0.0,0.0,0.0,0.0,0.0,0.0,-2.7625,0.0,0.0,0.0,0.0,0.0,0.0,0.0,0.0,0.0,0.0,0.0,0.0,-2.7625,-2.7625,-2.7625,-2.7625,-2.7625,-2.7625,-2.7625,-2.776,-2.781,-2.761,-2.776,-2.781,-2.7625,-2.7625,-2.766,-2.786,-2.7894,-2.7944,-2.8125,-2.8174,-2.8304,-2.8732,-2.9316,-2.9848,-3.0251,-3.0838,-3.119,-3.119,-3.119,-3.119,-3.119,-3.119,-3.119,-3.119,-3.119,-3.1372,-3.1789,-3.2282,-3.2713,-3.3184,-3.3465,-3.3662,-3.3807,-3.3807,-3.3807,-3.3807,-3.3807,-3.3807,-3.3807,-3.3807,-3.3807,-3.3807,-3.3807,-3.3807,-3.3807,-3.3807,-3.3807,-3.3807,-3.3807,-3.3807,-3.3807,0.0,0.0,0.0,0.0,0.0,0.0,0.0,-3.0123,-2.9821,-2.9451,-2.918,-2.8685,-2.771,-2.7625,-2.7625,-2.7625,-2.7625,0.0,0.0,0.0,0.0,0.0,0.0,0.0,0.0,-2.7625,-2.7625,-2.7625,-2.7625,-2.7625,-2.7625,-2.7625,-2.7625,-2.7625,-2.7625,-2.7625,0.0,0.0,0.0,0.0,0.0,0.0,-2.7625,0.0,0.0,0.0,0.0,0.0,0.0,0.0,0.0,0.0,0.0,0.0,0.0,0.0,-2.7625,-2.7625,-2.7625,-2.7625,-2.7625,-2.7625,-2.7625,-2.7625,-2.7625,-2.7625,-2.7625,-2.7625,-2.7625,-2.7625,-2.7625,-2.7625,-2.7625,-2.7625,-2.7625,-2.781,-2.8415,-2.9012,-2.9717,-3.0518,-3.0975,-3.119,-3.119,-3.119,-3.119,-3.119,-3.119,-3.119,-3.119,-3.119,-3.1312,-3.1565,-3.1842,-3.2316,-3.2921,-3.3196,-3.3476,-3.3807,-3.3807,-3.3807,-3.3807,-3.3807,-3.3807,-3.3807,-3.3807,-3.3807,0.0,-3.3807,-3.3807,-3.3807,-3.3807,-3.3807,-3.3807,-3.3807,-3.3807,-3.3807,0.0,0.0,0.0,0.0,0.0,0.0,0.0,-2.9717,-2.9316,-2.9316,-2.8826,-2.8286,-2.7675,-2.7625,-2.7625,-2.7625,0.0,0.0,0.0,0.0,0.0,0.0,0.0,0.0,-2.7625,-2.7625,-2.7625,-2.7625,-2.7625,-2.7625,-2.7625,-2.7625,-2.7625,-2.7625,-2.7625,-2.7625,0.0,0.0,0.0,0.0,0.0,0.0,0.0,0.0,0.0,0.0,0.0,0.0,0.0,0.0,0.0,0.0,0.0,0.0,0.0,0.0,0.0,0.0,0.0,-2.7625,-2.7625,-2.7625,-2.7625,-2.7625,-2.7625,-2.7625,0.0,-2.7625,-2.7625,-2.7625,-2.7625,-2.7625,-2.7625,-2.7625,-2.7625,-2.781,-2.8415,-2.9058,-2.9892,-3.1055,-3.119,-3.119,-3.119,-3.119,-3.119,-3.119,-3.119,-3.119,-3.119,-3.119,-3.119,-3.119,-3.119,-3.1637,-3.2484,-3.2517,-3.2965,-3.3807,-3.3807,-3.3807,-3.3807,-3.3807,-3.3807,-3.3807,-3.3807,-3.3807,-3.3807,-3.3807,-3.3807,-3.3807,-3.3807,-3.3807,-3.3807,-3.3807,-3.3807,-3.3807,0.0,0.0,0.0,0.0,0.0,0.0,0.0,0.0,0.0,0.0,-2.8606,-2.8286,-2.7675,-2.7625,-2.7625,0.0,0.0,0.0,0.0,0.0,0.0,0.0,0.0,0.0,-2.7625,-2.7625,-2.7625,-2.7625,-2.7625,-2.7625,-2.7625,-2.7625,-2.7625,-2.7625,-2.7625,-2.7625,0.0,0.0,0.0,0.0,0.0,0.0,0.0,0.0,0.0,0.0,-2.7625,-2.7625,0.0,0.0,0.0,0.0,0.0,0.0,0.0,0.0,-2.7625,-2.7625,-2.7625,0.0,-2.7625,-2.7625,-2.7625,-2.7625,0.0,-2.7625,-2.7625,-2.7625,-2.7625,-2.7625,-2.7625,-2.7625,-2.7625,-2.7625,-2.7625,-2.781,-2.8415,-2.9406,-3.0335,-3.1112,-3.119,-3.119,-3.119,-3.119,-3.119,-3.119,-3.119,-3.119,-3.119,-3.119,-3.119,-3.119,-3.119,-3.1637,-3.2484,-3.2858,-3.3284,-3.3807,-3.3807,-3.3807,-3.3807,-3.3807,-3.3807,-3.3807,-3.3807,-3.3807,-3.3807,-3.3807,-3.3807,-3.3807,-3.3807,-3.3807,-3.3807,-3.3807,-3.3807,-3.3807,0.0,0.0,0.0,0.0,0.0,0.0,0.0,0.0,0.0,0.0,0.0,0.0,0.0,0.0,0.0,0.0,0.0,0.0,0.0,0.0,0.0,0.0,0.0,-2.7625,-2.7625,-2.7625,-2.7625,-2.7625,-2.7625,-2.7625,-2.7625,-2.7625,-2.7625,-2.7625,-2.7625,-2.7625,0.0,0.0,0.0,0.0,-2.7625,0.0,0.0,0.0,0.0,0.0,-2.7625,-2.7625,0.0,-2.7625,-2.7625,-2.7625,0.0,0.0,0.0,0.0,-2.7625,-2.7625,-2.7625,-2.7625,-2.7625,-2.7625,-2.7625,-2.7625,-2.7625,-2.7625,-2.7625,-2.7625,-2.7625,-2.7625,-2.7625,-2.7625,-2.7625,-2.7625,-2.7625,-2.781,-2.8415,-2.9316,-3.0123,-3.0699,-3.0797,-3.0878,-3.119,-3.119,-3.119,-3.119,-3.119,-3.119,-3.119,-3.119,-3.119,-3.119,-3.119,-3.1524,-3.2161,-3.2648,-3.3105,-3.3522,-3.3707,-3.3807,-3.3807,-3.3807,-3.3807,-3.3807,-3.3807,-3.3807,-3.3807,-3.3807,-3.3807,-3.3807,-3.3807,-3.3807,-3.3807,-3.3807,-3.3807,-3.3807,0.0,0.0,0.0,0.0,0.0,0.0,0.0,0.0,0.0,0.0,0.0,0.0,0.0,0.0,0.0,0.0,0.0,0.0,0.0,0.0,0.0,0.0,0.0,-2.7625,-2.7625,-2.7625,-2.7625,-2.7625,-2.7625,-2.7625,-2.7625,-2.7625,-2.7625,-2.7625,-2.7625,-2.7625,0.0,-2.7625,-2.7625,-2.7625,-2.7625,0.0,0.0,0.0,0.0,0.0,0.0,0.0,0.0,-2.7625,-2.75,-2.7475,-2.7475,0.0,0.0,0.0,0.0,0.0,-2.7475,-2.755,-2.7625,-2.7625,-2.7625,-2.7625,-2.7625,-2.7625,-2.7625,-2.7625,-2.7625,-2.7625,-2.7625,-2.7625,-2.7625,-2.7625,-2.7675,-2.791,-2.8431,-2.9012,-2.9629,-3.0208,-3.0293,-3.0518,-3.1151,-3.119,-3.119,-3.119,-3.119,-3.119,-3.119,-3.119,-3.119,-3.119,-3.119,-3.1351,-3.1696,-3.2161,-3.2648,-3.3105,-3.3522,-3.3707,-3.3707,-3.3762,-3.3807,-3.3807,-3.3807,-3.3807,-3.3807,-3.3807,-3.3807,-3.3807,-3.3807,-3.3807,-3.3807,-3.3807,-3.3807,-3.3807,0.0,0.0,0.0,0.0,0.0,0.0,0.0,0.0,0.0,0.0,0.0,0.0,0.0,0.0,0.0,0.0,0.0,0.0,0.0,0.0,0.0,-2.7625,-2.7625,-2.7625,-2.7625,-2.7625,-2.7625,-2.7625,-2.7625,-2.7625,-2.7625,-2.7625,-2.7625,-2.7625,-2.7625,-2.7625,-2.7625,-2.7625,-2.7625,-2.7625,-2.7625,0.0,0.0,0.0,0.0,0.0,0.0,0.0,0.0,-2.7625,-2.72,-2.6737,-2.6737,0.0,0.0,0.0,0.0,0.0,-2.6737,-2.7141,-2.7625,-2.7625,-2.7625,-2.7625,-2.7625,-2.7625,-2.7625,-2.7625,-2.7625,-2.7625,-2.7625,-2.7625,-2.7625,-2.7625,-2.8042,-2.8367,-2.8463,-2.9012,-2.9629,-3.0208,-3.0293,-3.0518,-3.1151,-3.119,-3.119,-3.119,-3.119,-3.119,-3.119,-3.119,-3.119,-3.119,-3.119,-3.123,-3.1291,-3.1696,-3.2127,-3.2616,-3.3075,-3.3302,-3.3302,-3.3634,-3.3807,-3.3807,-3.3807,-3.3807,-3.3807,-3.3807,-3.3807,-3.3807,-3.3807,-3.3807,-3.3807,-3.3807,-3.3807,-3.3807,0.0,0.0,0.0,0.0,0.0,0.0,0.0,0.0,0.0,0.0,0.0,0.0,0.0,0.0,0.0,0.0,0.0,0.0,0.0,0.0,0.0,-2.7625,-2.7625,-2.7625,-2.7625,-2.7625,-2.7625,-2.7625,-2.7625,-2.7625,-2.7625,-2.7625,-2.7625,-2.7625,-2.7625,-2.7625,-2.7625,-2.7625,-2.7625,-2.7625,0.0,0.0,0.0,0.0,0.0,0.0,0.0,0.0,0.0,0.0,-2.6602,-2.6063,-2.6063,0.0,0.0,0.0,0.0,0.0,-2.6587,-2.7066,-2.7625,-2.7625,-2.7625,-2.7625,-2.7625,-2.7625,-2.7625,-2.7625,-2.7625,-2.7625,-2.7625,-2.7625,-2.7625,-2.7625,-2.781,-2.7993,-2.7993,-2.8271,-2.8764,-2.9717,-2.9805,-3.0166,-3.1112,-3.119,-3.119,-3.119,-3.119,-3.119,-3.119,-3.119,-3.119,-3.119,-3.119,-3.119,-3.119,-3.1372,-3.1714,-3.2127,-3.2616,-3.2809,-3.2858,-3.3273,-3.3494,-3.3494,-3.3707,-3.3807,-3.3807,-3.3807,-3.3807,-3.3807,-3.3807,-3.3807,-3.3807,-3.3807,-3.3807,-3.3807,0.0,0.0,0.0,0.0,0.0,0.0,0.0,0.0,0.0,0.0,0.0,0.0,0.0,0.0,0.0,0.0,0.0,0.0,0.0,0.0,-2.7625,-2.7625,-2.7625,-2.7625,-2.7625,-2.7625,-2.7625,-2.7625,-2.7625,-2.7625,-2.7625,-2.7625,-2.7625,-2.7625,-2.7625,-2.7625,-2.7625,-2.7625,-2.7625,-2.7625,0.0,0.0,0.0,0.0,0.0,0.0,0.0,0.0,0.0,0.0,0.0,0.0,0.0,0.0,0.0,-2.5136,-2.5719,-2.6363,-2.6363,-2.6961,-2.7625,-2.7625,-2.7625,-2.7625,-2.7625,-2.7625,-2.7625,-2.7625,-2.7625,-2.7625,-2.7625,-2.7625,-2.7625,-2.7625,-2.7625,-2.7625,-2.7625,-2.7625,-2.8027,-2.9271,-2.9406,-2.9848,-3.1095,-3.119,-3.119,-3.119,-3.119,-3.119,-3.119,-3.119,-3.119,-3.119,-3.119,-3.119,-3.119,-3.119,-3.1351,-3.166,-3.2109,-3.2366,-3.2517,-3.2983,-3.3243,-3.3361,-3.368,-3.3807,-3.3807,-3.3807,-3.3807,-3.3807,-3.3807,-3.3807,-3.3807,-3.3807,-3.3807,-3.3807,0.0,0.0,0.0,0.0,0.0,0.0,0.0,0.0,0.0,0.0,0.0,0.0,0.0,0.0,0.0,0.0,0.0,0.0,0.0,0.0,-2.7625,-2.7625,-2.7625,-2.7625,-2.7625,-2.7625,-2.7625,-2.7625,-2.7625,-2.7625,-2.7625,-2.7625,-2.7625,-2.7625,-2.7625,-2.7625,-2.7625,-2.7625,-2.7625,-2.7625,-2.7625,0.0,0.0,0.0,0.0,0.0,0.0,0.0,0.0,0.0,0.0,0.0,0.0,0.0,-2.3744,-2.3744,-2.4657,-2.5674,-2.5674,-2.6602,-2.7625,-2.7625,-2.7625,-2.7625,-2.7625,-2.7625,-2.7625,-2.7625,-2.7625,-2.7625,-2.7625,-2.7625,-2.7625,-2.7625,-2.7625,-2.7625,-2.7625,-2.7625,-2.8027,-2.9271,-2.9406,-2.9848,-3.1095,-3.119,-3.119,-3.119,-3.119,-3.119,-3.119,-3.119,-3.119,-3.119,-3.119,-3.119,-3.119,-3.119,-3.123,-3.1269,-3.1677,-3.2057,-3.2517,-3.2983,-3.339,-3.3762,-3.3807,-3.3807,-3.3807,-3.3807,-3.3807,-3.3807,-3.3807,-3.3807,-3.3807,-3.3807,-3.3807,-3.3807,0.0,0.0,0.0,0.0,0.0,0.0,0.0,0.0,0.0,0.0,0.0,0.0,0.0,0.0,0.0,0.0,0.0,0.0,0.0,-2.7625,-2.7625,-2.7625,-2.7625,-2.7625,-2.7625,-2.7625,-2.7625,-2.7625,-2.7625,-2.7625,-2.7625,-2.7625,-2.7625,-2.7625,-2.7625,-2.7625,-2.7625,-2.7625,-2.7625,-2.7625,-2.7625,-2.7625,0.0,0.0,0.0,0.0,0.0,0.0,0.0,0.0,-2.5091,-2.3984,-2.3984,-2.3804,-2.3595,-2.3595,-2.4552,-2.5615,-2.5615,-2.6572,-2.7625,-2.7625,-2.7625,-2.7625,-2.7625,-2.7625,-2.7625,-2.7625,-2.7625,-2.7625,-2.7625,-2.7625,-2.7625,-2.7625,-2.7625,-2.7625,-2.7625,-2.7894,-2.8463,-2.9316,-2.9717,-3.0293,-3.1112,-3.119,-3.119,-3.119,-3.119,-3.119,-3.119,-3.119,-3.119,-3.119,-3.119,-3.119,-3.119,-3.119,-3.119,-3.119,-3.1351,-3.1507,-3.1694,-3.2127,-3.2565,-3.2996,-3.3302,-3.3578,-3.3807,-3.3807,-3.3807,-3.3807,-3.3807,-3.3807,-3.3807,-3.3807,-3.3807,-3.3807,0.0,0.0,0.0,0.0,0.0,0.0,0.0,0.0,0.0,0.0,0.0,0.0,0.0,0.0,0.0,0.0,0.0,0.0,-2.761,-2.7625,-2.7625,-2.7625,-2.7625,-2.7625,-2.7625,-2.7625,-2.7625,-2.7625,-2.7625,-2.7625,-2.7625,-2.7625,-2.7625,-2.7625,-2.7625,-2.7625,-2.7625,-2.7625,-2.7625,-2.7625,-2.7625,-2.7625,0.0,0.0,0.0,0.0,0.0,0.0,0.0,0.0,-2.4717,-2.3595,-2.3595,-2.3595,-2.3595,-2.3595,-2.4552,-2.5615,-2.5615,-2.6572,-2.7625,-2.7625,-2.7625,-2.7625,-2.7625,-2.7625,-2.7625,-2.7625,-2.7625,-2.7625,-2.7625,-2.7625,-2.7625,-2.7625,-2.7625,-2.7675,-2.786,-2.8238,-2.8779,-2.9585,-3.0038,-3.0518,-3.1151,-3.119,-3.119,-3.119,-3.119,-3.119,-3.119,-3.119,-3.119,-3.119,-3.119,-3.119,-3.119,-3.119,-3.119,-3.119,-3.119,-3.1252,-3.1389,-3.166,-3.2074,-3.2517,-3.2983,-3.3379,-3.3606,-3.3734,-3.3807,-3.3807,-3.3807,-3.3807,-3.3807,-3.3807,-3.3807,-3.3807,0.0,0.0,0.0,0.0,0.0,0.0,0.0,0.0,0.0,0.0,0.0,0.0,0.0,0.0,0.0,0.0,0.0,0.0,-2.7625,-2.7625,-2.7625,-2.7625,-2.7625,-2.7625,-2.7625,-2.7625,-2.7625,-2.7625,-2.7625,-2.7625,-2.7625,-2.7625,-2.7625,-2.7625,-2.7625,-2.7625,-2.7625,-2.7625,-2.7625,-2.7625,-2.7625,-2.7625,-2.7625,0.0,0.0,0.0,0.0,0.0,0.0,0.0,-2.4717,-2.3595,-2.3595,-2.3595,-2.3595,-2.361,-2.4552,-2.5615,-2.5615,-2.6572,-2.7625,-2.7625,-2.7625,-2.7625,-2.7625,-2.7625,-2.7625,-2.7625,-2.7625,-2.7625,-2.7625,-2.7625,-2.7625,-2.7625,-2.7625,-2.781,-2.8415,-2.8511,-2.895,-3.0166,-3.0293,-3.0518,-3.1151,-3.119,-3.119,-3.119,-3.119,-3.119,-3.119,-3.119,-3.119,-3.119,-3.119,-3.119,-3.119,-3.119,-3.119,-3.119,-3.119,-3.1411,-3.1771,-3.1771,-3.2057,-3.2517,-3.2983,-3.3184,-3.3243,-3.3634,-3.3807,-3.3807,-3.3807,-3.3807,-3.3807,-3.3807,-3.3807,-3.3807,0.0,0.0,0.0,0.0,0.0,0.0,0.0,0.0,0.0,0.0,0.0,0.0,0.0,0.0,0.0,0.0,0.0,0.0,-2.7625,-2.7625,-2.7625,-2.7625,-2.7625,-2.7625,-2.7625,-2.7625,-2.7625,-2.7625,-2.7625,-2.7625,-2.7625,-2.7625,-2.7625,-2.7625,-2.7625,-2.7625,-2.7625,-2.7625,-2.7625,-2.7625,-2.7625,-2.7625,-2.7625,0.0,0.0,0.0,0.0,0.0,0.0,0.0,0.0,0.0,-2.3595,-2.3595,-2.3684,-2.4178,-2.4941,-2.5704,-2.6183,-2.6916,-2.7625,-2.7625,-2.7625,-2.7625,-2.7625,-2.7625,-2.7625,-2.7625,-2.7625,-2.7625,-2.7625,-2.7625,-2.7625,-2.7625,-2.7625,-2.781,-2.8415,-2.8873,-2.9406,-3.0208,-3.0658,-3.1015,-3.119,-3.119,-3.119,-3.119,-3.119,-3.119,-3.119,-3.119,-3.119,-3.119,-3.119,-3.119,-3.119,-3.119,-3.119,-3.119,-3.119,-3.1252,-3.1389,-3.1389,-3.1603,-3.2039,-3.2161,-3.2598,-3.3243,-3.3634,-3.3807,-3.3807,-3.3807,-3.3807,-3.3807,-3.3807,-3.3807,-3.3807,0.0,0.0,0.0,0.0,0.0,0.0,0.0,0.0,0.0,0.0,0.0,0.0,0.0,0.0,0.0,0.0,0.0,0.0,0.0,-2.7625,-2.7625,-2.7625,-2.7625,-2.7625,-2.7625,-2.7625,-2.7625,-2.7625,-2.7625,-2.7625,-2.7625,-2.7625,-2.7625,-2.7625,-2.7625,-2.7625,-2.7625,-2.7625,-2.7625,-2.7625,-2.7625,-2.7625,-2.7625,0.0,0.0,0.0,0.0,0.0,0.0,0.0,0.0,0.0,-2.4403,-2.4403,-2.4477,-2.4896,-2.548,-2.6093,-2.6482,-2.7066,-2.7625,-2.7625,-2.7625,-2.7625,-2.7625,-2.7625,-2.7625,-2.7625,-2.7625,-2.7625,-2.7625,-2.7625,-2.7625,-2.7625,-2.7625,-2.781,-2.8415,-2.9012,-2.9629,-3.0208,-3.0838,-3.119,-3.119,-3.119,-3.119,-3.119,-3.119,-3.119,-3.119,-3.119,-3.119,-3.119,-3.119,-3.119,-3.119,-3.119,-3.119,-3.119,-3.119,-3.119,-3.119,-3.119,-3.1312,-3.1565,-3.1933,-3.25,-3.3243,-3.3634,-3.3807,-3.3807,-3.3807,-3.3807,-3.3807,-3.3807,-3.3807,-3.3807,0.0,0.0,0.0,0.0,0.0,0.0,0.0,0.0,0.0,0.0,0.0,0.0,0.0,0.0,0.0,0.0,0.0,0.0,0.0,0.0,-2.7625,-2.7625,-2.7625,-2.7625,-2.7625,-2.7625,-2.7625,-2.7625,-2.7625,-2.7625,-2.7625,-2.7625,-2.7625,-2.7625,-2.7625,-2.7625,-2.7625,-2.7625,-2.7625,-2.7625,-2.7625,-2.7625,-2.7625,-2.7625,0.0,0.0,0.0,0.0,0.0,0.0,0.0,0.0,-2.5615,-2.5615,-2.5615,-2.5674,-2.6123,-2.6602,-2.6662,-2.7126,-2.7625,-2.7625,-2.7625,-2.7625,-2.7625,-2.7625,-2.7625,-2.7625,-2.7625,-2.7625,-2.7625,-2.7625,-2.7625,-2.7625,-2.7625,-2.781,-2.8415,-2.8966,-2.954,-3.0208,-3.0781,-3.1151,-3.119,-3.119,-3.119,-3.119,-3.119,-3.119,-3.119,-3.119,-3.119,-3.119,-3.119,-3.119,-3.119,-3.119,-3.119,-3.119,-3.119,-3.119,-3.119,-3.119,-3.119,-3.1269,-3.2092,-3.2681,-3.3105,-3.355,-3.3734,-3.3734,-3.3734,-3.3734,-3.3734,-3.3734,-3.3734,-3.3734,0.0,0.0,0.0,0.0,0.0,0.0,0.0,0.0,0.0,0.0,0.0,0.0,0.0,0.0,0.0,0.0,0.0,0.0,0.0,0.0,-2.7625,-2.7625,-2.7625,-2.7625,-2.7625,-2.7625,-2.7625,-2.7625,-2.7625,-2.7625,-2.7625,-2.7625,-2.7625,-2.7625,-2.7625,-2.7625,-2.7625,-2.7625,-2.7625,-2.7625,-2.7625,-2.7625,-2.7625,-2.7625,-2.7625,0.0,0.0,0.0,0.0,0.0,0.0,0.0,-2.5615,-2.5615,-2.5704,-2.6228,-2.6482,-2.6692,-2.7215,-2.7505,-2.7625,-2.7625,-2.7625,-2.7625,-2.7625,-2.7625,-2.7625,-2.7625,-2.7625,-2.7625,-2.7625,-2.7625,-2.7625,-2.7625,-2.7625,-2.781,-2.8415,-2.8606,-2.9088,-3.0166,-3.0418,-3.0699,-3.1151,-3.119,-3.119,-3.119,-3.119,-3.119,-3.119,-3.119,-3.119,-3.119,-3.119,-3.119,-3.119,-3.119,-3.119,-3.119,-3.119,-3.119,-3.119,-3.119,-3.119,-3.123,-3.1733,-3.1986,-3.2144,-3.2996,-3.3332,-3.3332,-3.3332,-3.3332,-3.3332,-3.3332,-3.3332,-3.3361,0.0,0.0,0.0,0.0,0.0,0.0,0.0,0.0,0.0,0.0,0.0,0.0,0.0,0.0,0.0,0.0,0.0,0.0,0.0,0.0,-2.791,-2.761,-2.7625,-2.7625,-2.7625,-2.7625,-2.7625,-2.7625,-2.7625,-2.7625,-2.7625,-2.7625,-2.7625,-2.7625,-2.7625,-2.7625,-2.7625,-2.7625,-2.7625,-2.7625,-2.7625,-2.7625,-2.7625,-2.7625,-2.7625,-2.7625,-2.7625,0.0,0.0,0.0,0.0,0.0,0.0,0.0,-2.6617,-2.6961,-2.7066,-2.7141,-2.7535,-2.7625,-2.7625,-2.7625,-2.7625,-2.7625,-2.7625,-2.7625,-2.7625,-2.7625,-2.7625,-2.7625,-2.7625,-2.7625,-2.7625,-2.7625,-2.7625,-2.771,-2.8042,-2.8319,-2.8826,-2.9761,-3.0123,-3.0518,-3.1151,-3.119,-3.119,-3.119,-3.119,-3.119,-3.119,-3.119,-3.119,-3.119,-3.119,-3.119,-3.119,-3.119,-3.119,-3.119,-3.119,-3.119,-3.119,-3.119,-3.119,-3.1213,-3.1244,-3.1271,-3.1307,-3.1639,-3.2007,-3.2348,-3.2348,-3.255,-3.284,-3.284,-3.3014,-3.3243,0.0,0.0,0.0,0.0,0.0,0.0,0.0,0.0,0.0,0.0,0.0,0.0,0.0,0.0,0.0,0.0,0.0,0.0,0.0,0.0,0.0,-2.776,-2.7675,-2.7625,-2.7625,-2.7625,-2.7625,-2.7625,-2.7625,-2.7625,-2.7625,-2.7625,-2.7625,-2.7625,-2.7625,-2.7625,-2.7625,-2.7625,-2.7625,-2.7625,-2.7625,-2.7625,-2.7625,-2.7625,-2.7625,-2.7625,-2.7625,-2.7625,-2.7625,-2.7625,0.0,0.0,0.0,0.0,-2.7625,-2.7625,-2.7625,-2.7625,-2.7625,-2.7625,-2.7625,-2.7625,-2.7625,-2.7625,-2.7625,-2.7625,-2.7625,-2.7625,-2.7625,-2.7625,-2.7625,-2.7625,-2.7625,-2.7625,-2.7625,-2.7625,-2.7625,-2.814,-2.8732,-2.9316,-2.9935,-3.0518,-3.1151,-3.119,-3.119,-3.119,-3.119,-3.119,-3.119,-3.119,-3.119,-3.119,-3.119,-3.119,-3.119,-3.119,-3.119,-3.119,-3.119,-3.1123,-3.1004,-3.1004,-3.1004,-3.1009,-3.0707,-3.0507,-3.0404,-3.0243,-3.0539,-3.1073,-3.1073,-3.1517,-3.2172,-3.2172,-3.2524,-3.2965,0.0,0.0,0.0,0.0,0.0,0.0,0.0,0.0,0.0,0.0,0.0,0.0,0.0,0.0,0.0,0.0,0.0,0.0,-2.9316,0.0,0.0,-2.8367,-2.786,-2.7625,-2.7625,-2.7625,-2.7625,-2.7625,-2.7625,-2.7625,-2.7625,-2.7625,-2.7625,-2.7625,-2.7625,-2.7625,-2.7625,-2.7625,-2.7625,-2.7625,-2.7625,-2.7625,-2.7625,-2.7625,-2.7625,-2.7625,-2.7625,-2.7625,-2.7625,-2.7625,-2.7625,0.0,0.0,0.0,-2.7625,-2.7625,-2.7625,-2.7625,-2.7625,-2.7625,-2.7625,-2.7625,-2.7625,-2.7625,-2.7625,-2.7625,-2.7625,-2.7625,-2.7625,-2.7625,-2.7625,-2.7625,-2.7625,-2.7625,-2.7625,-2.7625,-2.7625,-2.814,-2.8732,-2.9316,-2.9935,-3.0518,-3.1151,-3.119,-3.119,-3.119,-3.119,-3.119,-3.119,-3.119,-3.119,-3.119,-3.119,-3.119,-3.119,-3.119,-3.119,-3.119,-3.119,-3.0869,-3.026,-3.026,-3.026,-3.0243,-3.02,-2.983,-2.9238,-2.954,-2.9741,-2.9828,-2.9828,-3.0298,-3.0924,-3.0924,-3.1377,-3.2092,0.0,0.0,0.0,0.0,0.0,0.0,0.0,0.0,0.0,0.0,0.0,0.0,0.0,0.0,0.0,-3.0335,-3.0617,-3.0393,-2.9451,-2.9134,-2.8685,-2.8042,-2.776,-2.7625,-2.7625,-2.7625,-2.7625,-2.7625,-2.7625,-2.7625,-2.7625,-2.7625,-2.7625,-2.7625,-2.7625,-2.7625,-2.7625,-2.7625,-2.7625,-2.7625,-2.7625,-2.7625,-2.7625,-2.7625,-2.7625,-2.7625,-2.7625,-2.7625,-2.7625,-2.7625,-2.7625,-2.7625,-2.7625,0.0,0.0,0.0,-2.7625,-2.7625,-2.7625,-2.7625,-2.7625,-2.7625,-2.7625,-2.7625,-2.7625,-2.7625,-2.7625,-2.7625,-2.7625,-2.7625,-2.7625,-2.7625,-2.7625,-2.7625,-2.7625,-2.7625,-2.7625,-2.781,-2.8222,-2.8826,-2.9134,-2.954,-3.0123,-3.0477,-3.0699,-3.0699,-3.1015,-3.119,-3.119,-3.119,-3.119,-3.119,-3.119,-3.1004,-3.0598,-3.0581,-3.0378,-2.9956,-2.9956,-2.9786,-2.9482,-2.9482,-2.9482,-2.9448,-2.9025,-2.8636,-2.8298,-2.8066,-2.8237,-2.8579,-2.8579,-2.9058,-2.9761,-2.9761,-3.0349,-3.1237,0.0,0.0,0.0,0.0,0.0,0.0,0.0,0.0,0.0,0.0,0.0,0.0,0.0,0.0,0.0,0.0,-3.0935,-3.0838,-2.9935,-2.9585,-2.8996,-2.8076,-2.776,-2.7625,-2.7625,-2.7625,-2.7625,-2.7625,-2.7625,-2.7625,-2.7625,-2.7625,-2.7625,-2.7625,-2.7625,-2.7625,-2.7625,-2.7625,-2.7625,-2.7625,-2.7625,-2.7625,-2.7625,-2.7625,-2.7625,-2.7625,-2.7625,-2.7625,-2.7625,-2.7625,-2.7625,-2.7625,-2.7625,-2.7625,0.0,0.0,0.0,-2.7625,-2.7625,-2.7625,-2.7625,-2.7625,-2.7625,-2.7625,-2.7625,-2.7625,-2.7625,-2.7625,-2.7625,-2.7625,-2.7625,-2.7625,-2.7625,-2.7625,-2.7625,-2.7625,-2.7625,-2.771,-2.7993,-2.8463,-2.8654,-2.8919,-2.9361,-2.9951,-3.0293,-3.0293,-3.0878,-3.119,-3.119,-3.119,-3.119,-3.119,-3.119,-3.0852,-3.0125,-2.9922,-2.9533,-2.9011,-2.9011,-2.8873,-2.8687,-2.8687,-2.8586,-2.8383,-2.7994,-2.7671,-2.7486,-2.6928,-2.7029,-2.7537,-2.7537,-2.801,-2.8687,-2.8687,-2.9363,-3.0265,0.0,0.0,0.0,0.0,0.0,0.0,0.0,0.0,0.0,0.0,0.0,0.0,-3.119,-3.119,-3.119,-3.1151,-3.119,-3.119,-3.1112,-3.0038,-2.9361,-2.9316,-2.8222,0.0,-2.7625,-2.7625,-2.7625,-2.7625,-2.7625,-2.7625,-2.7625,-2.7625,-2.7625,-2.7625,-2.7625,-2.7625,-2.7625,-2.7625,-2.7625,-2.7625,-2.7625,-2.7625,-2.7625,-2.7625,-2.7625,-2.7625,-2.7625,-2.7625,-2.7625,-2.7625,-2.7625,-2.7625,-2.7625,-2.7625,-2.7625,0.0,0.0,0.0,-2.7625,-2.7625,-2.7625,-2.7625,-2.7625,-2.7625,-2.7625,-2.7625,-2.7625,-2.7625,-2.7625,-2.7625,-2.7625,-2.7625,-2.7625,-2.7625,-2.7625,-2.7625,-2.7625,-2.8091,-2.8463,-2.8511,-2.8996,-2.9361,-2.9406,-2.9951,-3.0293,-3.0293,-3.0878,-3.119,-3.119,-3.119,-3.119,-3.119,-3.119,-3.0852,-3.0125,-2.9397,-2.9062,-2.9011,-2.9011,-2.8602,-2.784,-2.784,-2.7486,-2.686,-2.752,-2.7418,-2.6742,-2.6708,-2.6708,-2.6759,-2.6759,-2.7215,-2.784,-2.784,-2.8366,-2.9117,0.0,0.0,0.0,0.0,0.0,0.0,0.0,0.0,0.0,0.0,0.0,0.0,0.0,-3.119,-3.119,-3.119,-3.119,-3.0878,-3.0081,-2.9629,-2.9042,-2.8271,-2.7845,-2.7625,-2.7625,-2.7625,-2.7625,-2.7625,-2.7625,-2.7625,-2.7625,-2.7625,-2.7625,-2.7625,-2.7625,-2.7625,-2.7625,-2.7625,-2.7625,-2.7625,-2.7625,-2.7625,-2.7625,-2.7625,-2.7625,-2.7625,-2.7625,-2.7625,-2.7625,-2.7625,-2.7625,-2.7625,-2.7625,-2.7625,-2.7625,-2.7625,-2.7625,-2.7625,-2.7625,-2.7625,-2.7625,-2.7625,-2.7625,-2.7625,-2.7625,-2.7625,-2.7625,-2.7625,-2.7625,-2.7625,-2.7625,-2.7625,-2.7625,-2.7625,-2.7625,-2.7625,-2.7625,-2.781,-2.7894,-2.7894,-2.8125,-2.8255,-2.8255,-2.8764,-2.9134,-2.9134,-3.0064,-3.0601,-3.0601,-3.1015,-3.119,-3.119,-3.119,-3.0615,-2.9397,-2.8146,-2.752,-2.752,-2.752,-2.7368,-2.7097,-2.7097,-2.6945,-2.6708,-2.6979,-2.6945,-2.6691,-2.6691,-2.6691,-2.6691,-2.6691,-2.686,-2.7097,-2.7097,-2.7588,-2.823,0.0,0.0,0.0,0.0,0.0,0.0,0.0,0.0,0.0,-3.119,0.0,0.0,0.0,0.0,-3.119,-3.119,-3.1015,-3.0576,-2.9761,-2.9496,-2.9042,-2.8255,-2.7993,-2.791,-2.791,-2.771,-2.7625,-2.7625,-2.7625,-2.7625,-2.7625,-2.7625,-2.7625,-2.7625,-2.7625,-2.7625,-2.7625,-2.7625,-2.7625,-2.7625,-2.7625,-2.7625,-2.7625,-2.7625,-2.7625,-2.7625,-2.7625,-2.7625,-2.7625,-2.7625,-2.7625,-2.7625,-2.7625,-2.7625,-2.7625,-2.7625,-2.7625,-2.7625,-2.7625,-2.7625,-2.7625,-2.7625,-2.7408,-2.7306,-2.756,-2.7408,-2.7306,-2.7575,-2.7625,-2.7625,-2.7625,-2.7625,-2.7625,-2.7625,-2.7625,-2.7625,-2.7625,-2.7625,-2.7625,-2.7625,-2.7625,-2.7625,-2.7625,-2.814,-2.8511,-2.8511,-2.9406,-2.9995,-2.9995,-3.0559,-3.0858,-3.0835,-3.0581,-2.9854,-2.8602,-2.7334,-2.6691,-2.6691,-2.6691,-2.6691,-2.6691,-2.6691,-2.6691,-2.6691,-2.6691,-2.6691,-2.6691,-2.6691,-2.6691,-2.6691,-2.6691,-2.6691,-2.6691,-2.6691,-2.7012,-2.7452,0.0,0.0,0.0,0.0,0.0,0.0,0.0,0.0,-3.0518,-3.1112,0.0,0.0,0.0,0.0,0.0,-3.119,-3.0658,-3.0293,-3.0293,-2.9761,-2.9406,-2.9361,-2.8826,-2.8511,-2.8463,-2.791,-2.7625,-2.7625,-2.7625,-2.7625,-2.7625,-2.7625,-2.7625,-2.7625,-2.7625,-2.7625,-2.7625,-2.7625,-2.7625,-2.7625,-2.7625,-2.7625,-2.7625,-2.7625,-2.7625,-2.7625,-2.7625,-2.7625,-2.7625,-2.7625,-2.7625,-2.7625,-2.7625,-2.7625,-2.7625,-2.7625,-2.7625,-2.7625,0.0,0.0,0.0,-2.7625,-2.7034,-2.6721,-2.7458,-2.7034,-2.6721,-2.7458,-2.7625,-2.7625,-2.7625,-2.7625,-2.7625,-2.7625,-2.7625,-2.7625,-2.7625,-2.7625,-2.7625,-2.7625,-2.7625,-2.7625,-2.7625,-2.814,-2.8463,-2.8463,-2.9042,-2.9361,-2.9361,-2.9951,-3.0186,-3.0087,-2.9381,-2.8602,-2.7789,-2.7063,-2.6691,-2.6691,-2.6691,-2.6691,-2.6691,-2.6691,-2.6691,-2.6691,-2.6691,-2.6691,-2.6691,-2.6691,-2.6691,-2.6691,-2.6691,-2.6691,-2.6691,-2.6691,-2.6691,-2.6691,0.0,0.0,0.0,0.0,0.0,0.0,-2.9717,-3.0038,-3.0335,0.0,0.0,0.0,-3.119,-3.119,-3.119,-3.119,-3.1055,-3.0757,-3.0351,-3.0123,-2.9673,-2.8779,-2.8606,-2.8286,-2.786,-2.7675,-2.7625,-2.7625,-2.7625,-2.7625,-2.7625,-2.7625,-2.7625,-2.7625,-2.7625,-2.7625,-2.7625,-2.7625,-2.7625,-2.7625,-2.7625,-2.7625,-2.7625,-2.7625,-2.7625,-2.7625,-2.7625,-2.7625,-2.7625,-2.7625,-2.7625,-2.7625,-2.7625,-2.7625,-2.7625,-2.7625,-2.7625,-2.7625,-2.7625,0.0,0.0,0.0,0.0,0.0,-2.756,-2.7458,-2.7357,-2.7575,-2.7625,-2.7625,-2.7625,-2.7625,-2.7625,-2.7625,-2.7625,-2.7625,-2.7625,-2.7625,-2.7625,-2.7625,-2.7625,-2.7625,-2.7625,-2.776,-2.786,-2.786,-2.8415,-2.8732,-2.8732,-2.9316,-2.9609,-2.9457,-2.8727,-2.8148,-2.7789,-2.7063,-2.6691,-2.6691,-2.6691,-2.6691,-2.6691,-2.6691,-2.6691,-2.6691,-2.6691,-2.6691,-2.6691,-2.6691,-2.6691,-2.6691,-2.6691,-2.6691,-2.6691,-2.6691,-2.6691,-2.6691,0.0,0.0,0.0,0.0,0.0,-2.9717,-2.9134,-2.9316,-2.9629,0.0,0.0,0.0,-3.0797,-3.1055,-3.119,-3.119,-3.0975,-3.0658,-3.0293,-3.0064,-2.9629,-2.8919,-2.8654,-2.8334,-2.7993,-2.771,-2.7625,-2.7625,-2.7625,-2.7625,-2.7625,-2.7625,-2.7625,-2.7625,-2.7625,-2.7625,-2.7625,-2.7625,-2.7625,-2.7625,-2.7625,-2.7625,-2.7625,-2.7625,-2.7625,-2.7625,-2.7625,-2.7625,-2.7625,-2.7625,-2.7625,-2.7625,-2.7625,-2.7625,-2.7625,-2.7625,-2.7625,-2.7625,-2.7625,-2.7625,-2.7625,-2.7625,0.0,0.0,-2.7524,-2.7357,-2.7255,-2.7524,-2.7625,-2.7625,-2.7625,-2.7625,-2.7625,-2.7625,-2.7625,-2.7625,-2.7625,-2.7625,-2.7625,-2.7625,-2.7625,-2.7625,-2.7625,-2.7625,-2.7625,-2.7625,-2.791,-2.8222,-2.8463,-2.8826,-2.8809,-2.8396,-2.7973,-2.7431,-2.6697,-2.6303,-2.6087,-2.6087,-2.628,-2.6401,-2.6401,-2.6401,-2.6401,-2.6401,-2.6401,-2.6401,-2.6401,-2.6624,-2.6691,-2.6691,-2.6691,-2.6691,-2.6691,-2.6691,-2.6691,-2.6691,0.0,0.0,-3.0838,-2.9717,-2.9451,-2.918,-2.8606,-2.8511,-2.8685,0.0,-2.9361,-2.9629,-3.0208,-3.0797,-3.1112,-3.119,-3.0699,-3.0393,-3.0293,-2.9805,-2.9451,-2.9316,-2.8779,-2.8463,-2.8415,-2.7845,-2.7625,-2.7625,-2.7625,-2.7625,-2.7625,-2.7625,-2.7625,-2.7625,-2.7625,-2.7625,-2.7625,-2.7625,-2.7625,-2.7625,-2.7625,-2.7625,-2.7625,-2.7625,-2.7625,-2.7625,-2.7625,-2.7625,-2.7625,-2.7625,-2.7625,-2.7625,-2.7625,-2.7625,-2.7625,-2.7625,-2.7625,-2.7625,-2.7625,-2.7625,-2.7625,-2.7625,-2.71,0.0,-2.7458,-2.7086,-2.6826,-2.7458,-2.7625,-2.7625,-2.7625,-2.7625,-2.7625,-2.7625,-2.7625,-2.7625,-2.7625,-2.7625,-2.7625,-2.7625,-2.7625,-2.7625,-2.7625,-2.7625,-2.7625,-2.7625,-2.7625,-2.781,-2.8367,-2.8354,-2.7922,-2.7201,-2.7131,-2.6486,-2.5221,-2.5221,-2.5221,-2.5221,-2.5689,-2.5924,-2.5924,-2.5924,-2.5924,-2.5924,-2.5961,-2.6013,-2.6049,-2.6436,-2.6657,-2.6691,-2.6691,-2.6691,-2.6691,-2.6691,-2.6691,-2.6691,-3.119,-3.119,-3.0975,-3.0251,-2.9717,-2.918,-2.8606,-2.8511,-2.8559,-2.8654,-2.9104,-2.9629,-3.0208,-3.0393,-3.0658,-3.1151,-3.1095,-3.0838,-3.0335,-3.0208,-2.9673,-2.8748,-2.8559,-2.8271,-2.781,-2.766,-2.7625,-2.7625,-2.7625,-2.7625,-2.7625,-2.7625,-2.7625,-2.7625,-2.7625,-2.7625,-2.7625,-2.7625,-2.7625,-2.7625,-2.7625,-2.7625,-2.7625,-2.7625,-2.7625,-2.7625,-2.7625,-2.7625,-2.7625,-2.7625,-2.7625,-2.7625,-2.7625,-2.7625,-2.7625,-2.7625,-2.7625,-2.7625,-2.7625,-2.7625,-2.7625,-2.7625,-2.7509,0.0,-2.7575,-2.7509,-2.7408,-2.7575,-2.7625,-2.7625,-2.7625,-2.7625,-2.7625,-2.7625,-2.7625,-2.7625,-2.7625,-2.7625,-2.7625,-2.7625,-2.7625,-2.7625,-2.7625,-2.7625,-2.7625,-2.7625,-2.7625,-2.766,-2.776,-2.7248,-2.6869,-2.657,-2.6053,-2.5617,-2.5182,-2.5221,-2.5221,-2.5221,-2.5297,-2.5335,-2.5335,-2.5335,-2.5335,-2.5373,-2.5815,-2.6013,-2.6013,-2.612,-2.6367,-2.6691,-2.6691,-2.6691,-2.6691,-2.6691,-2.6691,-2.6691,-3.0797,-3.1015,-3.0918,-3.0038,-2.9848,-2.954,-2.8654,-2.8511,-2.8367,-2.8091,-2.8591,-2.9058,-2.9361,-2.9673,-2.9978,-3.0293,-3.0293,-3.0166,-2.9848,-2.9585,-2.9134,-2.8511,-2.8222,-2.791,-2.7625,-2.7625,-2.7625,-2.7625,-2.7625,-2.7625,-2.7625,-2.7625,-2.7625,-2.7625,-2.7625,-2.7625,-2.7625,-2.7625,-2.7625,-2.7625,-2.7625,-2.7625,-2.7625,-2.7625,-2.7625,-2.7625,-2.7625,-2.7625,-2.7625,-2.7625,-2.7625,-2.7625,-2.7625,-2.7625,-2.7625,-2.7625,-2.7625,-2.7625,-2.7625,-2.7625,-2.7625,-2.7625,-2.7625,0.0,0.0,-2.7625,-2.7625,-2.7625,-2.7625,-2.7625,-2.7625,-2.7625,-2.7625,-2.7625,-2.7625,-2.7625,-2.7625,-2.7625,-2.7625,-2.7625,-2.7625,-2.7625,-2.7625,-2.7625,-2.7625,-2.7625,-2.7625,-2.7475,-2.7096,-2.6767,-2.6266,-2.553,-2.518,-2.482,-2.4405,-2.4389,-2.4389,-2.4389,-2.4657,-2.4776,-2.4776,-2.4776,-2.4776,-2.4831,-2.5105,-2.5221,-2.5221,-2.5486,-2.5762,-2.598,-2.6245,-2.6505,-2.6691,-2.6691,-2.6691,-2.6691,-3.0559,-3.0781,-3.0699,-2.9761,-2.9761,-2.9673,-2.8779,-2.8463,-2.814,-2.766,-2.8042,-2.8367,-2.8463,-2.9042,-2.9451,-2.9585,-2.9585,-2.954,-2.9406,-2.8826,-2.8463,-2.8319,-2.786,-2.7625,-2.7625,-2.7625,-2.7625,-2.7625,-2.7625,-2.7625,-2.7625,-2.7625,-2.7625,-2.7625,-2.7625,-2.7625,-2.7625,-2.7625,-2.7625,-2.7625,-2.7625,-2.7625,-2.7625,-2.7625,-2.7625,-2.7625,-2.7625,-2.7625,-2.7625,-2.7625,-2.7625,-2.7625,-2.7625,-2.7625,-2.7625,-2.7625,-2.7625,-2.7625,-2.7625,-2.7625,-2.7625,-2.7625,-2.7625,-2.7625,0.0,0.0,0.0,-2.7625,-2.7625,-2.7625,-2.7625,-2.7625,-2.758,-2.7445,-2.7535,-2.7565,-2.7445,-2.7535,-2.7625,-2.7625,-2.7625,-2.7625,-2.7625,-2.7625,-2.7625,-2.7625,-2.7505,-2.7156,-2.6617,-2.6348,-2.5719,-2.4612,-2.4448,-2.4163,-2.361,-2.3595,-2.3595,-2.3595,-2.4032,-2.4225,-2.4225,-2.4225,-2.4225,-2.4266,-2.4348,-2.4389,-2.443,-2.4871,-2.5105,-2.5259,-2.5689,-2.6139,-2.659,-2.659,-2.6624,-2.6691,-3.1112,-3.0699,-3.0335,-3.0208,-2.9361,-2.8826,-2.9225,-2.84,-2.7675,-2.7625,-2.766,-2.791,-2.8415,-2.9042,-2.9629,-3.0166,-3.0208,-2.9995,-2.9451,-2.8826,-2.8286,-2.771,-2.7625,-2.7625,-2.7625,-2.7625,-2.7625,-2.7625,-2.7625,-2.7625,-2.7625,-2.7625,-2.7625,-2.7625,-2.7625,-2.7625,-2.7625,-2.7625,-2.7625,-2.7625,-2.7625,-2.7625,-2.7625,-2.7625,-2.7625,-2.7625,-2.7625,-2.7625,-2.7625,-2.7625,-2.7625,-2.7625,-2.7625,-2.7625,-2.7625,-2.7625,-2.7625,-2.7625,-2.7625,-2.7625,-2.7625,-2.7625,-2.7625,-2.7625,-2.7625,0.0,-2.7625,-2.7625,0.0,-2.7625,-2.7625,0.0,0.0,-2.6797,-2.7186,-2.7415,-2.6782,-2.72,-2.7625,-2.7625,-2.7625,-2.7625,-2.7625,-2.7625,-2.7625,-2.7625,-2.7036,-2.6662,-2.6587,-2.548,-2.4746,-2.4582,-2.4029,-2.3684,-2.3595,-2.3595,-2.3595,-2.3595,-2.3681,-2.3681,-2.3681,-2.3681,-2.3681,-2.3724,-2.4184,-2.4389,-2.4389,-2.4471,-2.4776,-2.5221,-2.5259,-2.5598,-2.6085,-2.6085,-2.6332,-2.6691,-3.0757,-3.0757,-3.0601,-2.9892,-2.9629,-2.9406,-2.8966,-2.8125,-2.7625,-2.7625,-2.7625,-2.771,-2.7944,-2.8222,-2.8448,-2.8717,-2.8748,-2.8622,-2.8352,-2.8125,-2.786,-2.7625,-2.7625,-2.7625,-2.7625,-2.7625,-2.7625,-2.7625,-2.7625,-2.7625,-2.7625,-2.7625,-2.7625,-2.7625,-2.7625,-2.7625,-2.7625,-2.7625,-2.7625,-2.7625,-2.7625,-2.7625,-2.7625,-2.7625,-2.7625,-2.756,-2.71,-2.7255,-2.7625,-2.7625,-2.7625,-2.7625,-2.7625,-2.7625,-2.7625,-2.7625,-2.7625,-2.7625,-2.7625,-2.7625,-2.7625,-2.7625,-2.7625,-2.7625,-2.7625,-2.7625,-2.7625,-2.7625,0.0,0.0,0.0,0.0,0.0,0.0,-2.7445,-2.752,-2.72,-2.7395,-2.7625,-2.7625,-2.7625,-2.7625,-2.7625,-2.7625,-2.746,-2.7036,-2.6426,-2.584,-2.5448,-2.4574,-2.4056,-2.3999,-2.3744,-2.3595,-2.3595,-2.3595,-2.3595,-2.3595,-2.3595,-2.3595,-2.3595,-2.3595,-2.3595,-2.3595,-2.3837,-2.3964,-2.3964,-2.3964,-2.4074,-2.4266,-2.4266,-2.4776,-2.5577,-2.5888,-2.6104,-2.6332,-3.0617,-3.0757,-3.0559,-2.9361,-2.954,-2.9451,-2.8415,-2.7993,-2.781,-2.7625,-2.7625,-2.7625,-2.7625,-2.776,-2.786,-2.786,-2.786,-2.786,-2.786,-2.766,-2.7625,-2.7625,-2.7625,-2.7625,-2.7625,-2.7625,-2.7625,-2.7625,-2.7625,-2.7625,-2.7625,-2.7625,-2.7625,-2.7625,-2.7625,-2.7625,-2.7625,-2.7625,-2.7625,-2.7625,-2.7625,-2.7458,-2.7306,-2.7306,-2.7306,-2.7255,-2.6669,-2.6982,-2.7625,-2.7625,-2.7625,-2.7625,-2.7625,-2.7625,-2.7625,-2.7625,-2.7625,-2.7625,-2.7625,-2.7625,-2.7625,-2.7625,-2.7625,-2.7625,-2.7625,-2.7625,-2.7625,-2.7625,-2.7625,0.0,0.0,0.0,-2.7565,-2.7385,0.0,-2.7565,-2.732,-2.7455,-2.7625,-2.7625,-2.7625,-2.7625,-2.7625,-2.7408,-2.7089,-2.6647,-2.5775,-2.5092,-2.4642,-2.4011,-2.3642,-2.361,-2.3595,-2.3595,-2.3595,-2.3595,-2.3595,-2.3595,-2.3595,-2.3595,-2.3595,-2.3595,-2.3595,-2.3595,-2.3595,-2.3595,-2.3595,-2.3595,-2.3595,-2.3595,-2.3595,-2.4074,-2.4816,-2.554,-2.5888,-2.6085,-3.119,-3.0699,-2.9951,-2.8732,-2.8559,-2.8319,-2.771,-2.8091,-2.8286,-2.7675,-2.7625,-2.7625,-2.7625,-2.814,-2.8463,-2.8463,-2.8463,-2.8463,-2.8463,-2.7894,-2.7625,-2.7625,-2.7625,-2.7625,-2.7625,-2.7625,-2.7625,-2.7625,-2.7625,-2.7625,-2.7625,-2.7625,-2.7625,-2.7625,-2.7625,-2.7625,-2.7625,-2.7625,-2.7625,-2.7625,-2.7625,-2.7152,-2.6563,-2.6563,-2.6563,-2.651,-2.651,-2.6982,-2.7625,-2.7625,-2.7625,-2.7625,-2.7625,-2.7625,-2.7625,-2.7625,-2.7625,-2.7625,-2.7625,-2.7625,-2.7625,-2.7625,-2.7625,-2.7625,-2.7625,-2.7625,-2.7625,-2.7625,-2.7625,-2.7625,-2.7625,-2.7625,-2.7415,-2.6722,-2.7156,0.0,0.0,-2.7171,-2.7625,-2.7625,-2.7625,-2.7625,-2.7625,-2.693,-2.6564,-2.6583,-2.5316,-2.453,-2.4612,-2.3955,-2.3625,-2.3595,-2.3595,-2.3595,-2.3595,-2.3595,-2.3595,-2.3595,-2.3595,-2.3595,-2.3595,-2.3595,-2.3595,-2.3595,-2.3595,-2.3595,-2.3595,-2.3595,-2.3595,-2.3595,-2.3595,-2.3638,-2.3794,-2.4831,-2.5561,-2.6085,-3.0699,-3.074,-3.0518,-2.9316,-2.8795,-2.8286,-2.766,-2.776,-2.781,-2.7625,-2.7625,-2.7625,-2.7625,-2.776,-2.7894,-2.7894,-2.7894,-2.7894,-2.7894,-2.771,-2.7625,-2.7625,-2.7625,-2.7625,-2.7625,-2.7625,-2.7625,-2.7625,-2.7625,-2.7625,-2.7625,-2.7625,-2.7625,-2.7625,-2.7625,-2.7625,-2.7625,-2.7625,-2.7625,-2.7625,-2.7625,-2.6864,-2.5783,-2.5783,-2.5783,-2.5783,-2.5783,-2.6229,-2.6878,-2.6878,-2.7203,-2.7509,-2.7049,-2.7203,-2.7625,-2.7625,-2.7625,-2.7625,-2.7625,-2.7625,-2.7625,-2.7625,-2.7625,-2.7625,-2.7625,-2.7625,-2.7625,-2.7625,-2.7625,-2.7625,-2.7625,-2.7625,-2.755,-2.7275,-2.7475,-2.755,0.0,-2.749,-2.7625,-2.7625,-2.7625,-2.7625,-2.7625,-2.6971,-2.6387,-2.5989,-2.4721,-2.3782,-2.3389,-2.2689,-2.2363,-2.2363,-2.2363,-2.2363,-2.2363,-2.2363,-2.2575,-2.3009,-2.3009,-2.3009,-2.3024,-2.3421,-2.3377,-2.3024,-2.3421,-2.3595,-2.3595,-2.3595,-2.3595,-2.3595,-2.3595,-2.3595,-2.3709,-2.4816,-2.5297,-2.5524,-3.0699,-3.0757,-3.0518,-2.9271,-2.8591,-2.8042,-2.766,-2.7625,-2.7625,-2.7625,-2.7625,-2.7625,-2.7625,-2.7625,-2.7625,-2.7625,-2.7625,-2.7625,-2.7625,-2.7625,-2.7625,-2.7625,-2.7625,-2.7625,-2.7625,-2.7625,-2.7625,-2.7625,-2.7625,-2.7625,-2.7625,-2.7625,-2.7625,-2.7625,-2.7625,-2.7625,-2.7625,-2.7625,-2.7625,-2.7625,-2.7625,-2.6864,-2.5728,-2.5508,-2.5231,-2.5007,-2.5007,-2.5453,-2.6122,-2.6122,-2.6443,-2.6759,-2.6563,-2.6826,-2.7255,-2.7509,-2.7625,-2.7625,-2.7625,-2.7625,-2.7625,-2.7625,-2.7625,-2.7625,-2.7625,-2.7625,-2.7625,-2.7625,-2.7625,-2.7625,-2.7625,-2.7625,-2.7625,-2.7625,-2.7625,-2.7625,0.0,-2.7625,-2.7535,-2.7245,-2.7215,-2.7215,-2.7215,-2.6208,-2.535,-2.4958,-2.3717,-2.2774,-2.2388,-2.1946,-2.1697,-2.1697,-2.1697,-2.1697,-2.1697,-2.1697,-2.1899,-2.2346,-2.2346,-2.2346,-2.2346,-2.2995,-2.3054,-2.274,-2.3334,-2.3595,-2.3595,-2.3595,-2.3595,-2.3595,-2.3595,-2.3595,-2.3724,-2.4592,-2.5028,-2.5259,-3.119,-3.0699,-2.9935,-2.8779,-2.8042,-2.761,-2.761,-2.7625,-2.7625,-2.7625,-2.7625,-2.7625,-2.7625,-2.7625,-2.7625,-2.7625,-2.7625,-2.7625,-2.7625,-2.7625,-2.7625,-2.7625,-2.7625,-2.7625,-2.7625,-2.7625,-2.7625,-2.7625,-2.7625,-2.7625,-2.7625,-2.7625,-2.7625,-2.7625,-2.7625,-2.7625,-2.7625,-2.7625,-2.7625,-2.7625,-2.756,-2.7086,-2.6336,-2.5618,-2.4908,-2.4234,-2.4292,-2.4738,-2.5342,-2.5342,-2.5342,-2.5508,-2.6229,-2.6457,-2.6669,-2.7357,-2.7625,-2.7625,-2.7625,-2.7625,-2.7625,-2.7625,-2.7625,-2.7625,-2.7625,-2.7625,-2.7625,-2.7625,-2.7625,-2.7625,-2.7625,-2.7625,-2.7625,-2.7625,-2.7625,-2.7625,-2.7625,-2.7625,-2.732,-2.6662,-2.6557,-2.6542,-2.6494,-2.4726,-2.3616,-2.364,-2.2374,-2.1603,-2.1643,-2.1663,-2.1649,-2.1602,-2.1602,-2.1602,-2.1602,-2.1602,-2.1602,-2.1663,-2.1663,-2.1663,-2.1663,-2.2346,-2.2649,-2.2649,-2.3275,-2.3551,-2.3551,-2.3595,-2.3595,-2.3595,-2.3595,-2.3595,-2.3681,-2.4184,-2.4736,-2.5182,-3.119,-3.0699,-3.0208,-2.9892,-2.895,-2.8286,-2.8286,-2.791,-2.7625,-2.7625,-2.7625,-2.7625,-2.7625,-2.7625,-2.7625,-2.7625,-2.7625,-2.7625,-2.7625,-2.7625,-2.7625,-2.7625,-2.7625,-2.7625,-2.7625,-2.7625,-2.7625,-2.7625,-2.7625,-2.7625,-2.7625,-2.7625,-2.7625,-2.7625,-2.7625,-2.7625,-2.7625,-2.7625,-2.7625,-2.756,-2.6982,-2.6336,-2.5618,-2.4851,-2.4105,-2.3484,-2.406,-2.4408,-2.4567,-2.4567,-2.4951,-2.5453,-2.5618,-2.6068,-2.6669,-2.7357,-2.7625,-2.7625,-2.7625,-2.7625,-2.7625,-2.7625,-2.7625,-2.7625,-2.7625,-2.7625,-2.7625,-2.7625,-2.7625,-2.7625,-2.7625,-2.7625,-2.7625,-2.7625,-2.7625,-2.7625,-2.7625,-2.7625,-2.732,-2.6662,-2.6153,-2.5697,-2.5233,-2.4264,-2.3467,-2.3007,-2.2159,-2.1505,-2.1028,-2.1028,-2.0769,-2.0283,-2.0283,-2.0283,-2.0283,-2.0283,-2.0534,-2.1028,-2.1028,-2.1028,-2.1077,-2.1677,-2.1724,-2.1369,-2.2452,-2.292,-2.2965,-2.3421,-2.3595,-2.3595,-2.3595,-2.3595,-2.3681,-2.4184,-2.4736,-2.5144,-3.119,-3.0699,-3.0293,-3.0293,-2.9316,-2.8511,-2.8511,-2.7993,-2.7625,-2.7625,-2.7625,-2.7625,-2.7625,-2.7625,-2.7625,-2.7625,-2.7625,-2.7625,-2.7625,-2.7625,-2.7625,-2.7625,-2.7625,-2.7625,-2.7625,-2.7625,-2.7625,-2.7625,-2.7625,-2.7625,-2.7625,-2.7625,-2.7625,-2.7625,-2.7625,-2.7625,-2.7625,-2.7625,-2.7408,-2.7086,-2.6669,-2.6068,0.0,-2.4567,-2.4002,-2.3662,-2.3767,-2.3767,-2.3767,-2.3767,-2.4279,-2.4951,-2.5287,-2.5906,-2.6669,-2.7357,-2.7625,-2.7625,-2.7625,-2.7625,-2.7625,-2.7625,-2.7625,-2.7625,-2.7625,-2.7625,-2.7625,-2.7625,-2.7625,-2.7625,-2.7625,-2.7625,-2.7625,-2.7625,-2.7625,-2.7625,-2.7625,-2.7625,-2.7215,-2.6273,-2.5839,-2.5127,-2.396,-2.3226,-2.2586,-2.192,-2.1238,-2.072,-2.0396,-2.0346,-2.0207,-1.9798,-1.9798,-1.9798,-1.9798,-1.9798,-2.0003,-2.0346,-2.0346,-2.0346,-2.0396,-2.1015,-2.1113,-2.0845,-2.1833,-2.2452,-2.274,-2.3054,-2.3377,-2.3595,-2.3595,-2.3595,-2.3638,-2.3948,-2.4225,-2.4471,-3.119,-3.0699,-3.0293,-3.0293,-2.9316,-2.8511,-2.8511,-2.7993,-2.7625,-2.7625,-2.7625,-2.7625,-2.7625,-2.7625,-2.7625,-2.7625,-2.7625,-2.7625,-2.7625,-2.7625,-2.7625,-2.7625,-2.7625,-2.7625,-2.7625,-2.7625,-2.7625,-2.7625,-2.7625,-2.7625,-2.7625,-2.7625,-2.7625,-2.7625,-2.7625,-2.7625,-2.7625,-2.7625,-2.7188,-2.651,-2.6404,-2.5906,-2.5175,-2.4452,-2.4118,-2.406,-2.3365,-2.3078,-2.3078,-2.3078,-2.3531,-2.4292,-2.5007,-2.5673,-2.6336,-2.7086,-2.7408,-2.7473,-2.7473,-2.7524,-2.7625,-2.7625,-2.7625,-2.7625,-2.7625,-2.7625,-2.7625,-2.7625,-2.7625,-2.7625,-2.7625,-2.7625,-2.7625,-2.7625,-2.7625,-2.7625,-2.7625,-2.755,-2.6976,-2.5749,-2.554,0.0,-2.2869,-2.2146,-2.152,-2.0845,-2.0346,-1.9991,-1.9798,-1.9901,-1.9901,-1.9798,-1.9798,-1.9798,-1.9798,-1.9798,-1.9798,-1.9798,-1.9798,-1.9798,-1.9798,-2.0396,-2.0646,-2.0696,-2.1342,-2.196,-2.2603,-2.2649,-2.3054,-2.3595,-2.3595,-2.3595,-2.3595,-2.3595,-2.3595,-2.3595,-3.119,-3.0699,-3.0293,-3.0293,-2.9316,-2.8511,-2.8511,-2.7993,-2.7625,-2.7625,-2.7625,-2.7625,-2.7625,-2.7625,-2.7625,-2.7625,-2.7625,-2.7625,-2.7625,-2.7625,-2.7625,-2.7625,-2.7625,-2.7625,-2.7625,-2.7625,-2.7625,-2.7625,-2.7625,-2.7625,-2.7625,-2.7625,-2.7625,-2.7625,-2.7625,-2.7625,-2.7625,-2.7625,-2.7188,-2.6457,-2.5837,-2.5119,-2.4408,-2.359,-2.3305,-2.3305,-2.3125,-2.3078,-2.3078,-2.3078,-2.3185,-2.3424,-2.4221,-2.4567,-2.4851,-2.5563,-2.6229,-2.6669,-2.6669,-2.7152,-2.7625,-2.7625,-2.7625,-2.7625,-2.7625,-2.7625,-2.7625,-2.7625,-2.7625,-2.7625,-2.7625,-2.7625,-2.7625,-2.7625,-2.7625,-2.7625,-2.7625,-2.7096,-2.6482,-2.5689,-2.5136,-2.4252,-2.2826,-2.2603,-2.2035,-2.0894,-2.1148,-2.089,-1.985,-2.0295,-2.0346,-1.9798,-1.9798,-1.9798,-1.9798,-1.9798,-1.9798,-1.9798,-1.9798,-1.9798,-1.9798,-1.9901,-2.0003,-2.0003,-2.0683,-2.1307,-2.1899,-2.2452,-2.3054,-2.3595,-2.3595,-2.3595,-2.3595,-2.3595,-2.3595,-2.3595,-3.0797,-3.0251,-2.9717,-2.9406,-2.8638,-2.8042,-2.8042,-2.781,-2.7625,-2.7625,-2.7625,-2.7625,-2.7625,-2.7625,-2.7625,-2.7625,-2.7625,-2.7625,-2.7625,-2.7625,-2.7625,-2.7625,-2.7625,-2.7625,-2.7625,-2.7625,-2.7625,-2.7625,-2.7625,-2.7625,-2.7625,-2.7625,-2.7625,-2.7625,-2.7625,-2.7625,-2.7625,-2.7625,-2.7188,-2.6457,-2.5673,-2.4951,-2.4234,-2.3424,-2.3078,-2.3078,-2.3078,-2.3078,-2.3078,-2.3078,-2.3365,-2.3767,-2.4176,-2.4567,-2.4951,-2.5287,-2.5906,-2.6404,-2.6014,-2.6443,-2.7034,-2.7034,-2.7034,-2.7137,-2.7524,-2.7625,-2.7625,-2.7625,-2.7625,-2.7625,-2.7625,-2.7625,-2.7625,-2.7625,-2.7625,-2.7625,-2.7625,-2.7006,-2.6348,-2.5689,-2.5031,-2.4223,-2.326,-2.3157,-2.262,-2.1342,-2.1245,-2.1099,-2.0805,-2.0484,-2.0295,-2.0295,-2.0003,-1.9798,-1.9798,-1.9798,-1.9798,-1.9798,-1.9798,-1.9798,-1.9798,-1.9798,-1.9798,-1.9798,-2.0144,-2.0633,-2.1293,-2.1913,-2.2331,-2.2651,-2.2995,-2.3143,-2.3157,-2.3465,-2.3595,-2.3595,-3.0393,-2.9717,-2.9042,-2.8606,-2.7993,-2.7625,-2.7625,-2.7625,-2.7625,-2.7625,-2.7625,-2.7625,-2.7625,-2.7625,-2.7625,-2.7625,-2.7625,-2.7625,-2.7625,-2.7625,-2.7625,-2.7625,-2.7625,-2.7625,-2.7625,-2.7625,-2.7625,-2.7625,-2.7625,-2.7625,-2.7625,-2.7625,-2.7625,-2.7625,-2.7625,-2.7625,-2.7575,-2.7408,-2.693,-2.6176,-2.5453,-2.4738,-2.4002,-2.3365,-2.3078,-2.3078,-2.3078,-2.3078,-2.3078,-2.3078,-2.3531,-2.406,-2.406,-2.4452,-2.4894,-2.4894,-2.5453,-2.5906,-2.5342,-2.5837,-2.651,-2.651,-2.6616,-2.6878,-2.7458,-2.7625,-2.7625,-2.7625,-2.7625,-2.7625,-2.7625,-2.7625,-2.7625,-2.7625,-2.7625,-2.7625,-2.7625,-2.6886,-2.6183,-2.5674,-2.4896,-2.4193,-2.3655,-2.3595,-2.3172,-2.2179,-2.1677,-2.1486,-2.1697,-2.0756,-2.0383,-2.0795,-2.0156,-1.9798,-1.9798,-1.9798,-1.9798,-1.9798,-1.9798,-1.9798,-1.9798,-1.9798,-1.9798,-1.9798,-1.9798,-2.0207,-2.0845,-2.1424,-2.1791,-2.1946,-2.2498,-2.2785,-2.2965,-2.3421,-2.3595,-2.3595,-3.0208,-2.9361,-2.8559,-2.8511,-2.7993,-2.7625,-2.7625,-2.7625,-2.7625,-2.7625,-2.7625,-2.7625,-2.7625,-2.7625,-2.7625,-2.7625,-2.7625,-2.7625,-2.7625,-2.7625,-2.7625,-2.7625,-2.7625,-2.7625,-2.7625,-2.7625,-2.7625,-2.7625,-2.7625,-2.7625,-2.7625,-2.7625,-2.7625,-2.7625,-2.7625,-2.7625,-2.7575,-2.6878,-2.6176,-2.5453,-2.4681,-2.3943,-2.3185,-2.3138,-2.3078,-2.3078,-2.3078,-2.3078,-2.3078,-2.3078,-2.3125,-2.3185,-2.3185,-2.3245,-2.3305,-2.3305,-2.3884,-2.4509,-2.4408,-2.5453,-2.651,-2.651,-2.6982,-2.7524,-2.7575,-2.7625,-2.7625,-2.7625,-2.7625,-2.7625,-2.7625,-2.7625,-2.7625,-2.7625,-2.7625,-2.7625,-2.7625,-2.6497,-2.5674,-2.5615,-2.4477,-2.367,-2.361,-2.3595,-2.3551,-2.3406,-2.3363,-2.2846,-2.1744,-2.1602,-2.1293,-2.0795,-2.0156,-1.9798,-1.9798,-1.9798,-1.9798,-1.9798,-1.9798,-1.9798,-1.9798,-1.9798,-1.9798,-1.9798,-1.9798,-2.0207,-2.0845,-2.1424,-2.2053,-2.2603,-2.2694,-2.3009,-2.3508,-2.3595,-2.3595,-2.3595,-2.9225,-2.8826,-2.8367,-2.7993,-2.776,-2.7625,-2.7625,-2.7625,-2.7625,-2.7625,-2.7625,-2.7625,-2.7625,-2.7625,-2.7625,-2.7625,-2.7625,-2.7625,-2.7625,-2.7625,-2.7625,-2.7625,-2.7625,-2.7625,-2.7625,-2.7625,-2.7625,-2.7625,-2.7625,-2.7625,-2.7625,-2.7625,-2.7625,-2.7625,-2.7625,-2.7625,-2.756,-2.6826,-2.6336,-2.596,-2.4794,-2.4118,-2.3767,-2.3305,-2.3078,-2.3078,-2.3078,-2.3078,-2.3078,-2.3078,-2.3078,-2.3078,-2.3078,-2.3078,-2.3078,-2.3078,-2.3649,-2.4176,-2.3708,-2.4394,-2.5175,-2.5175,-2.5728,-2.6375,-2.6826,-2.7306,-2.7625,-2.7625,-2.7625,-2.7625,-2.7625,-2.7625,-2.7625,-2.7625,-2.7625,-2.7625,-2.7625,-2.6437,-2.5615,-2.5615,-2.4418,-2.3595,-2.3595,-2.3595,-2.3595,-2.3595,-2.3275,-2.2815,-2.2346,-2.1582,-2.1077,-2.0795,-2.0156,-1.9798,-1.9798,-1.9798,-1.9798,-1.9798,-1.9798,-1.9798,-1.9798,-1.9798,-1.9798,-1.9798,-1.9798,-1.9952,-2.0194,-2.0471,-2.072,-2.1015,-2.1403,-2.1913,-2.2515,-2.2905,-2.329,-2.3595,-2.8559,-2.8383,-2.8091,-2.766,-2.7625,-2.7625,-2.7625,-2.7625,-2.7625,-2.7625,-2.7625,-2.7625,-2.7625,-2.7625,-2.7625,-2.7625,-2.7625,-2.7625,-2.7625,-2.7625,-2.7509,-2.7306,-2.7306,-2.7306,-2.7306,-2.7306,-2.7357,-2.7625,-2.7625,-2.7625,-2.7625,-2.7625,-2.7625,-2.7625,-2.7625,-2.7625,-2.756,-2.6826,-2.6336,-2.6068,-2.4794,-2.4176,-2.3884,-2.3305,-2.3078,-2.3078,-2.3078,-2.3078,-2.3078,-2.3078,-2.3078,-2.3078,-2.3078,-2.3078,-2.3078,-2.3078,-2.3484,-2.3826,-2.3245,-2.3708,-2.4292,-2.4292,-2.4851,-2.5563,-2.6068,-2.6602,-2.7019,-2.7255,-2.7458,-2.7625,-2.7625,-2.7625,-2.7625,-2.7625,-2.7625,-2.755,-2.7305,-2.6318,-2.554,-2.5345,-2.4298,-2.3595,-2.3595,-2.3595,-2.3595,-2.3595,-2.3201,-2.2875,-2.2694,-2.1643,-2.0979,-2.0795,-2.0156,-1.9798,-1.9798,-1.9798,-1.9798,-1.9798,-1.9798,-1.9798,-1.9798,-1.9798,-1.9798,-1.9798,-1.9798,-1.9798,-1.9798,-1.9798,-1.9901,-2.0144,-2.061,-2.1161,-2.1758,-2.2239,-2.268,-2.3069,-2.8367,-2.7993,-2.7625,-2.7625,-2.7625,-2.7625,-2.7625,-2.7625,-2.7625,-2.7625,-2.7625,-2.7625,-2.7625,-2.7625,-2.7625,-2.7625,-2.7625,-2.7625,-2.7625,-2.7625,-2.724,-2.6563,-2.651,-2.651,-2.651,-2.651,-2.6878,-2.7625,-2.7625,-2.7625,-2.7625,-2.7625,-2.7625,-2.7625,-2.7625,-2.7625,-2.756,-2.6826,-2.6068,-2.5342,-2.4624,-2.3826,-2.3138,-2.3078,-2.3078,-2.3078,-2.3078,-2.3078,-2.3078,-2.3078,-2.3078,-2.3078,-2.3078,-2.3078,-2.3078,-2.3078,-2.3138,-2.3138,-2.3078,-2.3708,-2.4292,-2.4292,-2.4851,-2.5398,-2.5398,-2.5398,-2.5618,-2.6336,-2.7086,-2.7625,-2.7625,-2.7625,-2.7625,-2.7625,-2.7625,-2.7385,-2.6692,-2.6033,-2.536,-2.4672,-2.4029,-2.3595,-2.3595,-2.3595,-2.3595,-2.3595,-2.3595,-2.3334,-2.274,-2.2053,-2.1438,-2.0795,-2.0156,-1.9798,-1.9798,-1.9798,-1.9798,-1.9798,-1.9798,-1.9798,-1.9798,-1.9798,-1.9798,-1.9798,-1.9798,-1.9798,-1.9798,-1.9798,-2.0207,-2.0795,-2.0795,-2.1161,-2.1697,-2.1697,-2.1697,-2.1805,-2.786,-2.771,-2.7625,-2.7625,-2.7625,-2.7625,-2.7625,-2.7625,-2.7625,-2.7625,-2.7625,-2.7625,-2.7625,-2.7625,-2.7625,-2.7625,-2.7625,-2.7408,-2.6878,-2.6826,-2.6496,-2.5783,-2.6229,-2.651,-2.651,-2.6982,-2.7357,-2.7625,-2.71,-2.6826,-2.6826,-2.6826,-2.71,-2.7575,-2.7086,-2.7137,-2.7524,-2.6283,-2.5618,-2.5287,-2.3989,-2.3305,-2.3078,-2.3078,-2.3078,-2.3078,-2.3078,-2.3078,-2.3078,-2.3078,-2.3078,-2.3078,-2.3078,-2.3078,-2.3078,-2.3078,-2.3078,-2.3078,-2.3078,-2.3305,-2.3484,-2.3484,-2.406,-2.4624,-2.4624,-2.5063,-2.5618,-2.6336,-2.6669,-2.6982,-2.7524,-2.7625,-2.7625,-2.7625,-2.7625,-2.7385,-2.6677,-2.6019,-2.536,-2.4657,-2.4029,-2.3595,-2.3595,-2.3595,-2.3595,-2.3595,-2.3595,-2.3334,-2.274,-2.2498,-2.188,-2.0845,-2.0597,-2.0245,-1.9798,-1.9798,-1.9798,-1.9798,-1.9798,-1.9798,-1.9798,-1.9798,-1.9798,-1.9798,-1.9798,-1.9798,-1.9798,-1.9798,-1.9952,-2.0105,-2.0105,-2.0484,-2.1064,-2.1064,-2.1342,-2.1805,-2.7625,-2.7625,-2.7625,-2.7625,-2.7625,-2.7625,-2.7625,-2.7625,-2.7625,-2.7625,-2.7625,-2.7625,-2.7625,-2.7357,-2.7203,-2.7203,-2.7203,-2.6878,-2.6122,-2.6068,-2.5728,-2.5007,-2.5453,-2.5673,-2.5673,-2.6094,-2.6481,-2.6745,-2.6336,-2.6068,-2.6068,-2.6068,-2.6336,-2.6759,-2.6283,-2.6322,-2.6707,-2.5783,-2.5231,-2.4894,-2.3943,-2.3365,-2.3078,-2.3078,-2.3078,-2.3078,-2.3078,-2.3078,-2.3078,-2.3078,-2.3078,-2.3078,-2.3078,-2.3078,-2.3078,-2.3078,-2.3078,-2.3078,-2.3078,-2.3078,-2.3078,-2.3078,-2.3484,-2.3826,-2.3826,-2.4452,-2.5119,-2.5563,-2.5892,-2.6229,-2.6707,-2.6745,-2.6864,-2.7137,-2.7203,-2.6944,-2.6299,-2.5869,-2.527,-2.4343,-2.3864,-2.3595,-2.3595,-2.3595,-2.3595,-2.3595,-2.3595,-2.3421,-2.3054,-2.283,-2.2221,-2.1161,-2.1161,-2.0917,-2.0521,-2.0295,-2.0207,-2.0144,-1.9901,-1.9798,-1.9798,-1.9798,-1.9798,-1.9798,-1.9798,-1.9798,-1.9798,-1.9798,-1.9798,-1.9798,-1.9798,-2.0055,-2.0396,-2.0396,-2.067,-2.1086,-2.7625,-2.7625,-2.7625,-2.7625,-2.7625,-2.7625,-2.7625,-2.7625,-2.7625,-2.7625,-2.7575,-2.7509,-2.7509,-2.6878,-2.6404,-2.6336,-2.6404,-2.6122,-2.5342,-2.5342,-2.5007,-2.4234,-2.4292,-2.4292,-2.4292,-2.435,-2.4681,-2.5342,-2.5342,-2.5342,-2.5342,-2.5342,-2.5342,-2.5398,-2.5342,-2.5342,-2.5398,-2.5342,-2.4951,-2.4292,-2.4234,-2.3767,-2.3078,-2.3078,-2.3078,-2.3078,-2.3078,-2.3078,-2.3078,-2.3078,-2.3078,-2.3078,-2.3078,-2.3078,-2.3078,-2.3078,-2.3078,-2.3078,-2.3078,-2.3078,-2.3078,-2.3078,-2.3078,-2.3078,-2.3078,-2.3649,-2.4234,-2.4292,-2.4851,-2.5342,-2.5398,-2.5398,-2.5618,-2.6404,-2.651,-2.6271,-2.5685,-2.5615,-2.5106,-2.3759,-2.3595,-2.3595,-2.3595,-2.3595,-2.3595,-2.3595,-2.3595,-2.3595,-2.3595,-2.3054,-2.2452,-2.1805,-2.1758,-2.1758,-2.1697,-2.1113,-2.0795,-2.0696,-2.0156,-1.985,-1.9798,-1.9798,-1.9798,-1.9798,-1.9798,-1.9798,-1.9798,-1.9798,-1.9798,-1.9798,-1.9798,-1.9798,-1.9798,-1.9798,-1.9798,-1.9901,-2.7625,-2.7625,-2.7625,-2.7625,-2.7625,-2.7625,-2.7625,-2.7625,-2.7625,-2.7625,-2.7086,-2.6774,-2.6774,-2.6122,-2.5453,-2.4851,-2.5342,-2.5342,-2.4624,-2.4567,-2.4221,-2.3424,-2.3943,-2.4292,-2.4292,-2.4851,-2.4951,-2.4567,-2.5119,-2.5119,-2.4567,-2.4567,-2.4851,-2.5398,-2.4794,-2.4851,-2.5342,-2.4794,-2.4452,-2.4234,-2.3649,-2.3245,-2.3078,-2.3078,-2.3078,-2.3078,-2.3078,-2.3078,-2.3078,-2.3078,-2.3078,-2.3078,-2.3078,-2.3078,-2.3078,-2.3078,-2.3078,-2.3078,-2.3078,-2.3078,-2.3078,-2.3078,-2.3078,-2.3078,-2.3078,-2.3245,-2.3543,-2.4176,-2.4452,-2.4738,-2.5287,-2.5398,-2.5618,-2.6404,-2.651,-2.6271,-2.5685,-2.5615,-2.5106,-2.3759,-2.3595,-2.3595,-2.3595,-2.3595,-2.3595,-2.3595,-2.3595,-2.3595,-2.3595,-2.3465,-2.3098,-2.2498,-2.2452,-2.2193,-2.1697,-2.1113,-2.0547,-2.0055,-2.0396,-2.0295,-1.9798,-1.9798,-1.9798,-1.9798,-1.9798,-1.9798,-1.9798,-1.9798,-1.9798,-1.9798,-1.9798,-1.9798,-1.9798,-1.9798,-1.9798,-1.9901,-2.7625,-2.7625,-2.7625,-2.7625,-2.7625,-2.7625,-2.7625,-2.7625,-2.7625,-2.7625,-2.7255,-2.6878,-2.6563,-2.5837,-2.5119,-2.435,-2.4681,-2.4567,-2.3826,-2.3767,-2.3543,-2.3138,-2.3543,-2.3767,-2.3767,-2.4163,-2.415,-2.3767,-2.415,-2.4163,-2.3767,-2.3767,-2.4002,-2.4323,-2.393,-2.3989,-2.4323,-2.393,-2.3767,-2.3708,-2.3245,-2.3078,-2.3078,-2.3078,-2.3078,-2.3078,-2.3078,-2.3078,-2.3078,-2.3078,-2.3078,-2.3078,-2.3078,-2.3078,-2.3078,-2.3078,-2.3078,-2.3078,-2.3078,-2.3078,-2.3078,-2.3078,-2.3078,-2.3078,-2.3078,-2.3078,-2.3185,-2.3662,-2.3767,-2.3884,-2.4266,-2.4323,-2.461,-2.5342,-2.5544,-2.5445,-2.5131,-2.4893,-2.4473,-2.3671,-2.3377,-2.329,-2.3551,-2.3595,-2.3595,-2.3595,-2.3595,-2.3595,-2.3595,-2.3595,-2.3465,-2.3098,-2.3098,-2.295,-2.256,-2.1974,-2.1175,-2.0245,-2.066,-2.0459,-1.9798,-1.9798,-1.9798,-1.9798,-1.9798,-1.9798,-1.9798,-1.9798,-1.9798,-1.9798,-1.9798,-1.9798,-1.9798,-1.9798,-1.9798,-1.985,-2.7625,-2.7625,-2.7625,-2.7625,-2.7625,-2.7625,-2.7625,-2.7625,-2.7625,-2.7625,-2.7509,-2.7203,-2.6563,-2.5728,-2.4951,-2.435,-2.4176,-2.3826,-2.3125,-2.3078,-2.3078,-2.3078,-2.3078,-2.3078,-2.3078,-2.3078,-2.3078,-2.3078,-2.3078,-2.3078,-2.3078,-2.3078,-2.3078,-2.3078,-2.3078,-2.3078,-2.3078,-2.3078,-2.3078,-2.3078,-2.3078,-2.3078,-2.3078,-2.3078,-2.3078,-2.3078,-2.3078,-2.3078,-2.3078,-2.3078,-2.3078,-2.3078,-2.3078,-2.3078,-2.3078,-2.3078,-2.3078,-2.3078,-2.3078,-2.3078,-2.3078,-2.3078,-2.3078,-2.3078,-2.3078,-2.3078,-2.3078,-2.3078,-2.3078,-2.3078,-2.3078,-2.3078,-2.3365,-2.4176,-2.4269,-2.4304,-2.4355,-2.3889,-2.3493,-2.3349,-2.286,-2.2725,-2.326,-2.3406,-2.3465,-2.3465,-2.3551,-2.3595,-2.3595,-2.3595,-2.3595,-2.3595,-2.3595,-2.3508,-2.3319,-2.292,-2.2081,-2.0795,-2.0795,-2.0497,-1.9952,-1.985,-1.9798,-1.9798,-1.9798,-1.9798,-1.9798,-1.9798,-1.9798,-1.9798,-1.9798,-1.9798,-1.9798,-1.9798,-1.9798,-1.9798,-2.7625,-2.7625,-2.7625,-2.7625,-2.7625,-2.7625,-2.7625,-2.7625,-2.7625,-2.7625,-2.7034,-2.6616,-2.651,-2.5287,-2.4408,-2.4292,-2.3649,-2.3245,-2.3138,-2.3078,-2.3078,-2.3078,-2.3078,-2.3078,-2.3078,-2.3078,-2.3078,-2.3078,-2.3078,-2.3078,-2.3078,-2.3078,-2.3078,-2.3078,-2.3078,-2.3078,-2.3078,-2.3078,-2.3078,-2.3078,-2.3078,-2.3078,-2.3078,-2.3078,-2.3078,-2.3078,-2.3078,-2.3078,-2.3078,-2.3078,-2.3078,-2.3078,-2.3078,-2.3078,-2.3078,-2.3078,-2.3078,-2.3078,-2.3078,-2.3078,-2.3078,-2.3078,-2.3078,-2.3078,-2.3078,-2.3078,-2.3078,-2.3078,-2.3078,-2.3078,-2.3078,-2.3078,-2.3365,-2.4176,-2.3891,-2.3622,-2.3723,-2.325,-2.2658,-2.2063,-2.1899,-2.1899,-2.1993,-2.2529,-2.283,-2.283,-2.3334,-2.3595,-2.3595,-2.3595,-2.3595,-2.3595,-2.3595,-2.3069,-2.2025,-2.2438,-2.2081,-2.0795,-2.0795,-2.0759,-2.066,-2.0055,-1.9798,-1.9798,-1.9798,-1.9798,-1.9798,-1.9798,-1.9798,-1.9798,-1.9798,-1.9798,-1.9798,-1.9798,-1.9798,-1.9798,-2.7625,-2.7625,-2.7625,-2.7625,-2.7625,-2.7625,-2.7625,-2.7625,-2.7473,-2.7034,-2.6721,-2.6176,-2.5398,-2.4738,-2.4118,-2.3708,-2.3305,-2.3078,-2.3078,-2.3078,-2.3078,-2.3078,-2.3078,-2.3078,-2.3078,-2.3078,-2.3078,-2.3078,-2.3078,-2.3078,-2.3078,-2.3078,-2.3078,-2.3078,-2.3078,-2.3078,-2.3078,-2.3078,-2.3078,-2.3078,-2.3078,-2.3078,-2.3078,-2.3078,-2.3078,-2.3078,-2.3078,-2.3078,-2.3078,-2.3078,-2.3078,-2.3078,-2.3078,-2.3078,-2.3078,-2.3078,-2.3078,-2.3078,-2.3078,-2.3078,-2.3078,-2.3078,-2.3078,-2.3078,-2.3078,-2.3078,-2.3078,-2.3078,-2.3078,-2.3078,-2.3078,-2.3078,-2.3185,-2.3603,-2.3189,-2.2882,-2.2937,-2.2207,-2.1667,-2.169,-2.1424,-2.1342,-2.1663,-2.1993,-2.23,-2.2649,-2.262,-2.2891,-2.3551,-2.3275,-2.3275,-2.3595,-2.3275,-2.2995,-2.2741,-2.2331,-2.1866,-2.1293,-2.0944,-2.0597,-2.0245,-1.9952,-1.9798,-1.9798,-1.9798,-1.9798,-1.9798,-1.9798,-1.9798,-1.9798,-1.9798,-1.9798,-1.9798,-1.9798,-1.9798,-1.9798,-2.7625,-2.7625,-2.7625,-2.7625,-2.7625,-2.7625,-2.7625,-2.7625,-2.7357,-2.6616,-2.651,-2.6014,-2.4681,-2.4408,-2.406,-2.3424,-2.3185,-2.3078,-2.3078,-2.3078,-2.3078,-2.3078,-2.3078,-2.3078,-2.3078,-2.3078,-2.3078,-2.3078,-2.3078,-2.3078,-2.3078,-2.3078,-2.3078,-2.3078,-2.3078,-2.3078,-2.3078,-2.3078,-2.3078,-2.3078,-2.3078,-2.3078,-2.3078,-2.3078,-2.3078,-2.3078,-2.3078,-2.3078,-2.3078,-2.3078,-2.3078,-2.3078,-2.3078,-2.3078,-2.3078,-2.3078,-2.3078,-2.3078,-2.3078,-2.3078,-2.3078,-2.3078,-2.3078,-2.3078,-2.3078,-2.3078,-2.3078,-2.3078,-2.3078,-2.3078,-2.3078,-2.3078,-2.3027,-2.2902,-2.2495,-2.2161,-2.2031,-2.1199,-2.0733,-2.1183,-2.0868,-2.0733,-2.1232,-2.1424,-2.1771,-2.2406,-2.1993,-2.2179,-2.3319,-2.2965,-2.2965,-2.3595,-2.3009,-2.283,-2.3172,-2.2039,-2.1472,-2.1472,-2.0881,-2.0396,-2.0055,-1.985,-1.9798,-1.9798,-1.9798,-1.9798,-1.9798,-1.9798,-1.9798,-1.9798,-1.9798,-1.9798,-1.9798,-1.9798,-1.9798,-1.9798,-2.7625,-2.7625,-2.7625,-2.7625,-2.7625,-2.7625,-2.7625,-2.7625,-2.7357,-2.6616,-2.651,-2.6176,-2.5398,-2.4738,-2.4292,-2.4234,-2.3543,-2.3078,-2.3078,-2.3078,-2.3078,-2.3078,-2.3078,-2.3078,-2.3078,-2.3078,-2.3078,-2.3078,-2.3078,-2.3078,-2.3078,-2.3078,-2.3078,-2.3078,-2.3078,-2.3078,-2.3078,-2.3078,-2.3078,-2.3078,-2.3078,-2.3078,-2.3078,-2.3078,-2.3078,-2.3078,-2.3078,-2.3078,-2.3078,-2.3078,-2.3078,-2.3078,-2.3078,-2.3078,-2.3078,-2.3078,-2.3078,-2.3078,-2.3078,-2.3078,-2.3078,-2.3078,-2.3078,-2.3078,-2.3078,-2.3078,-2.3078,-2.3078,-2.3078,-2.3078,-2.3078,-2.3078,-2.2915,-2.2447,-2.1927,-2.1415,-2.0898,-2.0292,-1.9901,-1.994,-1.9901,-1.9901,-1.994,-2.0497,-2.1113,-2.1758,-2.1744,-2.1993,-2.274,-2.274,-2.2965,-2.3595,-2.3009,-2.2438,-2.1852,-2.121,-2.0845,-2.0845,-2.0194,-2.0144,-2.0709,-2.0105,-1.9798,-1.9798,-1.9798,-1.9798,-1.9798,-1.9798,-1.9798,-1.9798,-1.9798,-1.9798,-1.9798,-1.9798,-1.9798,-1.9798,-2.7625,-2.7625,-2.7625,-2.7625,-2.7625,-2.7625,-2.7625,-2.7625,-2.7188,-2.5946,-2.5837,-2.5342,-2.4092,-2.3695,-2.3543,-2.3543,-2.3245,-2.3078,-2.3078,-2.3078,-2.3078,-2.3078,-2.3078,-2.3078,-2.3078,-2.3078,-2.3078,-2.3078,-2.3078,-2.3078,-2.3078,-2.3078,-2.3078,-2.3078,-2.3078,-2.3078,-2.3078,-2.3078,-2.3078,-2.3078,-2.3078,-2.3078,-2.3078,-2.3078,-2.3078,-2.3078,-2.3078,-2.3078,-2.3078,-2.3078,-2.3078,-2.3078,-2.3078,-2.3078,-2.3078,-2.3078,-2.3078,-2.3078,-2.3078,-2.3078,-2.3078,-2.3078,-2.3078,-2.3078,-2.3078,-2.3078,-2.3078,-2.3078,-2.3078,-2.3078,-2.3078,-2.3078,-2.289,-2.2397,-2.1845,-2.1292,-2.0794,-2.0162,-1.9798,-1.9798,-1.9798,-1.9798,-1.9798,-2.0055,-2.0446,-2.1113,-2.0769,-2.0988,-2.1993,-2.21,-2.2179,-2.2409,-2.1833,-2.1799,-2.23,-2.0917,-2.0396,-2.0795,-2.0105,-1.9952,-2.0156,-1.9901,-1.9798,-1.9798,-1.9798,-1.9798,-1.9798,-1.9798,-1.9798,-1.9798,-1.9798,-1.9798,-1.9798,-1.9798,-1.9798,-1.9798,-2.7625,-2.7625,-2.7524,-2.7306,-2.7255,-2.7188,-2.6916,-2.6916,-2.6481,-2.5231,-2.5063,-2.4553,-2.3245,-2.3078,-2.3078,-2.3078,-2.3078,-2.3078,-2.3078,-2.3078,-2.3078,-2.3078,-2.3078,-2.3078,-2.3078,-2.3078,-2.3078,-2.3078,-2.3078,-2.3078,-2.3078,-2.3078,-2.3078,-2.3078,-2.3078,-2.3078,-2.3078,-2.3078,-2.3078,-2.3078,-2.3078,-2.3078,-2.3078,-2.3078,-2.3078,-2.3078,-2.3078,-2.3078,-2.3078,-2.3078,-2.3078,-2.3078,-2.3078,-2.3078,-2.3078,-2.3078,-2.3078,-2.3078,-2.3078,-2.3078,-2.3078,-2.3078,-2.3078,-2.3078,-2.3078,-2.3078,-2.3078,-2.3078,-2.3078,-2.3078,-2.3078,-2.3078,-2.2899,-2.2171,-2.1732,-2.123,-2.0501,-2.0049,-1.9798,-1.9798,-1.9798,-1.9798,-1.9798,-1.9798,-2.0105,-2.0759,-2.0207,-2.0283,-2.139,-2.1232,-2.128,-2.1697,-2.0917,-2.1028,-2.2081,-2.0584,-2.0055,-2.0497,-2.0003,-1.9798,-1.9798,-1.9798,-1.9798,-1.9798,-1.9798,-1.9798,-1.9798,-1.9798,-1.9798,-1.9798,-1.9798,-1.9798,-1.9798,-1.9798,-1.9798,-1.9798,-2.7625,-2.7625,-2.7357,-2.6616,-2.651,-2.6229,-2.5508,-2.5398,-2.5119,-2.4408,-2.4292,-2.4002,-2.3198,-2.3078,-2.3078,-2.3078,-2.3078,-2.3078,-2.3078,-2.3078,-2.3078,-2.3078,-2.3078,-2.3078,-2.3078,-2.3078,-2.3078,-2.3078,-2.3078,-2.3078,-2.3078,-2.3078,-2.3078,-2.3078,-2.3078,-2.3078,-2.3078,-2.3078,-2.3078,-2.3078,-2.3078,-2.3078,-2.3078,-2.3078,-2.3078,-2.3078,-2.3078,-2.3078,-2.3078,-2.3078,-2.3078,-2.3078,-2.3078,-2.3078,-2.3078,-2.3078,-2.3078,-2.3078,-2.3078,-2.3078,-2.3078,-2.3078,-2.3078,-2.3078,-2.3078,-2.3078,-2.3078,-2.3078,-2.3078,-2.3078,-2.3078,-2.3078,-2.2774,-2.1669,-2.1493,-2.1091,-1.9962,-1.9798,-1.9798,-1.9798,-1.9798,-1.9798,-1.9798,-1.9798,-2.0105,-2.0746,-2.0207,-2.0105,-2.0746,-2.0144,-2.037,-2.1649,-2.0471,-2.0105,-2.0795,-2.0156,-1.9798,-1.9798,-1.9798,-1.9798,-1.9798,-1.9798,-1.9798,-1.9798,-1.9798,-1.9798,-1.9798,-1.9798,-1.9798,-1.9798,-1.9798,-1.9798,-1.9798,-1.9798,-1.9798,-1.9798,-2.7625,-2.7625,-2.7524,-2.7306,-2.6826,-2.6457,-2.6229,-2.5728,-2.5119,-2.4408,-2.4292,-2.4002,-2.3198,-2.3078,-2.3078,-2.3078,-2.3078,-2.3078,-2.3078,-2.3078,-2.3078,-2.3078,-2.3078,-2.3078,-2.3078,-2.3078,-2.3078,-2.3078,-2.3078,-2.3078,-2.3078,-2.3078,-2.3078,-2.3078,-2.3078,-2.3078,-2.3078,-2.3078,-2.3078,-2.3078,-2.3078,-2.3078,-2.3078,-2.3078,-2.3078,-2.3078,-2.3078,-2.3078,-2.3078,-2.3078,-2.3078,-2.3078,-2.3078,-2.3078,-2.3078,-2.3078,-2.3078,-2.3078,-2.3078,-2.3078,-2.3078,-2.3078,-2.3078,-2.3078,-2.3078,-2.3078,-2.3078,-2.3078,-2.3078,-2.3078,-2.3078,-2.3078,-2.2774,-2.1669,-2.1493,-2.1091,-1.9962,-1.9798,-1.9798,-1.9798,-1.9798,-1.9798,-1.9798,-1.9798,-1.9901,-2.0105,-1.9901,-1.9901,-2.0105,-1.9901,-1.9991,-2.037,-1.9991,-1.9901,-2.0105,-1.9901,-1.9798,-1.9798,-1.9798,-1.9798,-1.9798,-1.9798,-1.9798,-1.9798,-1.9798,-1.9798,-1.9798,-1.9798,-1.9798,-1.9798,-1.9798,-1.9798,-1.9798,-1.9798,-1.9798,-1.9798,-2.7203,-2.7137,-2.6982,-2.6414,-2.5946,-2.5508,-2.5217,-2.4768,-2.4323,-2.3884,-2.3839,-2.3649,-2.3125,-2.3078,-2.3078,-2.3078,-2.3078,-2.3078,-2.3078,-2.3078,-2.3078,-2.3078,-2.3078,-2.3078,-2.3078,-2.3078,-2.3078,-2.3078,-2.3078,-2.3078,-2.3078,-2.3078,-2.3078,-2.3078,-2.3078,-2.3078,-2.3078,-2.3078,-2.3078,-2.3078,-2.3078,-2.3078,-2.3078,-2.3078,-2.3078,-2.3078,-2.3078,-2.3078,-2.3078,-2.3078,-2.3078,-2.3078,-2.3078,-2.3078,-2.3078,-2.3078,-2.3078,-2.3078,-2.3078,-2.3078,-2.3078,-2.3078,-2.3078,-2.3078,-2.3078,-2.3078,-2.3078,-2.3078,-2.3078,-2.3078,-2.3078,-2.2962,-2.2523,-2.1631,-2.1305,-2.084,-1.9924,-1.9798,-1.9798,-1.9798,-1.9798,-1.9798,-1.9798,-1.9798,-1.9798,-1.9798,-1.9798,-1.9798,-1.9798,-1.9798,-1.9798,-1.9798,-1.9798,-1.9798,-1.9798,-1.9798,-1.9798,-1.9798,-1.9798,-1.9798,-1.9798,-1.9798,-1.9798,-1.9798,-1.9798,-1.9798,-1.9798,-1.9798,-1.9798,-1.9798,-1.9798,-1.9798,-1.9798,-1.9798,-1.9798,-1.9798,-2.6669,-2.651,-2.6068,-2.4624,-2.435,-2.406,-2.3305,-2.3138,-2.3078,-2.3078,-2.3078,-2.3078,-2.3078,-2.3078,-2.3078,-2.3078,-2.3078,-2.3078,-2.3078,-2.3078,-2.3078,-2.3078,-2.3078,-2.3078,-2.3078,-2.3078,-2.3078,-2.3078,-2.3078,-2.3078,-2.3078,-2.3078,-2.3078,-2.3078,-2.3078,-2.3078,-2.3078,-2.3078,-2.3078,-2.3078,-2.3078,-2.3078,-2.3078,-2.3078,-2.3078,-2.3078,-2.3078,-2.3078,-2.3078,-2.3078,-2.3078,-2.3078,-2.3078,-2.3078,-2.3078,-2.3005,-2.3005,-2.3005,-2.3005,-2.3005,-2.3017,-2.3065,-2.3078,-2.3078,-2.3078,-2.3078,-2.3078,-2.3078,-2.3078,-2.3078,-2.3078,-2.2686,-2.2133,-2.1581,-2.1029,-2.0464,-1.9874,-1.9798,-1.9798,-1.9798,-1.9798,-1.9798,-1.9798,-1.9798,-1.9798,-1.9798,-1.9798,-1.9798,-1.9798,-1.9798,-1.9798,-1.9798,-1.9798,-1.9798,-1.9798,-1.9798,-1.9798,-1.9798,-1.9798,-1.9798,-1.9798,-1.9798,-1.9798,-1.9798,-1.9798,-1.9798,-1.9798,-1.9798,-1.9798,-1.9798,-1.9798,-1.9798,-1.9798,-1.9798,-1.9798,-1.9798,-2.6669,-2.651,-2.6229,-2.5342,-2.4681,-2.4234,-2.406,-2.3484,-2.3078,-2.3078,-2.3078,-2.3078,-2.3078,-2.3078,-2.3078,-2.3078,-2.3078,-2.3078,-2.3078,-2.3078,-2.3078,-2.3078,-2.3078,-2.3078,-2.3078,-2.3078,-2.3078,-2.3078,-2.3078,-2.3078,-2.3078,-2.3078,-2.3078,-2.3078,-2.3078,-2.3078,-2.3078,-2.3078,-2.3078,-2.3078,-2.3078,-2.3078,-2.3078,-2.3078,-2.3078,-2.3078,-2.3078,-2.3078,-2.3078,-2.3078,-2.3078,-2.3078,-2.3078,-2.3078,-2.3005,-2.2322,-2.2125,-2.2125,-2.2125,-2.2125,-2.2322,-2.2944,-2.3078,-2.3078,-2.3078,-2.3078,-2.3078,-2.3078,-2.3078,-2.3078,-2.3078,-2.2686,-2.2133,-2.1581,-2.1029,-2.0464,-1.9874,-1.9798,-1.9798,-1.9798,-1.9798,-1.9798,-1.9798,-1.9798,-1.9798,-1.9798,-1.9798,-1.9798,-1.9798,-1.9798,-1.9798,-1.9798,-1.9798,-1.9798,-1.9798,-1.9798,-1.9798,-1.9798,-1.9798,-1.9798,-1.9798,-1.9798,-1.9798,-1.9798,-1.9798,-1.9798,-1.9798,-1.9798,-1.9798,-1.9798,-1.9798,-1.9798,-1.9798,-1.9798,-1.9798,-1.9798,-2.5673,-2.5453,-2.5231,-2.4439,-2.3989,-2.3708,-2.3708,-2.3365,-2.3078,-2.3078,-2.3078,-2.3078,-2.3078,-2.3078,-2.3078,-2.3078,-2.3078,-2.3078,-2.3078,-2.3078,-2.3078,-2.3078,-2.3078,-2.3078,-2.3078,-2.3078,-2.3078,-2.3078,-2.3078,-2.3078,-2.3078,-2.3078,-2.3078,-2.3078,-2.3078,-2.3078,-2.3078,-2.3078,-2.3078,-2.3078,-2.3078,-2.3078,-2.3078,-2.3078,-2.3078,-2.3078,-2.3078,-2.3078,-2.3078,-2.3078,-2.3078,-2.3078,-2.3078,-2.3078,-2.3005,-2.258,-2.2187,-2.1877,-2.1877,-2.1877,-2.2002,-2.2445,-2.2823,-2.3078,-2.3078,-2.3078,-2.3078,-2.3078,-2.2823,-2.2506,-2.2506,-2.1548,-2.0676,-2.0401,-1.9698,-1.909,-1.8804,-1.9032,-1.9254,-1.9254,-1.9592,-1.9798,-1.9798,-1.9798,-1.9798,-1.9798,-1.9798,-1.9798,-1.9798,-1.9798,-1.9798,-1.9798,-1.9798,-1.9798,-1.9798,-1.9798,-1.9798,-1.9798,-1.9798,-1.9798,-1.9798,-1.9798,-1.9798,-1.9798,-1.9798,-1.9798,-1.9798,-1.9798,-1.9798,-1.9798,-1.9798,-1.9798,-1.9798,-1.9798,-1.9798,-1.9798,-2.4567,-2.4292,-2.406,-2.3245,-2.3078,-2.3078,-2.3078,-2.3078,-2.3078,-2.3078,-2.3078,-2.3078,-2.3078,-2.3078,-2.3078,-2.3078,-2.3078,-2.3078,-2.3078,-2.3078,-2.3078,-2.3078,-2.3078,-2.3078,-2.3078,-2.3078,-2.3078,-2.3078,-2.3078,-2.3078,-2.3078,-2.3078,-2.3078,-2.3078,-2.3078,-2.3078,-2.3078,-2.3078,-2.3078,-2.3078,-2.3078,-2.3078,-2.3078,-2.3078,-2.3078,-2.3078,-2.3078,-2.3017,-2.2884,-2.2884,-2.2884,-2.2944,-2.3078,-2.3017,-2.2884,-2.2689,-2.2113,-2.1428,-2.1428,-2.1553,-2.169,-2.1877,-2.2384,-2.2884,-2.2884,-2.2884,-2.2884,-2.2884,-2.2249,-2.169,-2.169,-2.0274,-1.9112,-1.9112,-1.8283,-1.7578,-1.7578,-1.8221,-1.8715,-1.8715,-1.9371,-1.9798,-1.9798,-1.9798,-1.9798,-1.9798,-1.9798,-1.9798,-1.9798,-1.9798,-1.9798,-1.9798,-1.9798,-1.9798,-1.9798,-1.9798,-1.9798,-1.9798,-1.9798,-1.9798,-1.9798,-1.9798,-1.9798,-1.9798,-1.9798,-1.9798,-1.9798,-1.9798,-1.9798,-1.9798,-1.9798,-1.9798,-1.9798,-1.9798,-1.9798,-1.9798,-2.4452,-2.4292,-2.406,-2.3245,-2.3078,-2.3078,-2.3078,-2.3078,-2.3078,-2.3078,-2.3078,-2.3078,-2.3078,-2.3078,-2.3078,-2.3078,-2.3078,-2.3078,-2.3078,-2.3078,-2.3078,-2.3078,-2.3078,-2.3078,-2.3078,-2.3078,-2.3078,-2.3078,-2.3078,-2.3078,-2.3078,-2.3078,-2.3078,-2.3078,-2.3078,-2.3078,-2.3078,-2.3078,-2.3078,-2.3078,-2.3078,-2.3078,-2.3078,-2.3078,-2.3078,-2.3078,-2.3078,-2.2641,-2.2063,-2.2063,-2.2063,-2.2199,-2.2884,-2.2628,-2.1939,-2.1164,-2.0333,-1.9628,-1.9628,-2.0204,-2.0974,-2.169,-2.2002,-2.2063,-2.2063,-2.2063,-2.2063,-2.2063,-2.1365,-2.0782,-2.0782,-1.9845,-1.9112,-1.9112,-1.8283,-1.7578,-1.7578,-1.8221,-1.8715,-1.8715,-1.9371,-1.9798,-1.9798,-1.9798,-1.9798,-1.9798,-1.9798,-1.9798,-1.9798,-1.9798,-1.9798,-1.9798,-1.9798,-1.9798,-1.9798,-1.9798,-1.9798,-1.9798,-1.9798,-1.9798,-1.9798,-1.9798,-1.9798,-1.9798,-1.9798,-1.9798,-1.9798,-1.9798,-1.9798,-1.9798,-1.9798,-1.9798,-1.9798,-1.9798,-1.9798,-1.9798,-2.3767,-2.3649,-2.3543,-2.3125,-2.3078,-2.3078,-2.3078,-2.3078,-2.3078,-2.3078,-2.3078,-2.3078,-2.3078,-2.3078,-2.3078,-2.3078,-2.3078,-2.3078,-2.3078,-2.3078,-2.3078,-2.3078,-2.3078,-2.3078,-2.3078,-2.3078,-2.3078,-2.3078,-2.3078,-2.3078,-2.3078,-2.3078,-2.3078,-2.3078,-2.3078,-2.3078,-2.3078,-2.3078,-2.3078,-2.3078,-2.3078,-2.3078,-2.3078,-2.2628,-2.2445,-2.2384,-2.1865,-2.1803,-2.1877,-2.1877,-2.2199,-2.2628,-2.3005,-2.2567,-2.1815,-2.1428,-2.0333,-1.9299,-1.9299,-1.9562,-1.9944,-2.0333,-2.0782,-2.1164,-2.1164,-2.0782,-2.059,-2.1037,-2.0462,-1.9879,-1.9879,-1.8733,-1.7739,-1.7739,-1.696,-1.6358,-1.6358,-1.7024,-1.7797,-1.8608,-1.8992,-1.9371,-1.9747,-1.9423,-1.9371,-1.9747,-1.9798,-1.9798,-1.9798,-1.9798,-1.9798,-1.9798,-1.9798,-1.9798,-1.9798,-1.9798,-1.9798,-1.9798,-1.9798,-1.9579,-1.9202,-1.9592,-1.9579,-1.9202,-1.9631,-1.9798,-1.9747,-1.9371,-1.9202,-1.915,-1.8715,-1.8555,-1.8555,-1.8555,-1.8555,-1.8555]}]]